<?xml version="1.0" encoding="UTF-8" standalone="no" ?>
<gpx xmlns="http://www.topografix.com/GPX/1/1" xmlns:xsi="http://www.w3.org/2001/XMLSchema-instance" xsi:schemaLocation="http://www.topografix.com/GPX/1/1 http://www.topografix.com/GPX/1/1/gpx.xsd" version="1.1" creator="VisuGPX - https://www.visugpx.com">
  <metadata>
    <name>2021 Raid en Provence</name>
  </metadata>
  <trk>
    <name><![CDATA[J1 Black Laragne]]></name>
    <extensions>
      <line xmlns="http://www.topografix.com/GPX/gpx_style/0/2">
        <color>ff00ff</color>
        <width>4</width>
      </line>
    </extensions>
    <trkseg>
      <trkpt lat="44.31394" lon="5.82625">
        <ele>565.7</ele>
        <time>2021-05-27T08:00:32.000Z</time>
      </trkpt>
      <trkpt lat="44.31402" lon="5.82593">
        <ele>564.9</ele>
        <time>2021-05-27T08:00:35.647Z</time>
      </trkpt>
      <trkpt lat="44.3144" lon="5.82433">
        <ele>567.4</ele>
        <time>2021-05-27T08:01:24.196Z</time>
      </trkpt>
      <trkpt lat="44.31438" lon="5.82367">
        <ele>570.4</ele>
        <time>2021-05-27T08:01:53.754Z</time>
      </trkpt>
      <trkpt lat="44.31405" lon="5.8226">
        <ele>573.4</ele>
        <time>2021-05-27T08:02:34.304Z</time>
      </trkpt>
      <trkpt lat="44.31438" lon="5.82194">
        <ele>574</ele>
        <time>2021-05-27T08:02:55.070Z</time>
      </trkpt>
      <trkpt lat="44.31519" lon="5.82151">
        <ele>574.2</ele>
        <time>2021-05-27T08:03:23.934Z</time>
      </trkpt>
      <trkpt lat="44.31682" lon="5.82059">
        <ele>576.8</ele>
        <time>2021-05-27T08:04:30.236Z</time>
      </trkpt>
      <trkpt lat="44.31771" lon="5.82009">
        <ele>580.6</ele>
        <time>2021-05-27T08:05:19.327Z</time>
      </trkpt>
      <trkpt lat="44.31835" lon="5.81974">
        <ele>583.9</ele>
        <time>2021-05-27T08:05:58.008Z</time>
      </trkpt>
      <trkpt lat="44.31871" lon="5.81941">
        <ele>590</ele>
        <time>2021-05-27T08:06:52.154Z</time>
      </trkpt>
      <trkpt lat="44.31896" lon="5.81898">
        <ele>594</ele>
        <time>2021-05-27T08:07:26.067Z</time>
      </trkpt>
      <trkpt lat="44.31898" lon="5.81896">
        <ele>594.3</ele>
        <time>2021-05-27T08:07:28.721Z</time>
      </trkpt>
      <trkpt lat="44.31933" lon="5.81845">
        <ele>598.4</ele>
        <time>2021-05-27T08:08:04.923Z</time>
      </trkpt>
      <trkpt lat="44.31935" lon="5.81835">
        <ele>598.5</ele>
        <time>2021-05-27T08:08:07.686Z</time>
      </trkpt>
      <trkpt lat="44.31913" lon="5.81751">
        <ele>600.6</ele>
        <time>2021-05-27T08:08:37.522Z</time>
      </trkpt>
      <trkpt lat="44.31919" lon="5.81671">
        <ele>605</ele>
        <time>2021-05-27T08:09:17.215Z</time>
      </trkpt>
      <trkpt lat="44.3193" lon="5.81621">
        <ele>606.1</ele>
        <time>2021-05-27T08:09:33.914Z</time>
      </trkpt>
      <trkpt lat="44.31954" lon="5.81517">
        <ele>611.1</ele>
        <time>2021-05-27T08:10:22.975Z</time>
      </trkpt>
      <trkpt lat="44.31971" lon="5.81455">
        <ele>615.4</ele>
        <time>2021-05-27T08:10:59.849Z</time>
      </trkpt>
      <trkpt lat="44.31971" lon="5.81452">
        <ele>615.6</ele>
        <time>2021-05-27T08:11:01.556Z</time>
      </trkpt>
      <trkpt lat="44.31979" lon="5.81406">
        <ele>618.1</ele>
        <time>2021-05-27T08:11:24.437Z</time>
      </trkpt>
      <trkpt lat="44.31983" lon="5.81388">
        <ele>618.8</ele>
        <time>2021-05-27T08:11:32.223Z</time>
      </trkpt>
      <trkpt lat="44.32002" lon="5.81319">
        <ele>622.2</ele>
        <time>2021-05-27T08:12:05.494Z</time>
      </trkpt>
      <trkpt lat="44.32003" lon="5.81283">
        <ele>622.4</ele>
        <time>2021-05-27T08:12:14.542Z</time>
      </trkpt>
      <trkpt lat="44.32017" lon="5.81149">
        <ele>624.2</ele>
        <time>2021-05-27T08:12:52.612Z</time>
      </trkpt>
      <trkpt lat="44.32058" lon="5.81036">
        <ele>628.7</ele>
        <time>2021-05-27T08:13:44.175Z</time>
      </trkpt>
      <trkpt lat="44.3216" lon="5.8087">
        <ele>635.8</ele>
        <time>2021-05-27T08:15:10.796Z</time>
      </trkpt>
      <trkpt lat="44.32312" lon="5.80758">
        <ele>641.4</ele>
        <time>2021-05-27T08:16:30.667Z</time>
      </trkpt>
      <trkpt lat="44.32435" lon="5.80776">
        <ele>647.2</ele>
        <time>2021-05-27T08:17:39.775Z</time>
      </trkpt>
      <trkpt lat="44.32484" lon="5.80806">
        <ele>652.4</ele>
        <time>2021-05-27T08:18:23.933Z</time>
      </trkpt>
      <trkpt lat="44.32486" lon="5.80808">
        <ele>652.6</ele>
        <time>2021-05-27T08:18:25.697Z</time>
      </trkpt>
      <trkpt lat="44.32542" lon="5.80835">
        <ele>656.6</ele>
        <time>2021-05-27T08:19:03.853Z</time>
      </trkpt>
      <trkpt lat="44.32609" lon="5.80849">
        <ele>661.7</ele>
        <time>2021-05-27T08:19:50.147Z</time>
      </trkpt>
      <trkpt lat="44.32734" lon="5.80825">
        <ele>666.6</ele>
        <time>2021-05-27T08:20:54.004Z</time>
      </trkpt>
      <trkpt lat="44.32779" lon="5.80831">
        <ele>666.7</ele>
        <time>2021-05-27T08:21:09.049Z</time>
      </trkpt>
      <trkpt lat="44.32802" lon="5.80796">
        <ele>662.9</ele>
        <time>2021-05-27T08:21:13.204Z</time>
      </trkpt>
      <trkpt lat="44.32827" lon="5.80748">
        <ele>659</ele>
        <time>2021-05-27T08:21:18.395Z</time>
      </trkpt>
      <trkpt lat="44.32836" lon="5.80734">
        <ele>659.1</ele>
        <time>2021-05-27T08:21:23.106Z</time>
      </trkpt>
      <trkpt lat="44.32908" lon="5.80622">
        <ele>657.1</ele>
        <time>2021-05-27T08:21:42.088Z</time>
      </trkpt>
      <trkpt lat="44.32911" lon="5.8062">
        <ele>657.1</ele>
        <time>2021-05-27T08:21:43.172Z</time>
      </trkpt>
      <trkpt lat="44.32947" lon="5.80598">
        <ele>660</ele>
        <time>2021-05-27T08:22:09.714Z</time>
      </trkpt>
      <trkpt lat="44.32982" lon="5.8051">
        <ele>662.8</ele>
        <time>2021-05-27T08:22:46.187Z</time>
      </trkpt>
      <trkpt lat="44.33034" lon="5.80441">
        <ele>665.7</ele>
        <time>2021-05-27T08:23:23.324Z</time>
      </trkpt>
      <trkpt lat="44.33103" lon="5.80408">
        <ele>664.8</ele>
        <time>2021-05-27T08:23:37.206Z</time>
      </trkpt>
      <trkpt lat="44.33213" lon="5.80318">
        <ele>665.8</ele>
        <time>2021-05-27T08:24:21.983Z</time>
      </trkpt>
      <trkpt lat="44.33263" lon="5.80252">
        <ele>671.4</ele>
        <time>2021-05-27T08:25:11.360Z</time>
      </trkpt>
      <trkpt lat="44.33296" lon="5.80196">
        <ele>677.8</ele>
        <time>2021-05-27T08:26:08.306Z</time>
      </trkpt>
      <trkpt lat="44.33312" lon="5.80172">
        <ele>680.9</ele>
        <time>2021-05-27T08:26:37.263Z</time>
      </trkpt>
      <trkpt lat="44.33313" lon="5.8017">
        <ele>681.2</ele>
        <time>2021-05-27T08:26:39.458Z</time>
      </trkpt>
      <trkpt lat="44.33364" lon="5.8015">
        <ele>684.7</ele>
        <time>2021-05-27T08:27:13.214Z</time>
      </trkpt>
      <trkpt lat="44.33396" lon="5.80171">
        <ele>688.3</ele>
        <time>2021-05-27T08:27:43.736Z</time>
      </trkpt>
      <trkpt lat="44.33403" lon="5.80185">
        <ele>688.3</ele>
        <time>2021-05-27T08:27:47.720Z</time>
      </trkpt>
      <trkpt lat="44.33437" lon="5.80179">
        <ele>689.7</ele>
        <time>2021-05-27T08:28:05.576Z</time>
      </trkpt>
      <trkpt lat="44.33482" lon="5.80116">
        <ele>690.4</ele>
        <time>2021-05-27T08:28:28.666Z</time>
      </trkpt>
      <trkpt lat="44.33498" lon="5.8009">
        <ele>690.9</ele>
        <time>2021-05-27T08:28:38.502Z</time>
      </trkpt>
      <trkpt lat="44.33516" lon="5.80062">
        <ele>691.6</ele>
        <time>2021-05-27T08:28:50.026Z</time>
      </trkpt>
      <trkpt lat="44.33551" lon="5.80045">
        <ele>692.5</ele>
        <time>2021-05-27T08:29:05.565Z</time>
      </trkpt>
      <trkpt lat="44.33627" lon="5.80013">
        <ele>699.2</ele>
        <time>2021-05-27T08:30:03.993Z</time>
      </trkpt>
      <trkpt lat="44.33648" lon="5.79991">
        <ele>703.1</ele>
        <time>2021-05-27T08:30:36.997Z</time>
      </trkpt>
      <trkpt lat="44.33676" lon="5.80072">
        <ele>701.7</ele>
        <time>2021-05-27T08:30:47.921Z</time>
      </trkpt>
      <trkpt lat="44.33677" lon="5.80075">
        <ele>701.6</ele>
        <time>2021-05-27T08:30:48.246Z</time>
      </trkpt>
      <trkpt lat="44.33718" lon="5.80068">
        <ele>703</ele>
        <time>2021-05-27T08:31:07.778Z</time>
      </trkpt>
      <trkpt lat="44.33723" lon="5.80016">
        <ele>705.9</ele>
        <time>2021-05-27T08:31:33.831Z</time>
      </trkpt>
      <trkpt lat="44.33754" lon="5.79937">
        <ele>713.5</ele>
        <time>2021-05-27T08:32:40.044Z</time>
      </trkpt>
      <trkpt lat="44.33768" lon="5.79916">
        <ele>713.5</ele>
        <time>2021-05-27T08:32:46.739Z</time>
      </trkpt>
      <trkpt lat="44.33852" lon="5.79804">
        <ele>720.4</ele>
        <time>2021-05-27T08:33:57.285Z</time>
      </trkpt>
      <trkpt lat="44.3395" lon="5.79717">
        <ele>727.8</ele>
        <time>2021-05-27T08:35:10.022Z</time>
      </trkpt>
      <trkpt lat="44.33997" lon="5.79695">
        <ele>727.9</ele>
        <time>2021-05-27T08:35:26.488Z</time>
      </trkpt>
      <trkpt lat="44.34046" lon="5.79653">
        <ele>733.2</ele>
        <time>2021-05-27T08:36:11.787Z</time>
      </trkpt>
      <trkpt lat="44.3409" lon="5.79587">
        <ele>738.9</ele>
        <time>2021-05-27T08:37:00.918Z</time>
      </trkpt>
      <trkpt lat="44.34115" lon="5.79546">
        <ele>742.3</ele>
        <time>2021-05-27T08:37:30.232Z</time>
      </trkpt>
      <trkpt lat="44.34185" lon="5.79474">
        <ele>744.8</ele>
        <time>2021-05-27T08:38:08.706Z</time>
      </trkpt>
      <trkpt lat="44.34212" lon="5.79484">
        <ele>745.9</ele>
        <time>2021-05-27T08:38:22.953Z</time>
      </trkpt>
      <trkpt lat="44.34247" lon="5.795">
        <ele>747.8</ele>
        <time>2021-05-27T08:38:44.170Z</time>
      </trkpt>
      <trkpt lat="44.34249" lon="5.79447">
        <ele>747.3</ele>
        <time>2021-05-27T08:38:51.319Z</time>
      </trkpt>
      <trkpt lat="44.34283" lon="5.79354">
        <ele>746.6</ele>
        <time>2021-05-27T08:39:06.104Z</time>
      </trkpt>
      <trkpt lat="44.34454" lon="5.79175">
        <ele>749.8</ele>
        <time>2021-05-27T08:40:26.833Z</time>
      </trkpt>
      <trkpt lat="44.34551" lon="5.79087">
        <ele>757.3</ele>
        <time>2021-05-27T08:41:39.871Z</time>
      </trkpt>
      <trkpt lat="44.34607" lon="5.79042">
        <ele>763.4</ele>
        <time>2021-05-27T08:42:31.826Z</time>
      </trkpt>
      <trkpt lat="44.34673" lon="5.78992">
        <ele>769.7</ele>
        <time>2021-05-27T08:43:26.858Z</time>
      </trkpt>
      <trkpt lat="44.34706" lon="5.78973">
        <ele>773.9</ele>
        <time>2021-05-27T08:44:03.421Z</time>
      </trkpt>
      <trkpt lat="44.34766" lon="5.78931">
        <ele>775.3</ele>
        <time>2021-05-27T08:44:30.469Z</time>
      </trkpt>
      <trkpt lat="44.34771" lon="5.7897">
        <ele>778.9</ele>
        <time>2021-05-27T08:45:03.097Z</time>
      </trkpt>
      <trkpt lat="44.3476" lon="5.78997">
        <ele>782.2</ele>
        <time>2021-05-27T08:45:31.045Z</time>
      </trkpt>
      <trkpt lat="44.34756" lon="5.79014">
        <ele>785.6</ele>
        <time>2021-05-27T08:45:47.141Z</time>
      </trkpt>
      <trkpt lat="44.34737" lon="5.79049">
        <ele>790.7</ele>
        <time>2021-05-27T08:46:26.663Z</time>
      </trkpt>
      <trkpt lat="44.34716" lon="5.7909">
        <ele>795.2</ele>
        <time>2021-05-27T08:47:06.977Z</time>
      </trkpt>
      <trkpt lat="44.3471" lon="5.79111">
        <ele>798.3</ele>
        <time>2021-05-27T08:47:27.316Z</time>
      </trkpt>
      <trkpt lat="44.34706" lon="5.7913">
        <ele>801.3</ele>
        <time>2021-05-27T08:47:45.130Z</time>
      </trkpt>
      <trkpt lat="44.34696" lon="5.79167">
        <ele>806.4</ele>
        <time>2021-05-27T08:48:20.706Z</time>
      </trkpt>
      <trkpt lat="44.34682" lon="5.79205">
        <ele>810.8</ele>
        <time>2021-05-27T08:48:59.152Z</time>
      </trkpt>
      <trkpt lat="44.34666" lon="5.79256">
        <ele>816.7</ele>
        <time>2021-05-27T08:49:49.242Z</time>
      </trkpt>
      <trkpt lat="44.34643" lon="5.79324">
        <ele>819.8</ele>
        <time>2021-05-27T08:50:21.526Z</time>
      </trkpt>
      <trkpt lat="44.34634" lon="5.79358">
        <ele>820.6</ele>
        <time>2021-05-27T08:50:33.311Z</time>
      </trkpt>
      <trkpt lat="44.34624" lon="5.7942">
        <ele>822.1</ele>
        <time>2021-05-27T08:50:54.553Z</time>
      </trkpt>
      <trkpt lat="44.34635" lon="5.79503">
        <ele>826</ele>
        <time>2021-05-27T08:51:32.613Z</time>
      </trkpt>
      <trkpt lat="44.34632" lon="5.79569">
        <ele>826.7</ele>
        <time>2021-05-27T08:51:50.453Z</time>
      </trkpt>
      <trkpt lat="44.3464" lon="5.79667">
        <ele>830.6</ele>
        <time>2021-05-27T08:52:32.114Z</time>
      </trkpt>
      <trkpt lat="44.34633" lon="5.79692">
        <ele>829.1</ele>
        <time>2021-05-27T08:52:34.461Z</time>
      </trkpt>
      <trkpt lat="44.34615" lon="5.79729">
        <ele>826.5</ele>
        <time>2021-05-27T08:52:38.372Z</time>
      </trkpt>
      <trkpt lat="44.34621" lon="5.79804">
        <ele>823.6</ele>
        <time>2021-05-27T08:52:45.072Z</time>
      </trkpt>
      <trkpt lat="44.34626" lon="5.79837">
        <ele>821</ele>
        <time>2021-05-27T08:52:48.021Z</time>
      </trkpt>
      <trkpt lat="44.34627" lon="5.79859">
        <ele>817.7</ele>
        <time>2021-05-27T08:52:49.948Z</time>
      </trkpt>
      <trkpt lat="44.34652" lon="5.79878">
        <ele>815.9</ele>
        <time>2021-05-27T08:52:53.218Z</time>
      </trkpt>
      <trkpt lat="44.34695" lon="5.7987">
        <ele>815.9</ele>
        <time>2021-05-27T08:53:07.363Z</time>
      </trkpt>
      <trkpt lat="44.34726" lon="5.79911">
        <ele>805.5</ele>
        <time>2021-05-27T08:53:12.578Z</time>
      </trkpt>
      <trkpt lat="44.34731" lon="5.79929">
        <ele>801.8</ele>
        <time>2021-05-27T08:53:14.266Z</time>
      </trkpt>
      <trkpt lat="44.34736" lon="5.79948">
        <ele>797.9</ele>
        <time>2021-05-27T08:53:16.036Z</time>
      </trkpt>
      <trkpt lat="44.34728" lon="5.7998">
        <ele>793.8</ele>
        <time>2021-05-27T08:53:18.999Z</time>
      </trkpt>
      <trkpt lat="44.34731" lon="5.79996">
        <ele>790.5</ele>
        <time>2021-05-27T08:53:20.444Z</time>
      </trkpt>
      <trkpt lat="44.34722" lon="5.8003">
        <ele>787</ele>
        <time>2021-05-27T08:53:23.613Z</time>
      </trkpt>
      <trkpt lat="44.34722" lon="5.80056">
        <ele>783</ele>
        <time>2021-05-27T08:53:25.886Z</time>
      </trkpt>
      <trkpt lat="44.34722" lon="5.80065">
        <ele>781.6</ele>
        <time>2021-05-27T08:53:26.673Z</time>
      </trkpt>
      <trkpt lat="44.34722" lon="5.80102">
        <ele>776.9</ele>
        <time>2021-05-27T08:53:29.907Z</time>
      </trkpt>
      <trkpt lat="44.34745" lon="5.8011">
        <ele>772.5</ele>
        <time>2021-05-27T08:53:32.804Z</time>
      </trkpt>
      <trkpt lat="44.34765" lon="5.80111">
        <ele>770.5</ele>
        <time>2021-05-27T08:53:35.250Z</time>
      </trkpt>
      <trkpt lat="44.34791" lon="5.80147">
        <ele>770.1</ele>
        <time>2021-05-27T08:53:42.343Z</time>
      </trkpt>
      <trkpt lat="44.348" lon="5.80192">
        <ele>771.4</ele>
        <time>2021-05-27T08:53:59.271Z</time>
      </trkpt>
      <trkpt lat="44.34831" lon="5.80292">
        <ele>774.7</ele>
        <time>2021-05-27T08:54:40.786Z</time>
      </trkpt>
      <trkpt lat="44.3483" lon="5.80411">
        <ele>775.5</ele>
        <time>2021-05-27T08:55:11.150Z</time>
      </trkpt>
      <trkpt lat="44.34855" lon="5.80475">
        <ele>777.4</ele>
        <time>2021-05-27T08:55:36.672Z</time>
      </trkpt>
      <trkpt lat="44.34865" lon="5.8048">
        <ele>778.1</ele>
        <time>2021-05-27T08:55:43.432Z</time>
      </trkpt>
      <trkpt lat="44.34906" lon="5.80438">
        <ele>778.2</ele>
        <time>2021-05-27T08:56:00.308Z</time>
      </trkpt>
      <trkpt lat="44.34938" lon="5.80394">
        <ele>774</ele>
        <time>2021-05-27T08:56:05.793Z</time>
      </trkpt>
      <trkpt lat="44.34966" lon="5.80387">
        <ele>770.8</ele>
        <time>2021-05-27T08:56:09.270Z</time>
      </trkpt>
      <trkpt lat="44.35014" lon="5.80359">
        <ele>759.5</ele>
        <time>2021-05-27T08:56:15.627Z</time>
      </trkpt>
      <trkpt lat="44.35031" lon="5.80335">
        <ele>751.5</ele>
        <time>2021-05-27T08:56:18.579Z</time>
      </trkpt>
      <trkpt lat="44.35033" lon="5.80317">
        <ele>748.5</ele>
        <time>2021-05-27T08:56:20.172Z</time>
      </trkpt>
      <trkpt lat="44.35035" lon="5.80288">
        <ele>744.1</ele>
        <time>2021-05-27T08:56:22.718Z</time>
      </trkpt>
      <trkpt lat="44.35036" lon="5.8027">
        <ele>741.5</ele>
        <time>2021-05-27T08:56:24.296Z</time>
      </trkpt>
      <trkpt lat="44.35037" lon="5.80259">
        <ele>739.9</ele>
        <time>2021-05-27T08:56:25.265Z</time>
      </trkpt>
      <trkpt lat="44.35048" lon="5.80209">
        <ele>731.9</ele>
        <time>2021-05-27T08:56:29.837Z</time>
      </trkpt>
      <trkpt lat="44.35058" lon="5.80172">
        <ele>726.8</ele>
        <time>2021-05-27T08:56:33.295Z</time>
      </trkpt>
      <trkpt lat="44.35038" lon="5.80155">
        <ele>726.1</ele>
        <time>2021-05-27T08:56:36.927Z</time>
      </trkpt>
      <trkpt lat="44.35051" lon="5.80112">
        <ele>721.2</ele>
        <time>2021-05-27T08:56:41.008Z</time>
      </trkpt>
      <trkpt lat="44.35064" lon="5.8009">
        <ele>718.1</ele>
        <time>2021-05-27T08:56:43.502Z</time>
      </trkpt>
      <trkpt lat="44.35074" lon="5.80048">
        <ele>713.1</ele>
        <time>2021-05-27T08:56:47.371Z</time>
      </trkpt>
      <trkpt lat="44.35088" lon="5.80015">
        <ele>708.3</ele>
        <time>2021-05-27T08:56:50.725Z</time>
      </trkpt>
      <trkpt lat="44.3509" lon="5.8001">
        <ele>707.6</ele>
        <time>2021-05-27T08:56:51.226Z</time>
      </trkpt>
      <trkpt lat="44.35097" lon="5.79992">
        <ele>706.5</ele>
        <time>2021-05-27T08:56:53.016Z</time>
      </trkpt>
      <trkpt lat="44.35103" lon="5.79985">
        <ele>706.3</ele>
        <time>2021-05-27T08:56:54.287Z</time>
      </trkpt>
      <trkpt lat="44.35132" lon="5.79959">
        <ele>704.3</ele>
        <time>2021-05-27T08:56:58.413Z</time>
      </trkpt>
      <trkpt lat="44.35144" lon="5.79936">
        <ele>703.1</ele>
        <time>2021-05-27T08:57:00.835Z</time>
      </trkpt>
      <trkpt lat="44.35154" lon="5.7993">
        <ele>701.8</ele>
        <time>2021-05-27T08:57:02.165Z</time>
      </trkpt>
      <trkpt lat="44.35157" lon="5.79928">
        <ele>701.5</ele>
        <time>2021-05-27T08:57:02.571Z</time>
      </trkpt>
      <trkpt lat="44.3519" lon="5.79917">
        <ele>697.5</ele>
        <time>2021-05-27T08:57:06.717Z</time>
      </trkpt>
      <trkpt lat="44.35257" lon="5.79877">
        <ele>690.7</ele>
        <time>2021-05-27T08:57:15.622Z</time>
      </trkpt>
      <trkpt lat="44.35278" lon="5.79877">
        <ele>691.2</ele>
        <time>2021-05-27T08:57:24.379Z</time>
      </trkpt>
      <trkpt lat="44.35296" lon="5.79798">
        <ele>688.2</ele>
        <time>2021-05-27T08:57:31.938Z</time>
      </trkpt>
      <trkpt lat="44.35291" lon="5.79757">
        <ele>686.9</ele>
        <time>2021-05-27T08:57:35.970Z</time>
      </trkpt>
      <trkpt lat="44.35288" lon="5.7974">
        <ele>687.7</ele>
        <time>2021-05-27T08:57:43.823Z</time>
      </trkpt>
      <trkpt lat="44.35315" lon="5.79665">
        <ele>685.6</ele>
        <time>2021-05-27T08:57:52.672Z</time>
      </trkpt>
      <trkpt lat="44.35312" lon="5.79592">
        <ele>685.3</ele>
        <time>2021-05-27T08:58:08.343Z</time>
      </trkpt>
      <trkpt lat="44.35314" lon="5.79562">
        <ele>684.1</ele>
        <time>2021-05-27T08:58:10.974Z</time>
      </trkpt>
      <trkpt lat="44.35315" lon="5.79539">
        <ele>683.3</ele>
        <time>2021-05-27T08:58:13.112Z</time>
      </trkpt>
      <trkpt lat="44.35329" lon="5.79437">
        <ele>678.5</ele>
        <time>2021-05-27T08:58:21.558Z</time>
      </trkpt>
      <trkpt lat="44.35356" lon="5.79344">
        <ele>677.8</ele>
        <time>2021-05-27T08:58:35.691Z</time>
      </trkpt>
      <trkpt lat="44.35367" lon="5.79313">
        <ele>677.7</ele>
        <time>2021-05-27T08:58:43.290Z</time>
      </trkpt>
      <trkpt lat="44.35371" lon="5.79242">
        <ele>676.6</ele>
        <time>2021-05-27T08:58:51.950Z</time>
      </trkpt>
      <trkpt lat="44.35382" lon="5.79211">
        <ele>676</ele>
        <time>2021-05-27T08:58:56.034Z</time>
      </trkpt>
      <trkpt lat="44.3539" lon="5.79188">
        <ele>675.2</ele>
        <time>2021-05-27T08:58:58.513Z</time>
      </trkpt>
      <trkpt lat="44.35376" lon="5.7911">
        <ele>671.4</ele>
        <time>2021-05-27T08:59:04.980Z</time>
      </trkpt>
      <trkpt lat="44.35374" lon="5.7909">
        <ele>670.4</ele>
        <time>2021-05-27T08:59:06.745Z</time>
      </trkpt>
      <trkpt lat="44.35379" lon="5.79031">
        <ele>667</ele>
        <time>2021-05-27T08:59:11.937Z</time>
      </trkpt>
      <trkpt lat="44.35382" lon="5.7897">
        <ele>664</ele>
        <time>2021-05-27T08:59:17.281Z</time>
      </trkpt>
      <trkpt lat="44.35385" lon="5.78905">
        <ele>661.6</ele>
        <time>2021-05-27T08:59:23.172Z</time>
      </trkpt>
      <trkpt lat="44.35417" lon="5.78878">
        <ele>658.6</ele>
        <time>2021-05-27T08:59:27.740Z</time>
      </trkpt>
      <trkpt lat="44.35435" lon="5.78818">
        <ele>658.7</ele>
        <time>2021-05-27T08:59:43.215Z</time>
      </trkpt>
      <trkpt lat="44.3542" lon="5.78734">
        <ele>655.6</ele>
        <time>2021-05-27T08:59:51.144Z</time>
      </trkpt>
      <trkpt lat="44.35431" lon="5.78699">
        <ele>655.1</ele>
        <time>2021-05-27T08:59:55.978Z</time>
      </trkpt>
      <trkpt lat="44.35503" lon="5.78664">
        <ele>659.4</ele>
        <time>2021-05-27T09:00:41.344Z</time>
      </trkpt>
      <trkpt lat="44.35533" lon="5.78636">
        <ele>663</ele>
        <time>2021-05-27T09:01:11.871Z</time>
      </trkpt>
      <trkpt lat="44.35544" lon="5.78619">
        <ele>664.4</ele>
        <time>2021-05-27T09:01:24.041Z</time>
      </trkpt>
      <trkpt lat="44.35614" lon="5.78541">
        <ele>668.5</ele>
        <time>2021-05-27T09:02:13.706Z</time>
      </trkpt>
      <trkpt lat="44.35693" lon="5.78466">
        <ele>670.9</ele>
        <time>2021-05-27T09:02:54.152Z</time>
      </trkpt>
      <trkpt lat="44.3576" lon="5.78457">
        <ele>673.5</ele>
        <time>2021-05-27T09:03:28.117Z</time>
      </trkpt>
      <trkpt lat="44.3582" lon="5.78443">
        <ele>676.6</ele>
        <time>2021-05-27T09:04:03.019Z</time>
      </trkpt>
      <trkpt lat="44.35856" lon="5.78427">
        <ele>679</ele>
        <time>2021-05-27T09:04:26.652Z</time>
      </trkpt>
      <trkpt lat="44.35899" lon="5.78368">
        <ele>683.8</ele>
        <time>2021-05-27T09:05:09.290Z</time>
      </trkpt>
      <trkpt lat="44.35918" lon="5.78335">
        <ele>687</ele>
        <time>2021-05-27T09:05:36.469Z</time>
      </trkpt>
      <trkpt lat="44.35921" lon="5.7832">
        <ele>688</ele>
        <time>2021-05-27T09:05:45.058Z</time>
      </trkpt>
      <trkpt lat="44.3594" lon="5.78293">
        <ele>689.6</ele>
        <time>2021-05-27T09:06:01.477Z</time>
      </trkpt>
      <trkpt lat="44.35981" lon="5.78283">
        <ele>689.7</ele>
        <time>2021-05-27T09:06:15.353Z</time>
      </trkpt>
      <trkpt lat="44.36036" lon="5.78242">
        <ele>686.4</ele>
        <time>2021-05-27T09:06:23.142Z</time>
      </trkpt>
      <trkpt lat="44.36071" lon="5.78207">
        <ele>682.5</ele>
        <time>2021-05-27T09:06:28.400Z</time>
      </trkpt>
      <trkpt lat="44.36088" lon="5.78181">
        <ele>680.2</ele>
        <time>2021-05-27T09:06:31.479Z</time>
      </trkpt>
      <trkpt lat="44.3613" lon="5.78117">
        <ele>675.4</ele>
        <time>2021-05-27T09:06:39.071Z</time>
      </trkpt>
      <trkpt lat="44.3612" lon="5.78091">
        <ele>673.6</ele>
        <time>2021-05-27T09:06:41.651Z</time>
      </trkpt>
      <trkpt lat="44.36124" lon="5.7802">
        <ele>668.1</ele>
        <time>2021-05-27T09:06:47.875Z</time>
      </trkpt>
      <trkpt lat="44.36126" lon="5.7798">
        <ele>664.9</ele>
        <time>2021-05-27T09:06:51.379Z</time>
      </trkpt>
      <trkpt lat="44.36132" lon="5.77929">
        <ele>660.9</ele>
        <time>2021-05-27T09:06:55.895Z</time>
      </trkpt>
      <trkpt lat="44.3614" lon="5.7793">
        <ele>661</ele>
        <time>2021-05-27T09:06:58.851Z</time>
      </trkpt>
      <trkpt lat="44.36161" lon="5.77876">
        <ele>659.9</ele>
        <time>2021-05-27T09:07:06.042Z</time>
      </trkpt>
      <trkpt lat="44.36196" lon="5.77856">
        <ele>663</ele>
        <time>2021-05-27T09:07:33.315Z</time>
      </trkpt>
      <trkpt lat="44.36243" lon="5.77815">
        <ele>666.9</ele>
        <time>2021-05-27T09:08:09.772Z</time>
      </trkpt>
      <trkpt lat="44.36284" lon="5.77773">
        <ele>668.3</ele>
        <time>2021-05-27T09:08:31.935Z</time>
      </trkpt>
      <trkpt lat="44.36385" lon="5.77694">
        <ele>670.1</ele>
        <time>2021-05-27T09:09:15.937Z</time>
      </trkpt>
      <trkpt lat="44.36402" lon="5.77669">
        <ele>670.3</ele>
        <time>2021-05-27T09:09:24.625Z</time>
      </trkpt>
      <trkpt lat="44.36414" lon="5.77647">
        <ele>669.9</ele>
        <time>2021-05-27T09:09:28.044Z</time>
      </trkpt>
      <trkpt lat="44.36465" lon="5.7756">
        <ele>671.8</ele>
        <time>2021-05-27T09:10:01.513Z</time>
      </trkpt>
      <trkpt lat="44.36473" lon="5.77537">
        <ele>671.9</ele>
        <time>2021-05-27T09:10:07.790Z</time>
      </trkpt>
      <trkpt lat="44.36476" lon="5.77524">
        <ele>671.8</ele>
        <time>2021-05-27T09:10:09.700Z</time>
      </trkpt>
      <trkpt lat="44.36485" lon="5.77477">
        <ele>670.4</ele>
        <time>2021-05-27T09:10:14.571Z</time>
      </trkpt>
      <trkpt lat="44.36498" lon="5.7745">
        <ele>670.1</ele>
        <time>2021-05-27T09:10:18.969Z</time>
      </trkpt>
      <trkpt lat="44.36513" lon="5.77433">
        <ele>670</ele>
        <time>2021-05-27T09:10:24.801Z</time>
      </trkpt>
      <trkpt lat="44.36563" lon="5.77383">
        <ele>668.8</ele>
        <time>2021-05-27T09:10:35.510Z</time>
      </trkpt>
      <trkpt lat="44.36636" lon="5.77361">
        <ele>664.1</ele>
        <time>2021-05-27T09:10:44.115Z</time>
      </trkpt>
      <trkpt lat="44.36645" lon="5.77358">
        <ele>663.2</ele>
        <time>2021-05-27T09:10:45.246Z</time>
      </trkpt>
      <trkpt lat="44.36682" lon="5.77345">
        <ele>661.1</ele>
        <time>2021-05-27T09:10:49.930Z</time>
      </trkpt>
      <trkpt lat="44.36732" lon="5.7728">
        <ele>656</ele>
        <time>2021-05-27T09:10:58.273Z</time>
      </trkpt>
      <trkpt lat="44.36737" lon="5.77267">
        <ele>655</ele>
        <time>2021-05-27T09:10:59.563Z</time>
      </trkpt>
      <trkpt lat="44.36742" lon="5.77255">
        <ele>654.1</ele>
        <time>2021-05-27T09:11:00.776Z</time>
      </trkpt>
      <trkpt lat="44.36748" lon="5.77211">
        <ele>651.1</ele>
        <time>2021-05-27T09:11:04.690Z</time>
      </trkpt>
      <trkpt lat="44.36748" lon="5.77166">
        <ele>648</ele>
        <time>2021-05-27T09:11:08.622Z</time>
      </trkpt>
      <trkpt lat="44.36724" lon="5.77099">
        <ele>645</ele>
        <time>2021-05-27T09:11:15.149Z</time>
      </trkpt>
      <trkpt lat="44.36685" lon="5.77056">
        <ele>642.9</ele>
        <time>2021-05-27T09:11:21.969Z</time>
      </trkpt>
      <trkpt lat="44.36689" lon="5.77005">
        <ele>641.9</ele>
        <time>2021-05-27T09:11:27.825Z</time>
      </trkpt>
      <trkpt lat="44.36755" lon="5.7689">
        <ele>639.5</ele>
        <time>2021-05-27T09:11:45.517Z</time>
      </trkpt>
      <trkpt lat="44.36805" lon="5.7687">
        <ele>640.9</ele>
        <time>2021-05-27T09:12:08.024Z</time>
      </trkpt>
      <trkpt lat="44.36866" lon="5.76905">
        <ele>643.9</ele>
        <time>2021-05-27T09:12:44.539Z</time>
      </trkpt>
      <trkpt lat="44.36916" lon="5.76899">
        <ele>643.4</ele>
        <time>2021-05-27T09:12:54.394Z</time>
      </trkpt>
      <trkpt lat="44.36955" lon="5.76918">
        <ele>644.6</ele>
        <time>2021-05-27T09:13:12.743Z</time>
      </trkpt>
      <trkpt lat="44.37024" lon="5.76906">
        <ele>645.3</ele>
        <time>2021-05-27T09:13:37.719Z</time>
      </trkpt>
      <trkpt lat="44.37041" lon="5.76904">
        <ele>645.6</ele>
        <time>2021-05-27T09:13:44.349Z</time>
      </trkpt>
      <trkpt lat="44.37134" lon="5.76895">
        <ele>649.7</ele>
        <time>2021-05-27T09:14:35.254Z</time>
      </trkpt>
      <trkpt lat="44.37227" lon="5.76883">
        <ele>655.4</ele>
        <time>2021-05-27T09:15:32.652Z</time>
      </trkpt>
      <trkpt lat="44.37235" lon="5.76883">
        <ele>655.9</ele>
        <time>2021-05-27T09:15:37.620Z</time>
      </trkpt>
      <trkpt lat="44.37248" lon="5.7687">
        <ele>656.2</ele>
        <time>2021-05-27T09:15:43.912Z</time>
      </trkpt>
      <trkpt lat="44.37302" lon="5.76814">
        <ele>657.8</ele>
        <time>2021-05-27T09:16:11.942Z</time>
      </trkpt>
      <trkpt lat="44.3738" lon="5.7679">
        <ele>661.3</ele>
        <time>2021-05-27T09:16:55.447Z</time>
      </trkpt>
      <trkpt lat="44.37415" lon="5.76735">
        <ele>666</ele>
        <time>2021-05-27T09:17:35.863Z</time>
      </trkpt>
      <trkpt lat="44.37428" lon="5.767">
        <ele>668.5</ele>
        <time>2021-05-27T09:17:57.393Z</time>
      </trkpt>
      <trkpt lat="44.37443" lon="5.76648">
        <ele>672.9</ele>
        <time>2021-05-27T09:18:34.959Z</time>
      </trkpt>
      <trkpt lat="44.37403" lon="5.76678">
        <ele>670</ele>
        <time>2021-05-27T09:18:40.150Z</time>
      </trkpt>
      <trkpt lat="44.3743" lon="5.76674">
        <ele>670.3</ele>
        <time>2021-05-27T09:18:50.000Z</time>
      </trkpt>
      <trkpt lat="44.37447" lon="5.76653">
        <ele>672.2</ele>
        <time>2021-05-27T09:19:06.605Z</time>
      </trkpt>
      <trkpt lat="44.37466" lon="5.76611">
        <ele>675.7</ele>
        <time>2021-05-27T09:19:36.301Z</time>
      </trkpt>
      <trkpt lat="44.37508" lon="5.76535">
        <ele>679.3</ele>
        <time>2021-05-27T09:20:16.084Z</time>
      </trkpt>
      <trkpt lat="44.37547" lon="5.76495">
        <ele>683.9</ele>
        <time>2021-05-27T09:20:55.229Z</time>
      </trkpt>
      <trkpt lat="44.37578" lon="5.76454">
        <ele>686.1</ele>
        <time>2021-05-27T09:21:19.805Z</time>
      </trkpt>
      <trkpt lat="44.37587" lon="5.76485">
        <ele>686</ele>
        <time>2021-05-27T09:21:27.133Z</time>
      </trkpt>
      <trkpt lat="44.37668" lon="5.7663">
        <ele>682.3</ele>
        <time>2021-05-27T09:21:47.940Z</time>
      </trkpt>
      <trkpt lat="44.37709" lon="5.76621">
        <ele>688.9</ele>
        <time>2021-05-27T09:22:40.136Z</time>
      </trkpt>
      <trkpt lat="44.37762" lon="5.76611">
        <ele>697.7</ele>
        <time>2021-05-27T09:23:47.398Z</time>
      </trkpt>
      <trkpt lat="44.37776" lon="5.7665">
        <ele>696.8</ele>
        <time>2021-05-27T09:23:52.294Z</time>
      </trkpt>
      <trkpt lat="44.37784" lon="5.76686">
        <ele>695.2</ele>
        <time>2021-05-27T09:23:55.488Z</time>
      </trkpt>
      <trkpt lat="44.37817" lon="5.76721">
        <ele>700.1</ele>
        <time>2021-05-27T09:24:38.236Z</time>
      </trkpt>
      <trkpt lat="44.37854" lon="5.76742">
        <ele>708.9</ele>
        <time>2021-05-27T09:25:28.455Z</time>
      </trkpt>
      <trkpt lat="44.37882" lon="5.76767">
        <ele>715.7</ele>
        <time>2021-05-27T09:26:10.230Z</time>
      </trkpt>
      <trkpt lat="44.37905" lon="5.76843">
        <ele>715.6</ele>
        <time>2021-05-27T09:26:28.978Z</time>
      </trkpt>
      <trkpt lat="44.37909" lon="5.76875">
        <ele>711.7</ele>
        <time>2021-05-27T09:26:31.816Z</time>
      </trkpt>
      <trkpt lat="44.37949" lon="5.76902">
        <ele>715.3</ele>
        <time>2021-05-27T09:27:03.607Z</time>
      </trkpt>
      <trkpt lat="44.37992" lon="5.76916">
        <ele>718.9</ele>
        <time>2021-05-27T09:27:35.336Z</time>
      </trkpt>
      <trkpt lat="44.38031" lon="5.76912">
        <ele>723.7</ele>
        <time>2021-05-27T09:28:17.938Z</time>
      </trkpt>
      <trkpt lat="44.38071" lon="5.76896">
        <ele>731.8</ele>
        <time>2021-05-27T09:29:10.262Z</time>
      </trkpt>
      <trkpt lat="44.38092" lon="5.76875">
        <ele>741.6</ele>
        <time>2021-05-27T09:29:42.726Z</time>
      </trkpt>
      <trkpt lat="44.38123" lon="5.76923">
        <ele>740.4</ele>
        <time>2021-05-27T09:29:50.214Z</time>
      </trkpt>
      <trkpt lat="44.38124" lon="5.76929">
        <ele>740.9</ele>
        <time>2021-05-27T09:29:54.516Z</time>
      </trkpt>
      <trkpt lat="44.38104" lon="5.76982">
        <ele>734.6</ele>
        <time>2021-05-27T09:29:59.751Z</time>
      </trkpt>
      <trkpt lat="44.38098" lon="5.77024">
        <ele>730.3</ele>
        <time>2021-05-27T09:30:03.493Z</time>
      </trkpt>
      <trkpt lat="44.38109" lon="5.77059">
        <ele>730.2</ele>
        <time>2021-05-27T09:30:11.930Z</time>
      </trkpt>
      <trkpt lat="44.38143" lon="5.77086">
        <ele>735.4</ele>
        <time>2021-05-27T09:31:00.801Z</time>
      </trkpt>
      <trkpt lat="44.38152" lon="5.77091">
        <ele>736.3</ele>
        <time>2021-05-27T09:31:08.483Z</time>
      </trkpt>
      <trkpt lat="44.38163" lon="5.77091">
        <ele>739</ele>
        <time>2021-05-27T09:31:22.318Z</time>
      </trkpt>
      <trkpt lat="44.38213" lon="5.77099">
        <ele>740.8</ele>
        <time>2021-05-27T09:31:46.724Z</time>
      </trkpt>
      <trkpt lat="44.38232" lon="5.77077">
        <ele>745.9</ele>
        <time>2021-05-27T09:32:17.741Z</time>
      </trkpt>
      <trkpt lat="44.38255" lon="5.77054">
        <ele>754.3</ele>
        <time>2021-05-27T09:32:53.297Z</time>
      </trkpt>
      <trkpt lat="44.38255" lon="5.77066">
        <ele>751.3</ele>
        <time>2021-05-27T09:32:54.345Z</time>
      </trkpt>
      <trkpt lat="44.38267" lon="5.77114">
        <ele>747.9</ele>
        <time>2021-05-27T09:32:58.787Z</time>
      </trkpt>
      <trkpt lat="44.3825" lon="5.7718">
        <ele>735.7</ele>
        <time>2021-05-27T09:33:04.916Z</time>
      </trkpt>
      <trkpt lat="44.38263" lon="5.77263">
        <ele>737.9</ele>
        <time>2021-05-27T09:33:34.551Z</time>
      </trkpt>
      <trkpt lat="44.38279" lon="5.77296">
        <ele>741.7</ele>
        <time>2021-05-27T09:34:10.344Z</time>
      </trkpt>
      <trkpt lat="44.38295" lon="5.77345">
        <ele>744.3</ele>
        <time>2021-05-27T09:34:35.144Z</time>
      </trkpt>
      <trkpt lat="44.383" lon="5.77371">
        <ele>742.6</ele>
        <time>2021-05-27T09:34:37.496Z</time>
      </trkpt>
      <trkpt lat="44.38335" lon="5.77461">
        <ele>741.2</ele>
        <time>2021-05-27T09:34:50.316Z</time>
      </trkpt>
      <trkpt lat="44.38348" lon="5.77477">
        <ele>743.8</ele>
        <time>2021-05-27T09:35:12.091Z</time>
      </trkpt>
      <trkpt lat="44.38357" lon="5.77522">
        <ele>740.1</ele>
        <time>2021-05-27T09:35:16.173Z</time>
      </trkpt>
      <trkpt lat="44.3837" lon="5.77562">
        <ele>740</ele>
        <time>2021-05-27T09:35:25.936Z</time>
      </trkpt>
      <trkpt lat="44.38387" lon="5.77608">
        <ele>741.9</ele>
        <time>2021-05-27T09:35:47.224Z</time>
      </trkpt>
      <trkpt lat="44.38396" lon="5.77657">
        <ele>741.5</ele>
        <time>2021-05-27T09:35:54.222Z</time>
      </trkpt>
      <trkpt lat="44.38402" lon="5.7769">
        <ele>742.6</ele>
        <time>2021-05-27T09:36:07.674Z</time>
      </trkpt>
      <trkpt lat="44.38391" lon="5.77792">
        <ele>737.9</ele>
        <time>2021-05-27T09:36:16.115Z</time>
      </trkpt>
      <trkpt lat="44.38397" lon="5.77838">
        <ele>738.7</ele>
        <time>2021-05-27T09:36:30.073Z</time>
      </trkpt>
      <trkpt lat="44.38404" lon="5.7789">
        <ele>739.4</ele>
        <time>2021-05-27T09:36:44.921Z</time>
      </trkpt>
      <trkpt lat="44.38414" lon="5.78002">
        <ele>737.5</ele>
        <time>2021-05-27T09:36:58.337Z</time>
      </trkpt>
      <trkpt lat="44.3843" lon="5.78032">
        <ele>741.7</ele>
        <time>2021-05-27T09:37:31.984Z</time>
      </trkpt>
      <trkpt lat="44.38464" lon="5.78139">
        <ele>747</ele>
        <time>2021-05-27T09:38:24.265Z</time>
      </trkpt>
      <trkpt lat="44.38484" lon="5.782">
        <ele>746.1</ele>
        <time>2021-05-27T09:38:32.697Z</time>
      </trkpt>
      <trkpt lat="44.38497" lon="5.78235">
        <ele>741.9</ele>
        <time>2021-05-27T09:38:36.142Z</time>
      </trkpt>
      <trkpt lat="44.38547" lon="5.78334">
        <ele>747.6</ele>
        <time>2021-05-27T09:39:31.239Z</time>
      </trkpt>
      <trkpt lat="44.38601" lon="5.78399">
        <ele>754.6</ele>
        <time>2021-05-27T09:40:30.639Z</time>
      </trkpt>
      <trkpt lat="44.38619" lon="5.78431">
        <ele>762.1</ele>
        <time>2021-05-27T09:41:07.242Z</time>
      </trkpt>
      <trkpt lat="44.38648" lon="5.78492">
        <ele>762.9</ele>
        <time>2021-05-27T09:41:27.092Z</time>
      </trkpt>
      <trkpt lat="44.38675" lon="5.78598">
        <ele>765.3</ele>
        <time>2021-05-27T09:42:03.180Z</time>
      </trkpt>
      <trkpt lat="44.38686" lon="5.78669">
        <ele>766.6</ele>
        <time>2021-05-27T09:42:25.147Z</time>
      </trkpt>
      <trkpt lat="44.38708" lon="5.78686">
        <ele>772.8</ele>
        <time>2021-05-27T09:42:56.755Z</time>
      </trkpt>
      <trkpt lat="44.38743" lon="5.78706">
        <ele>777.6</ele>
        <time>2021-05-27T09:43:40.238Z</time>
      </trkpt>
      <trkpt lat="44.38748" lon="5.78735">
        <ele>776.8</ele>
        <time>2021-05-27T09:43:43.301Z</time>
      </trkpt>
      <trkpt lat="44.38757" lon="5.78783">
        <ele>781.7</ele>
        <time>2021-05-27T09:44:27.903Z</time>
      </trkpt>
      <trkpt lat="44.38772" lon="5.78831">
        <ele>786.6</ele>
        <time>2021-05-27T09:45:13.315Z</time>
      </trkpt>
      <trkpt lat="44.38806" lon="5.78859">
        <ele>788.2</ele>
        <time>2021-05-27T09:45:33.782Z</time>
      </trkpt>
      <trkpt lat="44.38844" lon="5.78922">
        <ele>785.2</ele>
        <time>2021-05-27T09:45:41.273Z</time>
      </trkpt>
      <trkpt lat="44.38844" lon="5.78951">
        <ele>785.7</ele>
        <time>2021-05-27T09:45:49.947Z</time>
      </trkpt>
      <trkpt lat="44.38802" lon="5.78983">
        <ele>791</ele>
        <time>2021-05-27T09:46:35.281Z</time>
      </trkpt>
      <trkpt lat="44.38802" lon="5.78984">
        <ele>791.1</ele>
        <time>2021-05-27T09:46:36.180Z</time>
      </trkpt>
      <trkpt lat="44.38802" lon="5.78993">
        <ele>791.6</ele>
        <time>2021-05-27T09:46:40.661Z</time>
      </trkpt>
      <trkpt lat="44.38817" lon="5.7901">
        <ele>787.9</ele>
        <time>2021-05-27T09:46:43.021Z</time>
      </trkpt>
      <trkpt lat="44.38841" lon="5.79023">
        <ele>785.6</ele>
        <time>2021-05-27T09:46:46.166Z</time>
      </trkpt>
      <trkpt lat="44.38846" lon="5.7903">
        <ele>786.9</ele>
        <time>2021-05-27T09:46:55.062Z</time>
      </trkpt>
      <trkpt lat="44.38833" lon="5.79052">
        <ele>784.3</ele>
        <time>2021-05-27T09:46:57.555Z</time>
      </trkpt>
      <trkpt lat="44.38814" lon="5.79077">
        <ele>790</ele>
        <time>2021-05-27T09:47:30.356Z</time>
      </trkpt>
      <trkpt lat="44.38796" lon="5.79105">
        <ele>796.7</ele>
        <time>2021-05-27T09:48:04.206Z</time>
      </trkpt>
      <trkpt lat="44.38785" lon="5.79115">
        <ele>799.8</ele>
        <time>2021-05-27T09:48:20.704Z</time>
      </trkpt>
      <trkpt lat="44.38767" lon="5.79121">
        <ele>803.7</ele>
        <time>2021-05-27T09:48:43.976Z</time>
      </trkpt>
      <trkpt lat="44.38766" lon="5.79121">
        <ele>803.9</ele>
        <time>2021-05-27T09:48:45.234Z</time>
      </trkpt>
      <trkpt lat="44.38755" lon="5.79136">
        <ele>806.2</ele>
        <time>2021-05-27T09:49:04.551Z</time>
      </trkpt>
      <trkpt lat="44.38758" lon="5.79139">
        <ele>805.7</ele>
        <time>2021-05-27T09:49:05.002Z</time>
      </trkpt>
      <trkpt lat="44.3878" lon="5.7917">
        <ele>804.5</ele>
        <time>2021-05-27T09:49:09.450Z</time>
      </trkpt>
      <trkpt lat="44.38775" lon="5.79195">
        <ele>810.3</ele>
        <time>2021-05-27T09:49:32.783Z</time>
      </trkpt>
      <trkpt lat="44.38777" lon="5.79213">
        <ele>813.9</ele>
        <time>2021-05-27T09:49:49.155Z</time>
      </trkpt>
      <trkpt lat="44.38787" lon="5.79239">
        <ele>818.5</ele>
        <time>2021-05-27T09:50:15.693Z</time>
      </trkpt>
      <trkpt lat="44.38796" lon="5.79219">
        <ele>813.4</ele>
        <time>2021-05-27T09:50:17.757Z</time>
      </trkpt>
      <trkpt lat="44.38807" lon="5.79197">
        <ele>807.5</ele>
        <time>2021-05-27T09:50:20.103Z</time>
      </trkpt>
      <trkpt lat="44.38818" lon="5.79186">
        <ele>804</ele>
        <time>2021-05-27T09:50:21.755Z</time>
      </trkpt>
      <trkpt lat="44.3883" lon="5.79193">
        <ele>804.3</ele>
        <time>2021-05-27T09:50:27.131Z</time>
      </trkpt>
      <trkpt lat="44.38844" lon="5.79222">
        <ele>809.8</ele>
        <time>2021-05-27T09:50:58.585Z</time>
      </trkpt>
      <trkpt lat="44.38867" lon="5.79245">
        <ele>814.1</ele>
        <time>2021-05-27T09:51:34.140Z</time>
      </trkpt>
      <trkpt lat="44.38885" lon="5.79259">
        <ele>815.4</ele>
        <time>2021-05-27T09:51:46.986Z</time>
      </trkpt>
      <trkpt lat="44.38907" lon="5.79272">
        <ele>814.9</ele>
        <time>2021-05-27T09:51:51.078Z</time>
      </trkpt>
      <trkpt lat="44.38909" lon="5.79287">
        <ele>815.6</ele>
        <time>2021-05-27T09:51:57.933Z</time>
      </trkpt>
      <trkpt lat="44.38886" lon="5.79311">
        <ele>820.6</ele>
        <time>2021-05-27T09:52:34.017Z</time>
      </trkpt>
      <trkpt lat="44.38874" lon="5.79325">
        <ele>824.2</ele>
        <time>2021-05-27T09:52:53.667Z</time>
      </trkpt>
      <trkpt lat="44.38862" lon="5.79343">
        <ele>828.8</ele>
        <time>2021-05-27T09:53:15.792Z</time>
      </trkpt>
      <trkpt lat="44.38851" lon="5.79375">
        <ele>835.8</ele>
        <time>2021-05-27T09:53:47.707Z</time>
      </trkpt>
      <trkpt lat="44.38849" lon="5.79392">
        <ele>839</ele>
        <time>2021-05-27T09:54:03.191Z</time>
      </trkpt>
      <trkpt lat="44.38846" lon="5.794">
        <ele>841.1</ele>
        <time>2021-05-27T09:54:11.312Z</time>
      </trkpt>
      <trkpt lat="44.38832" lon="5.79377">
        <ele>841</ele>
        <time>2021-05-27T09:54:17.885Z</time>
      </trkpt>
      <trkpt lat="44.38812" lon="5.79384">
        <ele>843.7</ele>
        <time>2021-05-27T09:54:42.921Z</time>
      </trkpt>
      <trkpt lat="44.38789" lon="5.79404">
        <ele>848.9</ele>
        <time>2021-05-27T09:55:16.978Z</time>
      </trkpt>
      <trkpt lat="44.38787" lon="5.79405">
        <ele>849.2</ele>
        <time>2021-05-27T09:55:19.649Z</time>
      </trkpt>
      <trkpt lat="44.3876" lon="5.79422">
        <ele>854.4</ele>
        <time>2021-05-27T09:55:56.887Z</time>
      </trkpt>
      <trkpt lat="44.38731" lon="5.79475">
        <ele>868.4</ele>
        <time>2021-05-27T09:56:56.882Z</time>
      </trkpt>
      <trkpt lat="44.38711" lon="5.79499">
        <ele>874.6</ele>
        <time>2021-05-27T09:57:30.019Z</time>
      </trkpt>
      <trkpt lat="44.38695" lon="5.79484">
        <ele>873.3</ele>
        <time>2021-05-27T09:57:32.373Z</time>
      </trkpt>
      <trkpt lat="44.38695" lon="5.79464">
        <ele>869.9</ele>
        <time>2021-05-27T09:57:34.120Z</time>
      </trkpt>
      <trkpt lat="44.38686" lon="5.79433">
        <ele>865.8</ele>
        <time>2021-05-27T09:57:37.043Z</time>
      </trkpt>
      <trkpt lat="44.38683" lon="5.79408">
        <ele>862</ele>
        <time>2021-05-27T09:57:39.257Z</time>
      </trkpt>
      <trkpt lat="44.38664" lon="5.79399">
        <ele>862.7</ele>
        <time>2021-05-27T09:57:48.870Z</time>
      </trkpt>
      <trkpt lat="44.38656" lon="5.79407">
        <ele>864.3</ele>
        <time>2021-05-27T09:58:01.237Z</time>
      </trkpt>
      <trkpt lat="44.38611" lon="5.79445">
        <ele>870.1</ele>
        <time>2021-05-27T09:58:50.805Z</time>
      </trkpt>
      <trkpt lat="44.38547" lon="5.79522">
        <ele>882.5</ele>
        <time>2021-05-27T10:00:36.960Z</time>
      </trkpt>
      <trkpt lat="44.38492" lon="5.79572">
        <ele>885.7</ele>
        <time>2021-05-27T10:01:14.061Z</time>
      </trkpt>
      <trkpt lat="44.38465" lon="5.79586">
        <ele>888.2</ele>
        <time>2021-05-27T10:01:35.699Z</time>
      </trkpt>
      <trkpt lat="44.38456" lon="5.7957">
        <ele>887.8</ele>
        <time>2021-05-27T10:01:38.017Z</time>
      </trkpt>
      <trkpt lat="44.38467" lon="5.79495">
        <ele>885</ele>
        <time>2021-05-27T10:01:44.959Z</time>
      </trkpt>
      <trkpt lat="44.38456" lon="5.79468">
        <ele>887.9</ele>
        <time>2021-05-27T10:02:11.782Z</time>
      </trkpt>
      <trkpt lat="44.38439" lon="5.79437">
        <ele>892.2</ele>
        <time>2021-05-27T10:02:46.903Z</time>
      </trkpt>
      <trkpt lat="44.38436" lon="5.79388">
        <ele>894.3</ele>
        <time>2021-05-27T10:03:08.310Z</time>
      </trkpt>
      <trkpt lat="44.38436" lon="5.79385">
        <ele>894.4</ele>
        <time>2021-05-27T10:03:09.506Z</time>
      </trkpt>
      <trkpt lat="44.38415" lon="5.79289">
        <ele>900.9</ele>
        <time>2021-05-27T10:04:05.237Z</time>
      </trkpt>
      <trkpt lat="44.38432" lon="5.79164">
        <ele>903.9</ele>
        <time>2021-05-27T10:04:47.729Z</time>
      </trkpt>
      <trkpt lat="44.38433" lon="5.79157">
        <ele>903.7</ele>
        <time>2021-05-27T10:04:48.451Z</time>
      </trkpt>
      <trkpt lat="44.3841" lon="5.79111">
        <ele>905.3</ele>
        <time>2021-05-27T10:05:09.062Z</time>
      </trkpt>
      <trkpt lat="44.38347" lon="5.79064">
        <ele>910.1</ele>
        <time>2021-05-27T10:05:54.949Z</time>
      </trkpt>
      <trkpt lat="44.38342" lon="5.79048">
        <ele>910.1</ele>
        <time>2021-05-27T10:05:59.019Z</time>
      </trkpt>
      <trkpt lat="44.3832" lon="5.78928">
        <ele>914.6</ele>
        <time>2021-05-27T10:06:49.774Z</time>
      </trkpt>
      <trkpt lat="44.3832" lon="5.78924">
        <ele>914.7</ele>
        <time>2021-05-27T10:06:51.145Z</time>
      </trkpt>
      <trkpt lat="44.38305" lon="5.78807">
        <ele>919.6</ele>
        <time>2021-05-27T10:07:42.147Z</time>
      </trkpt>
      <trkpt lat="44.38305" lon="5.78802">
        <ele>919.8</ele>
        <time>2021-05-27T10:07:44.268Z</time>
      </trkpt>
      <trkpt lat="44.38295" lon="5.78741">
        <ele>924.3</ele>
        <time>2021-05-27T10:08:22.421Z</time>
      </trkpt>
      <trkpt lat="44.38289" lon="5.78714">
        <ele>926.5</ele>
        <time>2021-05-27T10:08:41.177Z</time>
      </trkpt>
      <trkpt lat="44.38274" lon="5.78658">
        <ele>931.7</ele>
        <time>2021-05-27T10:09:27.117Z</time>
      </trkpt>
      <trkpt lat="44.38273" lon="5.78652">
        <ele>932.2</ele>
        <time>2021-05-27T10:09:31.419Z</time>
      </trkpt>
      <trkpt lat="44.38268" lon="5.78601">
        <ele>935.6</ele>
        <time>2021-05-27T10:10:00.468Z</time>
      </trkpt>
      <trkpt lat="44.38255" lon="5.78559">
        <ele>940</ele>
        <time>2021-05-27T10:10:41.609Z</time>
      </trkpt>
      <trkpt lat="44.38243" lon="5.78541">
        <ele>943.4</ele>
        <time>2021-05-27T10:11:03.735Z</time>
      </trkpt>
      <trkpt lat="44.38226" lon="5.78557">
        <ele>947.7</ele>
        <time>2021-05-27T10:11:29.503Z</time>
      </trkpt>
      <trkpt lat="44.38221" lon="5.78566">
        <ele>948.7</ele>
        <time>2021-05-27T10:11:38.378Z</time>
      </trkpt>
      <trkpt lat="44.382" lon="5.78605">
        <ele>951.2</ele>
        <time>2021-05-27T10:12:01.562Z</time>
      </trkpt>
      <trkpt lat="44.38162" lon="5.78678">
        <ele>954.6</ele>
        <time>2021-05-27T10:12:39.019Z</time>
      </trkpt>
      <trkpt lat="44.38088" lon="5.78842">
        <ele>964.4</ele>
        <time>2021-05-27T10:14:10.452Z</time>
      </trkpt>
      <trkpt lat="44.38072" lon="5.78879">
        <ele>968.7</ele>
        <time>2021-05-27T10:14:49.325Z</time>
      </trkpt>
      <trkpt lat="44.38064" lon="5.78901">
        <ele>971.1</ele>
        <time>2021-05-27T10:15:11.513Z</time>
      </trkpt>
      <trkpt lat="44.38054" lon="5.7898">
        <ele>973.1</ele>
        <time>2021-05-27T10:15:38.988Z</time>
      </trkpt>
      <trkpt lat="44.38045" lon="5.79056">
        <ele>976.9</ele>
        <time>2021-05-27T10:16:14.849Z</time>
      </trkpt>
      <trkpt lat="44.3803" lon="5.79152">
        <ele>985.5</ele>
        <time>2021-05-27T10:17:31.079Z</time>
      </trkpt>
      <trkpt lat="44.38023" lon="5.79205">
        <ele>990.2</ele>
        <time>2021-05-27T10:18:12.662Z</time>
      </trkpt>
      <trkpt lat="44.38026" lon="5.7923">
        <ele>989.8</ele>
        <time>2021-05-27T10:18:15.726Z</time>
      </trkpt>
      <trkpt lat="44.38025" lon="5.79257">
        <ele>991.1</ele>
        <time>2021-05-27T10:18:28.150Z</time>
      </trkpt>
      <trkpt lat="44.38023" lon="5.79313">
        <ele>994.6</ele>
        <time>2021-05-27T10:18:58.398Z</time>
      </trkpt>
      <trkpt lat="44.38022" lon="5.7939">
        <ele>994.3</ele>
        <time>2021-05-27T10:19:14.962Z</time>
      </trkpt>
      <trkpt lat="44.38046" lon="5.7954">
        <ele>992.1</ele>
        <time>2021-05-27T10:19:33.991Z</time>
      </trkpt>
      <trkpt lat="44.38057" lon="5.79584">
        <ele>991.8</ele>
        <time>2021-05-27T10:19:40.617Z</time>
      </trkpt>
      <trkpt lat="44.38071" lon="5.79653">
        <ele>992.6</ele>
        <time>2021-05-27T10:20:00.121Z</time>
      </trkpt>
      <trkpt lat="44.38075" lon="5.79698">
        <ele>992.5</ele>
        <time>2021-05-27T10:20:10.212Z</time>
      </trkpt>
      <trkpt lat="44.38049" lon="5.79826">
        <ele>1004</ele>
        <time>2021-05-27T10:21:51.503Z</time>
      </trkpt>
      <trkpt lat="44.38048" lon="5.79848">
        <ele>1005</ele>
        <time>2021-05-27T10:22:01.356Z</time>
      </trkpt>
      <trkpt lat="44.3805" lon="5.79872">
        <ele>1004.7</ele>
        <time>2021-05-27T10:22:04.443Z</time>
      </trkpt>
      <trkpt lat="44.38071" lon="5.79981">
        <ele>999.2</ele>
        <time>2021-05-27T10:22:14.305Z</time>
      </trkpt>
      <trkpt lat="44.38103" lon="5.8008">
        <ele>998.1</ele>
        <time>2021-05-27T10:22:28.748Z</time>
      </trkpt>
      <trkpt lat="44.3811" lon="5.80104">
        <ele>994.8</ele>
        <time>2021-05-27T10:22:31.012Z</time>
      </trkpt>
      <trkpt lat="44.3805" lon="5.8021">
        <ele>999.4</ele>
        <time>2021-05-27T10:23:25.259Z</time>
      </trkpt>
      <trkpt lat="44.37993" lon="5.80308">
        <ele>1010.1</ele>
        <time>2021-05-27T10:24:58.659Z</time>
      </trkpt>
      <trkpt lat="44.37982" lon="5.80327">
        <ele>1014.1</ele>
        <time>2021-05-27T10:25:20.638Z</time>
      </trkpt>
      <trkpt lat="44.37974" lon="5.80345">
        <ele>1017.8</ele>
        <time>2021-05-27T10:25:39.692Z</time>
      </trkpt>
      <trkpt lat="44.37972" lon="5.80385">
        <ele>1017.6</ele>
        <time>2021-05-27T10:25:48.134Z</time>
      </trkpt>
      <trkpt lat="44.37965" lon="5.80461">
        <ele>1019.1</ele>
        <time>2021-05-27T10:26:11.973Z</time>
      </trkpt>
      <trkpt lat="44.37952" lon="5.80528">
        <ele>1023.4</ele>
        <time>2021-05-27T10:26:49.207Z</time>
      </trkpt>
      <trkpt lat="44.3794" lon="5.80588">
        <ele>1025.6</ele>
        <time>2021-05-27T10:27:14.498Z</time>
      </trkpt>
      <trkpt lat="44.37929" lon="5.80696">
        <ele>1024.9</ele>
        <time>2021-05-27T10:27:30.012Z</time>
      </trkpt>
      <trkpt lat="44.37921" lon="5.80717">
        <ele>1028.9</ele>
        <time>2021-05-27T10:27:51.403Z</time>
      </trkpt>
      <trkpt lat="44.3791" lon="5.80738">
        <ele>1034</ele>
        <time>2021-05-27T10:28:14.807Z</time>
      </trkpt>
      <trkpt lat="44.37911" lon="5.80783">
        <ele>1031</ele>
        <time>2021-05-27T10:28:18.741Z</time>
      </trkpt>
      <trkpt lat="44.37911" lon="5.80806">
        <ele>1029.2</ele>
        <time>2021-05-27T10:28:20.750Z</time>
      </trkpt>
      <trkpt lat="44.37904" lon="5.80826">
        <ele>1030.4</ele>
        <time>2021-05-27T10:28:31.636Z</time>
      </trkpt>
      <trkpt lat="44.37882" lon="5.80848">
        <ele>1037</ele>
        <time>2021-05-27T10:29:05.646Z</time>
      </trkpt>
      <trkpt lat="44.3785" lon="5.80962">
        <ele>1042</ele>
        <time>2021-05-27T10:29:57.998Z</time>
      </trkpt>
      <trkpt lat="44.37838" lon="5.81011">
        <ele>1045.6</ele>
        <time>2021-05-27T10:30:28.568Z</time>
      </trkpt>
      <trkpt lat="44.37825" lon="5.81053">
        <ele>1050.7</ele>
        <time>2021-05-27T10:31:09.712Z</time>
      </trkpt>
      <trkpt lat="44.37808" lon="5.81095">
        <ele>1056.9</ele>
        <time>2021-05-27T10:31:53.101Z</time>
      </trkpt>
      <trkpt lat="44.37795" lon="5.81115">
        <ele>1061.9</ele>
        <time>2021-05-27T10:32:17.402Z</time>
      </trkpt>
      <trkpt lat="44.37795" lon="5.81118">
        <ele>1061.5</ele>
        <time>2021-05-27T10:32:17.664Z</time>
      </trkpt>
      <trkpt lat="44.37762" lon="5.81212">
        <ele>1066.8</ele>
        <time>2021-05-27T10:33:07.078Z</time>
      </trkpt>
      <trkpt lat="44.37721" lon="5.81296">
        <ele>1081.3</ele>
        <time>2021-05-27T10:34:38.516Z</time>
      </trkpt>
      <trkpt lat="44.37708" lon="5.8134">
        <ele>1085.5</ele>
        <time>2021-05-27T10:35:15.905Z</time>
      </trkpt>
      <trkpt lat="44.37701" lon="5.81367">
        <ele>1089.2</ele>
        <time>2021-05-27T10:35:41.724Z</time>
      </trkpt>
      <trkpt lat="44.37693" lon="5.81446">
        <ele>1092.4</ele>
        <time>2021-05-27T10:36:15.596Z</time>
      </trkpt>
      <trkpt lat="44.37682" lon="5.81481">
        <ele>1099.4</ele>
        <time>2021-05-27T10:36:49.966Z</time>
      </trkpt>
      <trkpt lat="44.37667" lon="5.81526">
        <ele>1108.8</ele>
        <time>2021-05-27T10:37:34.602Z</time>
      </trkpt>
      <trkpt lat="44.37656" lon="5.81564">
        <ele>1116.6</ele>
        <time>2021-05-27T10:38:11.457Z</time>
      </trkpt>
      <trkpt lat="44.37645" lon="5.81597">
        <ele>1123.1</ele>
        <time>2021-05-27T10:38:44.190Z</time>
      </trkpt>
      <trkpt lat="44.3763" lon="5.81635">
        <ele>1129.6</ele>
        <time>2021-05-27T10:39:23.214Z</time>
      </trkpt>
      <trkpt lat="44.37615" lon="5.81675">
        <ele>1135</ele>
        <time>2021-05-27T10:40:03.821Z</time>
      </trkpt>
      <trkpt lat="44.376" lon="5.81714">
        <ele>1140.5</ele>
        <time>2021-05-27T10:40:43.634Z</time>
      </trkpt>
      <trkpt lat="44.3759" lon="5.81797">
        <ele>1143.3</ele>
        <time>2021-05-27T10:41:17.176Z</time>
      </trkpt>
      <trkpt lat="44.37577" lon="5.81837">
        <ele>1151.6</ele>
        <time>2021-05-27T10:41:56.677Z</time>
      </trkpt>
      <trkpt lat="44.37565" lon="5.81873">
        <ele>1156.7</ele>
        <time>2021-05-27T10:42:32.386Z</time>
      </trkpt>
      <trkpt lat="44.37553" lon="5.819">
        <ele>1162.6</ele>
        <time>2021-05-27T10:43:00.968Z</time>
      </trkpt>
      <trkpt lat="44.3755" lon="5.81944">
        <ele>1161.3</ele>
        <time>2021-05-27T10:43:05.354Z</time>
      </trkpt>
      <trkpt lat="44.37533" lon="5.82025">
        <ele>1166.8</ele>
        <time>2021-05-27T10:43:52.457Z</time>
      </trkpt>
      <trkpt lat="44.37523" lon="5.82078">
        <ele>1173.7</ele>
        <time>2021-05-27T10:44:41.735Z</time>
      </trkpt>
      <trkpt lat="44.37512" lon="5.82121">
        <ele>1182.8</ele>
        <time>2021-05-27T10:45:22.792Z</time>
      </trkpt>
      <trkpt lat="44.37505" lon="5.82162">
        <ele>1189.9</ele>
        <time>2021-05-27T10:46:00.687Z</time>
      </trkpt>
      <trkpt lat="44.37497" lon="5.82204">
        <ele>1193</ele>
        <time>2021-05-27T10:46:26.975Z</time>
      </trkpt>
      <trkpt lat="44.37472" lon="5.82286">
        <ele>1194.3</ele>
        <time>2021-05-27T10:46:52.527Z</time>
      </trkpt>
      <trkpt lat="44.37447" lon="5.82376">
        <ele>1199.4</ele>
        <time>2021-05-27T10:47:39.182Z</time>
      </trkpt>
      <trkpt lat="44.37436" lon="5.82427">
        <ele>1205.8</ele>
        <time>2021-05-27T10:48:27.072Z</time>
      </trkpt>
      <trkpt lat="44.37421" lon="5.82462">
        <ele>1218.8</ele>
        <time>2021-05-27T10:49:03.759Z</time>
      </trkpt>
      <trkpt lat="44.37409" lon="5.82515">
        <ele>1224.8</ele>
        <time>2021-05-27T10:49:53.739Z</time>
      </trkpt>
      <trkpt lat="44.37397" lon="5.82561">
        <ele>1221.7</ele>
        <time>2021-05-27T10:49:58.017Z</time>
      </trkpt>
      <trkpt lat="44.37378" lon="5.82631">
        <ele>1216.6</ele>
        <time>2021-05-27T10:50:04.559Z</time>
      </trkpt>
      <trkpt lat="44.37372" lon="5.82731">
        <ele>1217.1</ele>
        <time>2021-05-27T10:50:29.544Z</time>
      </trkpt>
      <trkpt lat="44.37372" lon="5.82825">
        <ele>1215.5</ele>
        <time>2021-05-27T10:50:40.687Z</time>
      </trkpt>
      <trkpt lat="44.37367" lon="5.82866">
        <ele>1215.8</ele>
        <time>2021-05-27T10:50:51.368Z</time>
      </trkpt>
      <trkpt lat="44.37366" lon="5.82948">
        <ele>1220</ele>
        <time>2021-05-27T10:51:30.315Z</time>
      </trkpt>
      <trkpt lat="44.3735" lon="5.83012">
        <ele>1227.6</ele>
        <time>2021-05-27T10:52:31.269Z</time>
      </trkpt>
      <trkpt lat="44.37341" lon="5.8306">
        <ele>1231.1</ele>
        <time>2021-05-27T10:53:00.962Z</time>
      </trkpt>
      <trkpt lat="44.37337" lon="5.83115">
        <ele>1232.6</ele>
        <time>2021-05-27T10:53:20.716Z</time>
      </trkpt>
      <trkpt lat="44.37341" lon="5.83196">
        <ele>1229.5</ele>
        <time>2021-05-27T10:53:27.940Z</time>
      </trkpt>
      <trkpt lat="44.37335" lon="5.83231">
        <ele>1230.2</ele>
        <time>2021-05-27T10:53:39.114Z</time>
      </trkpt>
      <trkpt lat="44.37336" lon="5.8327">
        <ele>1227.1</ele>
        <time>2021-05-27T10:53:42.523Z</time>
      </trkpt>
      <trkpt lat="44.37341" lon="5.83311">
        <ele>1221.7</ele>
        <time>2021-05-27T10:53:46.157Z</time>
      </trkpt>
      <trkpt lat="44.37343" lon="5.83376">
        <ele>1213.1</ele>
        <time>2021-05-27T10:53:51.841Z</time>
      </trkpt>
      <trkpt lat="44.37364" lon="5.83414">
        <ele>1206.8</ele>
        <time>2021-05-27T10:53:56.038Z</time>
      </trkpt>
      <trkpt lat="44.3741" lon="5.83436">
        <ele>1202.6</ele>
        <time>2021-05-27T10:54:01.980Z</time>
      </trkpt>
      <trkpt lat="44.37433" lon="5.83463">
        <ele>1197.5</ele>
        <time>2021-05-27T10:54:05.649Z</time>
      </trkpt>
      <trkpt lat="44.37455" lon="5.8352">
        <ele>1195</ele>
        <time>2021-05-27T10:54:11.385Z</time>
      </trkpt>
      <trkpt lat="44.37497" lon="5.83525">
        <ele>1193.7</ele>
        <time>2021-05-27T10:54:17.864Z</time>
      </trkpt>
      <trkpt lat="44.37518" lon="5.83524">
        <ele>1195.1</ele>
        <time>2021-05-27T10:54:31.309Z</time>
      </trkpt>
      <trkpt lat="44.37533" lon="5.83545">
        <ele>1199.7</ele>
        <time>2021-05-27T10:54:57.998Z</time>
      </trkpt>
      <trkpt lat="44.37536" lon="5.83593">
        <ele>1205.3</ele>
        <time>2021-05-27T10:55:41.314Z</time>
      </trkpt>
      <trkpt lat="44.37536" lon="5.83599">
        <ele>1204.9</ele>
        <time>2021-05-27T10:55:41.838Z</time>
      </trkpt>
      <trkpt lat="44.37529" lon="5.83639">
        <ele>1201.2</ele>
        <time>2021-05-27T10:55:45.436Z</time>
      </trkpt>
      <trkpt lat="44.37521" lon="5.8367">
        <ele>1196.8</ele>
        <time>2021-05-27T10:55:48.315Z</time>
      </trkpt>
      <trkpt lat="44.37518" lon="5.83681">
        <ele>1193.5</ele>
        <time>2021-05-27T10:55:49.344Z</time>
      </trkpt>
      <trkpt lat="44.37518" lon="5.8372">
        <ele>1184.4</ele>
        <time>2021-05-27T10:55:52.751Z</time>
      </trkpt>
      <trkpt lat="44.37519" lon="5.83745">
        <ele>1178.9</ele>
        <time>2021-05-27T10:55:54.939Z</time>
      </trkpt>
      <trkpt lat="44.37519" lon="5.83758">
        <ele>1175.5</ele>
        <time>2021-05-27T10:55:56.074Z</time>
      </trkpt>
      <trkpt lat="44.37517" lon="5.83778">
        <ele>1169.4</ele>
        <time>2021-05-27T10:55:57.839Z</time>
      </trkpt>
      <trkpt lat="44.37516" lon="5.83788">
        <ele>1166.4</ele>
        <time>2021-05-27T10:55:58.721Z</time>
      </trkpt>
      <trkpt lat="44.37516" lon="5.83795">
        <ele>1164.5</ele>
        <time>2021-05-27T10:55:59.332Z</time>
      </trkpt>
      <trkpt lat="44.37512" lon="5.83818">
        <ele>1156.7</ele>
        <time>2021-05-27T10:56:01.400Z</time>
      </trkpt>
      <trkpt lat="44.37514" lon="5.83842">
        <ele>1150.2</ele>
        <time>2021-05-27T10:56:03.511Z</time>
      </trkpt>
      <trkpt lat="44.37514" lon="5.83851">
        <ele>1147.1</ele>
        <time>2021-05-27T10:56:04.298Z</time>
      </trkpt>
      <trkpt lat="44.37505" lon="5.83844">
        <ele>1146</ele>
        <time>2021-05-27T10:56:05.556Z</time>
      </trkpt>
      <trkpt lat="44.37497" lon="5.83837">
        <ele>1146</ele>
        <time>2021-05-27T10:56:08.633Z</time>
      </trkpt>
      <trkpt lat="44.37504" lon="5.83873">
        <ele>1135.1</ele>
        <time>2021-05-27T10:56:11.893Z</time>
      </trkpt>
      <trkpt lat="44.37505" lon="5.83885">
        <ele>1131.2</ele>
        <time>2021-05-27T10:56:12.948Z</time>
      </trkpt>
      <trkpt lat="44.37499" lon="5.83901">
        <ele>1122.5</ele>
        <time>2021-05-27T10:56:14.527Z</time>
      </trkpt>
      <trkpt lat="44.37487" lon="5.83903">
        <ele>1118.4</ele>
        <time>2021-05-27T10:56:16.004Z</time>
      </trkpt>
      <trkpt lat="44.37482" lon="5.83898">
        <ele>1119</ele>
        <time>2021-05-27T10:56:21.097Z</time>
      </trkpt>
      <trkpt lat="44.37476" lon="5.83909">
        <ele>1112.9</ele>
        <time>2021-05-27T10:56:22.306Z</time>
      </trkpt>
      <trkpt lat="44.37463" lon="5.83928">
        <ele>1104</ele>
        <time>2021-05-27T10:56:24.604Z</time>
      </trkpt>
      <trkpt lat="44.37447" lon="5.8394">
        <ele>1096.5</ele>
        <time>2021-05-27T10:56:26.823Z</time>
      </trkpt>
      <trkpt lat="44.37426" lon="5.83946">
        <ele>1087.6</ele>
        <time>2021-05-27T10:56:29.443Z</time>
      </trkpt>
      <trkpt lat="44.37411" lon="5.83943">
        <ele>1082.5</ele>
        <time>2021-05-27T10:56:31.295Z</time>
      </trkpt>
      <trkpt lat="44.37374" lon="5.83894">
        <ele>1084.5</ele>
        <time>2021-05-27T10:56:57.235Z</time>
      </trkpt>
      <trkpt lat="44.37328" lon="5.83858">
        <ele>1080.4</ele>
        <time>2021-05-27T10:57:03.677Z</time>
      </trkpt>
      <trkpt lat="44.37318" lon="5.83856">
        <ele>1076.3</ele>
        <time>2021-05-27T10:57:04.912Z</time>
      </trkpt>
      <trkpt lat="44.37312" lon="5.83855">
        <ele>1073.7</ele>
        <time>2021-05-27T10:57:05.651Z</time>
      </trkpt>
      <trkpt lat="44.37297" lon="5.83847">
        <ele>1069.5</ele>
        <time>2021-05-27T10:57:07.613Z</time>
      </trkpt>
      <trkpt lat="44.37282" lon="5.83836">
        <ele>1066.4</ele>
        <time>2021-05-27T10:57:09.683Z</time>
      </trkpt>
      <trkpt lat="44.37256" lon="5.83818">
        <ele>1058.8</ele>
        <time>2021-05-27T10:57:13.228Z</time>
      </trkpt>
      <trkpt lat="44.37239" lon="5.83817">
        <ele>1051.4</ele>
        <time>2021-05-27T10:57:15.308Z</time>
      </trkpt>
      <trkpt lat="44.3723" lon="5.83819">
        <ele>1047.1</ele>
        <time>2021-05-27T10:57:16.422Z</time>
      </trkpt>
      <trkpt lat="44.37219" lon="5.8382">
        <ele>1042.3</ele>
        <time>2021-05-27T10:57:17.769Z</time>
      </trkpt>
      <trkpt lat="44.37212" lon="5.83823">
        <ele>1038.7</ele>
        <time>2021-05-27T10:57:18.664Z</time>
      </trkpt>
      <trkpt lat="44.37203" lon="5.83824">
        <ele>1034.7</ele>
        <time>2021-05-27T10:57:19.768Z</time>
      </trkpt>
      <trkpt lat="44.37193" lon="5.83821">
        <ele>1031.4</ele>
        <time>2021-05-27T10:57:21.018Z</time>
      </trkpt>
      <trkpt lat="44.37185" lon="5.83818">
        <ele>1028.9</ele>
        <time>2021-05-27T10:57:22.030Z</time>
      </trkpt>
      <trkpt lat="44.37179" lon="5.83827">
        <ele>1024.3</ele>
        <time>2021-05-27T10:57:23.105Z</time>
      </trkpt>
      <trkpt lat="44.37156" lon="5.83822">
        <ele>1015.6</ele>
        <time>2021-05-27T10:57:25.950Z</time>
      </trkpt>
      <trkpt lat="44.37147" lon="5.83821">
        <ele>1011.6</ele>
        <time>2021-05-27T10:57:27.054Z</time>
      </trkpt>
      <trkpt lat="44.37134" lon="5.83817">
        <ele>1006.2</ele>
        <time>2021-05-27T10:57:28.681Z</time>
      </trkpt>
      <trkpt lat="44.37116" lon="5.83813">
        <ele>998.1</ele>
        <time>2021-05-27T10:57:30.909Z</time>
      </trkpt>
      <trkpt lat="44.37112" lon="5.83813">
        <ele>996.2</ele>
        <time>2021-05-27T10:57:31.397Z</time>
      </trkpt>
      <trkpt lat="44.37101" lon="5.8381">
        <ele>991.1</ele>
        <time>2021-05-27T10:57:32.767Z</time>
      </trkpt>
      <trkpt lat="44.37091" lon="5.8381">
        <ele>986.3</ele>
        <time>2021-05-27T10:57:33.990Z</time>
      </trkpt>
      <trkpt lat="44.37085" lon="5.83821">
        <ele>983.1</ele>
        <time>2021-05-27T10:57:35.198Z</time>
      </trkpt>
      <trkpt lat="44.3708" lon="5.83834">
        <ele>979.9</ele>
        <time>2021-05-27T10:57:36.488Z</time>
      </trkpt>
      <trkpt lat="44.37073" lon="5.8385">
        <ele>973.5</ele>
        <time>2021-05-27T10:57:38.127Z</time>
      </trkpt>
      <trkpt lat="44.37061" lon="5.83853">
        <ele>966.8</ele>
        <time>2021-05-27T10:57:39.617Z</time>
      </trkpt>
      <trkpt lat="44.37054" lon="5.83862">
        <ele>962.4</ele>
        <time>2021-05-27T10:57:40.779Z</time>
      </trkpt>
      <trkpt lat="44.37046" lon="5.83876">
        <ele>957.6</ele>
        <time>2021-05-27T10:57:42.345Z</time>
      </trkpt>
      <trkpt lat="44.37037" lon="5.83887">
        <ele>953.3</ele>
        <time>2021-05-27T10:57:43.806Z</time>
      </trkpt>
      <trkpt lat="44.37021" lon="5.83895">
        <ele>947</ele>
        <time>2021-05-27T10:57:45.883Z</time>
      </trkpt>
      <trkpt lat="44.37003" lon="5.83906">
        <ele>941</ele>
        <time>2021-05-27T10:57:48.284Z</time>
      </trkpt>
      <trkpt lat="44.36991" lon="5.83915">
        <ele>936.7</ele>
        <time>2021-05-27T10:57:49.948Z</time>
      </trkpt>
      <trkpt lat="44.36983" lon="5.83923">
        <ele>932.1</ele>
        <time>2021-05-27T10:57:51.150Z</time>
      </trkpt>
      <trkpt lat="44.36976" lon="5.8393">
        <ele>928</ele>
        <time>2021-05-27T10:57:52.202Z</time>
      </trkpt>
      <trkpt lat="44.36973" lon="5.83933">
        <ele>926.3</ele>
        <time>2021-05-27T10:57:52.652Z</time>
      </trkpt>
      <trkpt lat="44.36961" lon="5.83942">
        <ele>920.8</ele>
        <time>2021-05-27T10:57:54.317Z</time>
      </trkpt>
      <trkpt lat="44.36954" lon="5.83947">
        <ele>918</ele>
        <time>2021-05-27T10:57:55.277Z</time>
      </trkpt>
      <trkpt lat="44.36942" lon="5.83974">
        <ele>913.5</ele>
        <time>2021-05-27T10:57:58.055Z</time>
      </trkpt>
      <trkpt lat="44.36937" lon="5.83983">
        <ele>912.4</ele>
        <time>2021-05-27T10:57:59.051Z</time>
      </trkpt>
      <trkpt lat="44.36918" lon="5.84008">
        <ele>907.1</ele>
        <time>2021-05-27T10:58:02.239Z</time>
      </trkpt>
      <trkpt lat="44.36909" lon="5.84013">
        <ele>903</ele>
        <time>2021-05-27T10:58:03.423Z</time>
      </trkpt>
      <trkpt lat="44.36904" lon="5.84025">
        <ele>897.5</ele>
        <time>2021-05-27T10:58:04.637Z</time>
      </trkpt>
      <trkpt lat="44.36889" lon="5.84036">
        <ele>890.6</ele>
        <time>2021-05-27T10:58:06.707Z</time>
      </trkpt>
      <trkpt lat="44.36873" lon="5.84035">
        <ele>887.6</ele>
        <time>2021-05-27T10:58:08.664Z</time>
      </trkpt>
      <trkpt lat="44.36842" lon="5.84029">
        <ele>882.4</ele>
        <time>2021-05-27T10:58:12.489Z</time>
      </trkpt>
      <trkpt lat="44.36827" lon="5.84033">
        <ele>878.3</ele>
        <time>2021-05-27T10:58:14.356Z</time>
      </trkpt>
      <trkpt lat="44.36817" lon="5.84036">
        <ele>875.4</ele>
        <time>2021-05-27T10:58:15.606Z</time>
      </trkpt>
      <trkpt lat="44.36807" lon="5.8404">
        <ele>872.5</ele>
        <time>2021-05-27T10:58:16.877Z</time>
      </trkpt>
      <trkpt lat="44.36783" lon="5.84044">
        <ele>866.5</ele>
        <time>2021-05-27T10:58:19.831Z</time>
      </trkpt>
      <trkpt lat="44.36761" lon="5.84048">
        <ele>861.2</ele>
        <time>2021-05-27T10:58:22.543Z</time>
      </trkpt>
      <trkpt lat="44.36746" lon="5.84052">
        <ele>857.4</ele>
        <time>2021-05-27T10:58:24.409Z</time>
      </trkpt>
      <trkpt lat="44.36725" lon="5.84074">
        <ele>852.1</ele>
        <time>2021-05-27T10:58:27.616Z</time>
      </trkpt>
      <trkpt lat="44.36715" lon="5.84088">
        <ele>849.8</ele>
        <time>2021-05-27T10:58:29.345Z</time>
      </trkpt>
      <trkpt lat="44.36689" lon="5.84095">
        <ele>844.8</ele>
        <time>2021-05-27T10:58:32.582Z</time>
      </trkpt>
      <trkpt lat="44.36673" lon="5.84115">
        <ele>841.8</ele>
        <time>2021-05-27T10:58:35.204Z</time>
      </trkpt>
      <trkpt lat="44.36671" lon="5.84122">
        <ele>841.5</ele>
        <time>2021-05-27T10:58:35.863Z</time>
      </trkpt>
      <trkpt lat="44.36679" lon="5.84184">
        <ele>840.3</ele>
        <time>2021-05-27T10:58:43.102Z</time>
      </trkpt>
      <trkpt lat="44.36675" lon="5.84246">
        <ele>837.2</ele>
        <time>2021-05-27T10:58:48.541Z</time>
      </trkpt>
      <trkpt lat="44.36675" lon="5.84276">
        <ele>834.2</ele>
        <time>2021-05-27T10:58:51.163Z</time>
      </trkpt>
      <trkpt lat="44.36642" lon="5.84292">
        <ele>832</ele>
        <time>2021-05-27T10:58:55.186Z</time>
      </trkpt>
      <trkpt lat="44.36596" lon="5.84317">
        <ele>833.7</ele>
        <time>2021-05-27T10:59:18.695Z</time>
      </trkpt>
      <trkpt lat="44.36546" lon="5.84404">
        <ele>834.2</ele>
        <time>2021-05-27T10:59:46.301Z</time>
      </trkpt>
      <trkpt lat="44.36555" lon="5.84448">
        <ele>831.8</ele>
        <time>2021-05-27T10:59:50.300Z</time>
      </trkpt>
      <trkpt lat="44.36559" lon="5.8446">
        <ele>830.4</ele>
        <time>2021-05-27T10:59:51.456Z</time>
      </trkpt>
      <trkpt lat="44.36563" lon="5.84471">
        <ele>829</ele>
        <time>2021-05-27T10:59:52.535Z</time>
      </trkpt>
      <trkpt lat="44.36571" lon="5.8451">
        <ele>823.9</ele>
        <time>2021-05-27T10:59:56.080Z</time>
      </trkpt>
      <trkpt lat="44.36575" lon="5.84518">
        <ele>822.5</ele>
        <time>2021-05-27T10:59:56.933Z</time>
      </trkpt>
      <trkpt lat="44.36577" lon="5.8452">
        <ele>822.2</ele>
        <time>2021-05-27T10:59:57.234Z</time>
      </trkpt>
      <trkpt lat="44.36577" lon="5.84551">
        <ele>818.2</ele>
        <time>2021-05-27T10:59:59.942Z</time>
      </trkpt>
      <trkpt lat="44.36579" lon="5.84603">
        <ele>811</ele>
        <time>2021-05-27T11:00:04.493Z</time>
      </trkpt>
      <trkpt lat="44.36581" lon="5.84609">
        <ele>810.3</ele>
        <time>2021-05-27T11:00:05.071Z</time>
      </trkpt>
      <trkpt lat="44.36584" lon="5.84653">
        <ele>803.1</ele>
        <time>2021-05-27T11:00:08.933Z</time>
      </trkpt>
      <trkpt lat="44.36584" lon="5.84676">
        <ele>800.5</ele>
        <time>2021-05-27T11:00:10.943Z</time>
      </trkpt>
      <trkpt lat="44.36576" lon="5.84755">
        <ele>796.1</ele>
        <time>2021-05-27T11:00:17.915Z</time>
      </trkpt>
      <trkpt lat="44.36556" lon="5.84808">
        <ele>792.8</ele>
        <time>2021-05-27T11:00:23.152Z</time>
      </trkpt>
      <trkpt lat="44.36526" lon="5.84878">
        <ele>788.9</ele>
        <time>2021-05-27T11:00:30.283Z</time>
      </trkpt>
      <trkpt lat="44.36514" lon="5.84915">
        <ele>789.3</ele>
        <time>2021-05-27T11:00:41.121Z</time>
      </trkpt>
      <trkpt lat="44.3651" lon="5.84948">
        <ele>784.7</ele>
        <time>2021-05-27T11:00:44.046Z</time>
      </trkpt>
      <trkpt lat="44.36524" lon="5.84988">
        <ele>779.3</ele>
        <time>2021-05-27T11:00:47.938Z</time>
      </trkpt>
      <trkpt lat="44.3652" lon="5.85023">
        <ele>774.3</ele>
        <time>2021-05-27T11:00:51.035Z</time>
      </trkpt>
      <trkpt lat="44.36519" lon="5.8505">
        <ele>770.6</ele>
        <time>2021-05-27T11:00:53.397Z</time>
      </trkpt>
      <trkpt lat="44.36498" lon="5.85079">
        <ele>766.2</ele>
        <time>2021-05-27T11:00:57.004Z</time>
      </trkpt>
      <trkpt lat="44.36491" lon="5.85094">
        <ele>763</ele>
        <time>2021-05-27T11:00:58.569Z</time>
      </trkpt>
      <trkpt lat="44.36455" lon="5.85153">
        <ele>752.4</ele>
        <time>2021-05-27T11:01:05.347Z</time>
      </trkpt>
      <trkpt lat="44.36453" lon="5.85193">
        <ele>747.7</ele>
        <time>2021-05-27T11:01:08.851Z</time>
      </trkpt>
      <trkpt lat="44.3645" lon="5.85247">
        <ele>740.8</ele>
        <time>2021-05-27T11:01:13.584Z</time>
      </trkpt>
      <trkpt lat="44.36446" lon="5.85279">
        <ele>737.2</ele>
        <time>2021-05-27T11:01:16.423Z</time>
      </trkpt>
      <trkpt lat="44.36428" lon="5.85299">
        <ele>736.4</ele>
        <time>2021-05-27T11:01:19.816Z</time>
      </trkpt>
      <trkpt lat="44.36437" lon="5.85327">
        <ele>732.5</ele>
        <time>2021-05-27T11:01:22.499Z</time>
      </trkpt>
      <trkpt lat="44.36414" lon="5.85332">
        <ele>734.2</ele>
        <time>2021-05-27T11:01:38.129Z</time>
      </trkpt>
      <trkpt lat="44.36361" lon="5.853">
        <ele>734.3</ele>
        <time>2021-05-27T11:01:57.256Z</time>
      </trkpt>
      <trkpt lat="44.36347" lon="5.85279">
        <ele>731.1</ele>
        <time>2021-05-27T11:01:59.765Z</time>
      </trkpt>
      <trkpt lat="44.36315" lon="5.85247">
        <ele>722.8</ele>
        <time>2021-05-27T11:02:04.573Z</time>
      </trkpt>
      <trkpt lat="44.36304" lon="5.85229">
        <ele>722.9</ele>
        <time>2021-05-27T11:02:10.409Z</time>
      </trkpt>
      <trkpt lat="44.36273" lon="5.85223">
        <ele>720.4</ele>
        <time>2021-05-27T11:02:14.234Z</time>
      </trkpt>
      <trkpt lat="44.36258" lon="5.85224">
        <ele>718.8</ele>
        <time>2021-05-27T11:02:16.069Z</time>
      </trkpt>
      <trkpt lat="44.36235" lon="5.85229">
        <ele>715</ele>
        <time>2021-05-27T11:02:18.914Z</time>
      </trkpt>
      <trkpt lat="44.3622" lon="5.85235">
        <ele>711.5</ele>
        <time>2021-05-27T11:02:20.821Z</time>
      </trkpt>
      <trkpt lat="44.36204" lon="5.85237">
        <ele>708.5</ele>
        <time>2021-05-27T11:02:22.785Z</time>
      </trkpt>
      <trkpt lat="44.36187" lon="5.85238">
        <ele>705.5</ele>
        <time>2021-05-27T11:02:24.864Z</time>
      </trkpt>
      <trkpt lat="44.36165" lon="5.85254">
        <ele>699</ele>
        <time>2021-05-27T11:02:27.895Z</time>
      </trkpt>
      <trkpt lat="44.36162" lon="5.85258">
        <ele>698.8</ele>
        <time>2021-05-27T11:02:28.434Z</time>
      </trkpt>
      <trkpt lat="44.36125" lon="5.85285">
        <ele>694.2</ele>
        <time>2021-05-27T11:02:33.535Z</time>
      </trkpt>
      <trkpt lat="44.36088" lon="5.85291">
        <ele>688.3</ele>
        <time>2021-05-27T11:02:38.088Z</time>
      </trkpt>
      <trkpt lat="44.36081" lon="5.85292">
        <ele>687.5</ele>
        <time>2021-05-27T11:02:38.948Z</time>
      </trkpt>
      <trkpt lat="44.36033" lon="5.85307">
        <ele>685.5</ele>
        <time>2021-05-27T11:02:45.807Z</time>
      </trkpt>
      <trkpt lat="44.36013" lon="5.8533">
        <ele>682.2</ele>
        <time>2021-05-27T11:02:48.972Z</time>
      </trkpt>
      <trkpt lat="44.3597" lon="5.85352">
        <ele>679.1</ele>
        <time>2021-05-27T11:02:54.568Z</time>
      </trkpt>
      <trkpt lat="44.35963" lon="5.85353">
        <ele>678.7</ele>
        <time>2021-05-27T11:02:55.420Z</time>
      </trkpt>
      <trkpt lat="44.35931" lon="5.85356">
        <ele>677.4</ele>
        <time>2021-05-27T11:02:59.898Z</time>
      </trkpt>
      <trkpt lat="44.359" lon="5.85387">
        <ele>676.1</ele>
        <time>2021-05-27T11:03:05.563Z</time>
      </trkpt>
      <trkpt lat="44.3587" lon="5.85406">
        <ele>677.1</ele>
        <time>2021-05-27T11:03:20.438Z</time>
      </trkpt>
      <trkpt lat="44.35852" lon="5.85427">
        <ele>676</ele>
        <time>2021-05-27T11:03:23.525Z</time>
      </trkpt>
      <trkpt lat="44.35832" lon="5.85448">
        <ele>674.5</ele>
        <time>2021-05-27T11:03:26.475Z</time>
      </trkpt>
      <trkpt lat="44.35802" lon="5.8547">
        <ele>670.8</ele>
        <time>2021-05-27T11:03:30.615Z</time>
      </trkpt>
      <trkpt lat="44.35776" lon="5.8549">
        <ele>667.2</ele>
        <time>2021-05-27T11:03:34.242Z</time>
      </trkpt>
      <trkpt lat="44.3573" lon="5.85479">
        <ele>666.2</ele>
        <time>2021-05-27T11:03:42.194Z</time>
      </trkpt>
      <trkpt lat="44.35698" lon="5.85432">
        <ele>668.4</ele>
        <time>2021-05-27T11:04:08.210Z</time>
      </trkpt>
      <trkpt lat="44.35695" lon="5.85365">
        <ele>672.7</ele>
        <time>2021-05-27T11:04:45.160Z</time>
      </trkpt>
      <trkpt lat="44.35679" lon="5.85328">
        <ele>671.3</ele>
        <time>2021-05-27T11:04:49.292Z</time>
      </trkpt>
      <trkpt lat="44.35662" lon="5.85325">
        <ele>668.4</ele>
        <time>2021-05-27T11:04:51.386Z</time>
      </trkpt>
      <trkpt lat="44.3564" lon="5.85321">
        <ele>666.2</ele>
        <time>2021-05-27T11:04:54.098Z</time>
      </trkpt>
      <trkpt lat="44.35619" lon="5.85286">
        <ele>666.3</ele>
        <time>2021-05-27T11:05:05.058Z</time>
      </trkpt>
      <trkpt lat="44.3562" lon="5.85284">
        <ele>666.6</ele>
        <time>2021-05-27T11:05:07.252Z</time>
      </trkpt>
      <trkpt lat="44.35585" lon="5.85216">
        <ele>667.3</ele>
        <time>2021-05-27T11:05:29.128Z</time>
      </trkpt>
      <trkpt lat="44.35516" lon="5.85215">
        <ele>659.8</ele>
        <time>2021-05-27T11:05:37.562Z</time>
      </trkpt>
      <trkpt lat="44.35461" lon="5.85228">
        <ele>651.2</ele>
        <time>2021-05-27T11:05:44.380Z</time>
      </trkpt>
      <trkpt lat="44.35443" lon="5.85237">
        <ele>648.1</ele>
        <time>2021-05-27T11:05:46.716Z</time>
      </trkpt>
      <trkpt lat="44.35402" lon="5.8527">
        <ele>643.6</ele>
        <time>2021-05-27T11:05:52.498Z</time>
      </trkpt>
      <trkpt lat="44.35326" lon="5.85293">
        <ele>641.5</ele>
        <time>2021-05-27T11:06:04.948Z</time>
      </trkpt>
      <trkpt lat="44.35313" lon="5.85297">
        <ele>641.6</ele>
        <time>2021-05-27T11:06:09.609Z</time>
      </trkpt>
      <trkpt lat="44.35288" lon="5.85327">
        <ele>642.3</ele>
        <time>2021-05-27T11:06:22.946Z</time>
      </trkpt>
      <trkpt lat="44.35269" lon="5.8529">
        <ele>641.1</ele>
        <time>2021-05-27T11:06:27.659Z</time>
      </trkpt>
      <trkpt lat="44.35257" lon="5.85253">
        <ele>640.1</ele>
        <time>2021-05-27T11:06:31.964Z</time>
      </trkpt>
      <trkpt lat="44.35219" lon="5.85145">
        <ele>638.9</ele>
        <time>2021-05-27T11:06:48.016Z</time>
      </trkpt>
      <trkpt lat="44.35166" lon="5.85045">
        <ele>637.1</ele>
        <time>2021-05-27T11:07:03.397Z</time>
      </trkpt>
      <trkpt lat="44.35165" lon="5.849">
        <ele>635</ele>
        <time>2021-05-27T11:07:21.308Z</time>
      </trkpt>
      <trkpt lat="44.35156" lon="5.84884">
        <ele>634.7</ele>
        <time>2021-05-27T11:07:23.812Z</time>
      </trkpt>
      <trkpt lat="44.35091" lon="5.84707">
        <ele>633.9</ele>
        <time>2021-05-27T11:08:06.527Z</time>
      </trkpt>
      <trkpt lat="44.3508" lon="5.84627">
        <ele>634.8</ele>
        <time>2021-05-27T11:08:28.653Z</time>
      </trkpt>
      <trkpt lat="44.35109" lon="5.84583">
        <ele>635.9</ele>
        <time>2021-05-27T11:08:46.903Z</time>
      </trkpt>
      <trkpt lat="44.35094" lon="5.844">
        <ele>637.4</ele>
        <time>2021-05-27T11:09:34.853Z</time>
      </trkpt>
      <trkpt lat="44.35095" lon="5.84322">
        <ele>637.6</ele>
        <time>2021-05-27T11:09:53.660Z</time>
      </trkpt>
      <trkpt lat="44.35047" lon="5.84247">
        <ele>636.5</ele>
        <time>2021-05-27T11:10:06.860Z</time>
      </trkpt>
      <trkpt lat="44.34972" lon="5.84149">
        <ele>634.5</ele>
        <time>2021-05-27T11:10:24.752Z</time>
      </trkpt>
      <trkpt lat="44.34903" lon="5.83987">
        <ele>636.4</ele>
        <time>2021-05-27T11:11:15.235Z</time>
      </trkpt>
      <trkpt lat="44.34843" lon="5.83916">
        <ele>636.7</ele>
        <time>2021-05-27T11:11:41.792Z</time>
      </trkpt>
      <trkpt lat="44.34855" lon="5.83871">
        <ele>640.3</ele>
        <time>2021-05-27T11:12:12.350Z</time>
      </trkpt>
      <trkpt lat="44.34868" lon="5.83799">
        <ele>646</ele>
        <time>2021-05-27T11:13:00.846Z</time>
      </trkpt>
      <trkpt lat="44.34803" lon="5.83753">
        <ele>644.3</ele>
        <time>2021-05-27T11:13:12.993Z</time>
      </trkpt>
      <trkpt lat="44.34761" lon="5.83729">
        <ele>640.9</ele>
        <time>2021-05-27T11:13:18.538Z</time>
      </trkpt>
      <trkpt lat="44.34737" lon="5.83628">
        <ele>638</ele>
        <time>2021-05-27T11:13:29.415Z</time>
      </trkpt>
      <trkpt lat="44.3476" lon="5.8356">
        <ele>637.1</ele>
        <time>2021-05-27T11:13:39.107Z</time>
      </trkpt>
      <trkpt lat="44.34789" lon="5.83475">
        <ele>636</ele>
        <time>2021-05-27T11:13:51.300Z</time>
      </trkpt>
      <trkpt lat="44.34816" lon="5.83429">
        <ele>637.2</ele>
        <time>2021-05-27T11:14:10.008Z</time>
      </trkpt>
      <trkpt lat="44.34791" lon="5.83421">
        <ele>637.4</ele>
        <time>2021-05-27T11:14:19.014Z</time>
      </trkpt>
      <trkpt lat="44.34729" lon="5.83441">
        <ele>635.8</ele>
        <time>2021-05-27T11:14:29.411Z</time>
      </trkpt>
      <trkpt lat="44.34725" lon="5.83424">
        <ele>636.7</ele>
        <time>2021-05-27T11:14:37.828Z</time>
      </trkpt>
      <trkpt lat="44.34731" lon="5.83364">
        <ele>639.8</ele>
        <time>2021-05-27T11:15:06.592Z</time>
      </trkpt>
      <trkpt lat="44.34742" lon="5.83262">
        <ele>642.7</ele>
        <time>2021-05-27T11:15:44.181Z</time>
      </trkpt>
      <trkpt lat="44.34723" lon="5.83203">
        <ele>644.4</ele>
        <time>2021-05-27T11:16:06.922Z</time>
      </trkpt>
      <trkpt lat="44.3472" lon="5.83194">
        <ele>644.7</ele>
        <time>2021-05-27T11:16:10.699Z</time>
      </trkpt>
      <trkpt lat="44.34668" lon="5.83187">
        <ele>644.3</ele>
        <time>2021-05-27T11:16:21.282Z</time>
      </trkpt>
      <trkpt lat="44.3458" lon="5.83223">
        <ele>641.9</ele>
        <time>2021-05-27T11:16:36.095Z</time>
      </trkpt>
      <trkpt lat="44.34528" lon="5.8324">
        <ele>640.6</ele>
        <time>2021-05-27T11:16:44.898Z</time>
      </trkpt>
      <trkpt lat="44.34506" lon="5.83215">
        <ele>642.9</ele>
        <time>2021-05-27T11:17:05.203Z</time>
      </trkpt>
      <trkpt lat="44.34498" lon="5.83174">
        <ele>646.1</ele>
        <time>2021-05-27T11:17:32.375Z</time>
      </trkpt>
      <trkpt lat="44.34531" lon="5.83096">
        <ele>651</ele>
        <time>2021-05-27T11:18:16.776Z</time>
      </trkpt>
      <trkpt lat="44.34533" lon="5.83093">
        <ele>651.3</ele>
        <time>2021-05-27T11:18:19.320Z</time>
      </trkpt>
      <trkpt lat="44.34558" lon="5.83059">
        <ele>655.4</ele>
        <time>2021-05-27T11:18:54.999Z</time>
      </trkpt>
      <trkpt lat="44.34613" lon="5.83001">
        <ele>663.6</ele>
        <time>2021-05-27T11:20:06.714Z</time>
      </trkpt>
      <trkpt lat="44.34658" lon="5.82947">
        <ele>668.8</ele>
        <time>2021-05-27T11:20:51.611Z</time>
      </trkpt>
      <trkpt lat="44.34694" lon="5.82897">
        <ele>673.3</ele>
        <time>2021-05-27T11:21:30.364Z</time>
      </trkpt>
      <trkpt lat="44.34699" lon="5.82893">
        <ele>673.6</ele>
        <time>2021-05-27T11:21:33.694Z</time>
      </trkpt>
      <trkpt lat="44.34736" lon="5.82847">
        <ele>677.3</ele>
        <time>2021-05-27T11:22:07.381Z</time>
      </trkpt>
      <trkpt lat="44.34808" lon="5.82759">
        <ele>682.9</ele>
        <time>2021-05-27T11:23:05.142Z</time>
      </trkpt>
      <trkpt lat="44.34846" lon="5.82698">
        <ele>684.3</ele>
        <time>2021-05-27T11:23:29.378Z</time>
      </trkpt>
      <trkpt lat="44.34883" lon="5.82657">
        <ele>687.9</ele>
        <time>2021-05-27T11:24:01.887Z</time>
      </trkpt>
      <trkpt lat="44.34909" lon="5.82629">
        <ele>691.5</ele>
        <time>2021-05-27T11:24:32.619Z</time>
      </trkpt>
      <trkpt lat="44.34932" lon="5.82604">
        <ele>694.5</ele>
        <time>2021-05-27T11:24:58.060Z</time>
      </trkpt>
      <trkpt lat="44.34952" lon="5.82589">
        <ele>697.6</ele>
        <time>2021-05-27T11:25:26.603Z</time>
      </trkpt>
      <trkpt lat="44.34984" lon="5.82561">
        <ele>701.4</ele>
        <time>2021-05-27T11:25:58.821Z</time>
      </trkpt>
      <trkpt lat="44.35031" lon="5.82522">
        <ele>705.7</ele>
        <time>2021-05-27T11:26:37.191Z</time>
      </trkpt>
      <trkpt lat="44.35059" lon="5.82505">
        <ele>709.5</ele>
        <time>2021-05-27T11:27:11.187Z</time>
      </trkpt>
      <trkpt lat="44.35091" lon="5.82487">
        <ele>713</ele>
        <time>2021-05-27T11:27:40.861Z</time>
      </trkpt>
      <trkpt lat="44.35126" lon="5.8247">
        <ele>717.3</ele>
        <time>2021-05-27T11:28:18.105Z</time>
      </trkpt>
      <trkpt lat="44.35187" lon="5.82432">
        <ele>723.2</ele>
        <time>2021-05-27T11:29:08.958Z</time>
      </trkpt>
      <trkpt lat="44.35255" lon="5.82399">
        <ele>728.6</ele>
        <time>2021-05-27T11:29:58.044Z</time>
      </trkpt>
      <trkpt lat="44.35259" lon="5.82369">
        <ele>725.5</ele>
        <time>2021-05-27T11:30:00.711Z</time>
      </trkpt>
      <trkpt lat="44.35312" lon="5.82302">
        <ele>726.8</ele>
        <time>2021-05-27T11:30:28.667Z</time>
      </trkpt>
      <trkpt lat="44.35351" lon="5.82275">
        <ele>730</ele>
        <time>2021-05-27T11:30:58.001Z</time>
      </trkpt>
      <trkpt lat="44.35472" lon="5.82136">
        <ele>727.4</ele>
        <time>2021-05-27T11:31:26.256Z</time>
      </trkpt>
      <trkpt lat="44.35571" lon="5.82089">
        <ele>726.2</ele>
        <time>2021-05-27T11:31:46.381Z</time>
      </trkpt>
      <trkpt lat="44.35581" lon="5.82068">
        <ele>724.5</ele>
        <time>2021-05-27T11:31:48.586Z</time>
      </trkpt>
      <trkpt lat="44.35611" lon="5.82011">
        <ele>723.8</ele>
        <time>2021-05-27T11:31:58.038Z</time>
      </trkpt>
      <trkpt lat="44.35623" lon="5.81929">
        <ele>719.7</ele>
        <time>2021-05-27T11:32:05.353Z</time>
      </trkpt>
      <trkpt lat="44.35636" lon="5.81887">
        <ele>718.1</ele>
        <time>2021-05-27T11:32:09.587Z</time>
      </trkpt>
      <trkpt lat="44.35651" lon="5.81841">
        <ele>716.5</ele>
        <time>2021-05-27T11:32:14.463Z</time>
      </trkpt>
      <trkpt lat="44.35632" lon="5.81798">
        <ele>712.7</ele>
        <time>2021-05-27T11:32:18.881Z</time>
      </trkpt>
      <trkpt lat="44.35617" lon="5.81779">
        <ele>710.9</ele>
        <time>2021-05-27T11:32:21.354Z</time>
      </trkpt>
      <trkpt lat="44.3558" lon="5.81737">
        <ele>707.7</ele>
        <time>2021-05-27T11:32:27.179Z</time>
      </trkpt>
      <trkpt lat="44.35563" lon="5.81721">
        <ele>707.1</ele>
        <time>2021-05-27T11:32:30.380Z</time>
      </trkpt>
      <trkpt lat="44.35526" lon="5.81683">
        <ele>706.3</ele>
        <time>2021-05-27T11:32:38.581Z</time>
      </trkpt>
      <trkpt lat="44.35436" lon="5.81556">
        <ele>702.6</ele>
        <time>2021-05-27T11:32:58.630Z</time>
      </trkpt>
      <trkpt lat="44.35389" lon="5.8149">
        <ele>697.5</ele>
        <time>2021-05-27T11:33:06.771Z</time>
      </trkpt>
      <trkpt lat="44.35395" lon="5.81442">
        <ele>694</ele>
        <time>2021-05-27T11:33:11.030Z</time>
      </trkpt>
      <trkpt lat="44.35417" lon="5.8144">
        <ele>695</ele>
        <time>2021-05-27T11:33:23.229Z</time>
      </trkpt>
      <trkpt lat="44.35489" lon="5.81485">
        <ele>698.7</ele>
        <time>2021-05-27T11:34:07.302Z</time>
      </trkpt>
      <trkpt lat="44.35544" lon="5.81511">
        <ele>701.4</ele>
        <time>2021-05-27T11:34:39.663Z</time>
      </trkpt>
      <trkpt lat="44.35563" lon="5.81537">
        <ele>702.2</ele>
        <time>2021-05-27T11:34:51.629Z</time>
      </trkpt>
      <trkpt lat="44.35587" lon="5.81573">
        <ele>702.4</ele>
        <time>2021-05-27T11:35:03.735Z</time>
      </trkpt>
      <trkpt lat="44.35648" lon="5.81577">
        <ele>707</ele>
        <time>2021-05-27T11:35:45.480Z</time>
      </trkpt>
      <trkpt lat="44.35721" lon="5.8156">
        <ele>712.6</ele>
        <time>2021-05-27T11:36:36.206Z</time>
      </trkpt>
      <trkpt lat="44.35751" lon="5.8154">
        <ele>716.2</ele>
        <time>2021-05-27T11:37:06.874Z</time>
      </trkpt>
      <trkpt lat="44.35781" lon="5.81506">
        <ele>720.6</ele>
        <time>2021-05-27T11:37:44.768Z</time>
      </trkpt>
      <trkpt lat="44.35782" lon="5.81466">
        <ele>724.1</ele>
        <time>2021-05-27T11:38:15.772Z</time>
      </trkpt>
      <trkpt lat="44.35818" lon="5.81437">
        <ele>728.8</ele>
        <time>2021-05-27T11:38:56.169Z</time>
      </trkpt>
      <trkpt lat="44.3583" lon="5.81366">
        <ele>738.2</ele>
        <time>2021-05-27T11:40:01.774Z</time>
      </trkpt>
      <trkpt lat="44.35817" lon="5.81309">
        <ele>743.6</ele>
        <time>2021-05-27T11:40:50.505Z</time>
      </trkpt>
      <trkpt lat="44.35805" lon="5.81261">
        <ele>748</ele>
        <time>2021-05-27T11:41:29.277Z</time>
      </trkpt>
      <trkpt lat="44.35824" lon="5.81209">
        <ele>754.8</ele>
        <time>2021-05-27T11:42:21.789Z</time>
      </trkpt>
      <trkpt lat="44.35865" lon="5.81103">
        <ele>756.6</ele>
        <time>2021-05-27T11:42:56.534Z</time>
      </trkpt>
      <trkpt lat="44.359" lon="5.81036">
        <ele>761.6</ele>
        <time>2021-05-27T11:43:40.158Z</time>
      </trkpt>
      <trkpt lat="44.35905" lon="5.80995">
        <ele>766.2</ele>
        <time>2021-05-27T11:44:17.558Z</time>
      </trkpt>
      <trkpt lat="44.35926" lon="5.80943">
        <ele>771.2</ele>
        <time>2021-05-27T11:45:01.003Z</time>
      </trkpt>
      <trkpt lat="44.35942" lon="5.80906">
        <ele>771.5</ele>
        <time>2021-05-27T11:45:12.068Z</time>
      </trkpt>
      <trkpt lat="44.35964" lon="5.80819">
        <ele>774.9</ele>
        <time>2021-05-27T11:45:50.067Z</time>
      </trkpt>
      <trkpt lat="44.35975" lon="5.80781">
        <ele>779</ele>
        <time>2021-05-27T11:46:26.932Z</time>
      </trkpt>
      <trkpt lat="44.35988" lon="5.80737">
        <ele>784.4</ele>
        <time>2021-05-27T11:47:09.742Z</time>
      </trkpt>
      <trkpt lat="44.36004" lon="5.80675">
        <ele>789.1</ele>
        <time>2021-05-27T11:47:49.599Z</time>
      </trkpt>
      <trkpt lat="44.36007" lon="5.80634">
        <ele>792.1</ele>
        <time>2021-05-27T11:48:15.034Z</time>
      </trkpt>
      <trkpt lat="44.36028" lon="5.806">
        <ele>795.3</ele>
        <time>2021-05-27T11:48:42.171Z</time>
      </trkpt>
      <trkpt lat="44.36041" lon="5.80575">
        <ele>797.6</ele>
        <time>2021-05-27T11:49:01.685Z</time>
      </trkpt>
      <trkpt lat="44.36055" lon="5.80548">
        <ele>797.5</ele>
        <time>2021-05-27T11:49:08.991Z</time>
      </trkpt>
      <trkpt lat="44.36064" lon="5.80514">
        <ele>797.5</ele>
        <time>2021-05-27T11:49:17.443Z</time>
      </trkpt>
      <trkpt lat="44.36019" lon="5.80507">
        <ele>791.3</ele>
        <time>2021-05-27T11:49:22.977Z</time>
      </trkpt>
      <trkpt lat="44.35986" lon="5.80494">
        <ele>785.2</ele>
        <time>2021-05-27T11:49:27.168Z</time>
      </trkpt>
      <trkpt lat="44.35969" lon="5.80506">
        <ele>785</ele>
        <time>2021-05-27T11:49:30.880Z</time>
      </trkpt>
      <trkpt lat="44.3592" lon="5.80539">
        <ele>784.4</ele>
        <time>2021-05-27T11:49:41.410Z</time>
      </trkpt>
      <trkpt lat="44.35883" lon="5.80568">
        <ele>785.4</ele>
        <time>2021-05-27T11:49:59.050Z</time>
      </trkpt>
      <trkpt lat="44.35835" lon="5.80612">
        <ele>783.4</ele>
        <time>2021-05-27T11:50:07.518Z</time>
      </trkpt>
      <trkpt lat="44.35799" lon="5.80645">
        <ele>783.4</ele>
        <time>2021-05-27T11:50:21.553Z</time>
      </trkpt>
      <trkpt lat="44.35734" lon="5.80674">
        <ele>782.5</ele>
        <time>2021-05-27T11:50:34.400Z</time>
      </trkpt>
      <trkpt lat="44.35685" lon="5.80658">
        <ele>780.4</ele>
        <time>2021-05-27T11:50:41.347Z</time>
      </trkpt>
      <trkpt lat="44.35628" lon="5.80663">
        <ele>777.2</ele>
        <time>2021-05-27T11:50:48.302Z</time>
      </trkpt>
      <trkpt lat="44.35573" lon="5.80687">
        <ele>773.9</ele>
        <time>2021-05-27T11:50:55.248Z</time>
      </trkpt>
      <trkpt lat="44.35507" lon="5.80687">
        <ele>769.5</ele>
        <time>2021-05-27T11:51:02.638Z</time>
      </trkpt>
      <trkpt lat="44.35469" lon="5.80639">
        <ele>768.7</ele>
        <time>2021-05-27T11:51:11.990Z</time>
      </trkpt>
      <trkpt lat="44.35429" lon="5.80576">
        <ele>771.7</ele>
        <time>2021-05-27T11:51:46.292Z</time>
      </trkpt>
      <trkpt lat="44.35413" lon="5.80547">
        <ele>770.3</ele>
        <time>2021-05-27T11:51:49.551Z</time>
      </trkpt>
      <trkpt lat="44.35365" lon="5.80556">
        <ele>767.6</ele>
        <time>2021-05-27T11:51:55.463Z</time>
      </trkpt>
      <trkpt lat="44.35341" lon="5.80571">
        <ele>768.3</ele>
        <time>2021-05-27T11:52:06.800Z</time>
      </trkpt>
      <trkpt lat="44.35314" lon="5.80587">
        <ele>771.6</ele>
        <time>2021-05-27T11:52:35.125Z</time>
      </trkpt>
      <trkpt lat="44.35289" lon="5.80592">
        <ele>773.7</ele>
        <time>2021-05-27T11:52:53.520Z</time>
      </trkpt>
      <trkpt lat="44.35263" lon="5.80583">
        <ele>776.7</ele>
        <time>2021-05-27T11:53:19.241Z</time>
      </trkpt>
      <trkpt lat="44.35187" lon="5.80608">
        <ele>777.8</ele>
        <time>2021-05-27T11:53:48.471Z</time>
      </trkpt>
      <trkpt lat="44.35124" lon="5.80621">
        <ele>770.9</ele>
        <time>2021-05-27T11:53:56.255Z</time>
      </trkpt>
      <trkpt lat="44.35098" lon="5.80635">
        <ele>766.8</ele>
        <time>2021-05-27T11:53:59.660Z</time>
      </trkpt>
      <trkpt lat="44.35055" lon="5.80647">
        <ele>764.7</ele>
        <time>2021-05-27T11:54:05.384Z</time>
      </trkpt>
      <trkpt lat="44.35021" lon="5.80618">
        <ele>769.2</ele>
        <time>2021-05-27T11:54:44.050Z</time>
      </trkpt>
      <trkpt lat="44.34959" lon="5.80628">
        <ele>774.8</ele>
        <time>2021-05-27T11:55:32.156Z</time>
      </trkpt>
      <trkpt lat="44.34893" lon="5.80694">
        <ele>773</ele>
        <time>2021-05-27T11:55:45.862Z</time>
      </trkpt>
      <trkpt lat="44.34882" lon="5.80731">
        <ele>769.1</ele>
        <time>2021-05-27T11:55:49.365Z</time>
      </trkpt>
      <trkpt lat="44.3487" lon="5.80753">
        <ele>769.2</ele>
        <time>2021-05-27T11:55:56.130Z</time>
      </trkpt>
      <trkpt lat="44.34827" lon="5.80807">
        <ele>773.8</ele>
        <time>2021-05-27T11:56:37.007Z</time>
      </trkpt>
      <trkpt lat="44.34813" lon="5.80823">
        <ele>770.6</ele>
        <time>2021-05-27T11:56:39.217Z</time>
      </trkpt>
      <trkpt lat="44.34791" lon="5.80872">
        <ele>768</ele>
        <time>2021-05-27T11:56:43.988Z</time>
      </trkpt>
      <trkpt lat="44.3476" lon="5.80878">
        <ele>769</ele>
        <time>2021-05-27T11:56:58.416Z</time>
      </trkpt>
      <trkpt lat="44.34723" lon="5.80922">
        <ele>763.8</ele>
        <time>2021-05-27T11:57:04.352Z</time>
      </trkpt>
      <trkpt lat="44.34718" lon="5.80962">
        <ele>759.2</ele>
        <time>2021-05-27T11:57:07.902Z</time>
      </trkpt>
      <trkpt lat="44.34706" lon="5.80995">
        <ele>754.4</ele>
        <time>2021-05-27T11:57:11.137Z</time>
      </trkpt>
      <trkpt lat="44.34686" lon="5.81029">
        <ele>744.4</ele>
        <time>2021-05-27T11:57:14.986Z</time>
      </trkpt>
      <trkpt lat="44.34654" lon="5.81059">
        <ele>736.2</ele>
        <time>2021-05-27T11:57:19.695Z</time>
      </trkpt>
      <trkpt lat="44.34611" lon="5.81063">
        <ele>733</ele>
        <time>2021-05-27T11:57:24.962Z</time>
      </trkpt>
      <trkpt lat="44.34531" lon="5.81098">
        <ele>728</ele>
        <time>2021-05-27T11:57:34.875Z</time>
      </trkpt>
      <trkpt lat="44.34489" lon="5.8111">
        <ele>725.8</ele>
        <time>2021-05-27T11:57:40.307Z</time>
      </trkpt>
      <trkpt lat="44.34463" lon="5.81107">
        <ele>721.4</ele>
        <time>2021-05-27T11:57:43.496Z</time>
      </trkpt>
      <trkpt lat="44.34399" lon="5.81124">
        <ele>712.8</ele>
        <time>2021-05-27T11:57:51.458Z</time>
      </trkpt>
      <trkpt lat="44.34373" lon="5.81135">
        <ele>708.5</ele>
        <time>2021-05-27T11:57:54.779Z</time>
      </trkpt>
      <trkpt lat="44.34349" lon="5.81153">
        <ele>704.8</ele>
        <time>2021-05-27T11:57:58.107Z</time>
      </trkpt>
      <trkpt lat="44.34319" lon="5.81141">
        <ele>698.7</ele>
        <time>2021-05-27T11:58:01.921Z</time>
      </trkpt>
      <trkpt lat="44.34293" lon="5.81136">
        <ele>695.2</ele>
        <time>2021-05-27T11:58:05.129Z</time>
      </trkpt>
      <trkpt lat="44.34276" lon="5.81183">
        <ele>693.3</ele>
        <time>2021-05-27T11:58:09.938Z</time>
      </trkpt>
      <trkpt lat="44.34267" lon="5.81215">
        <ele>690.1</ele>
        <time>2021-05-27T11:58:12.944Z</time>
      </trkpt>
      <trkpt lat="44.34236" lon="5.8119">
        <ele>688.7</ele>
        <time>2021-05-27T11:58:18.008Z</time>
      </trkpt>
      <trkpt lat="44.34213" lon="5.81079">
        <ele>683.8</ele>
        <time>2021-05-27T11:58:27.811Z</time>
      </trkpt>
      <trkpt lat="44.34228" lon="5.81013">
        <ele>682.9</ele>
        <time>2021-05-27T11:58:36.580Z</time>
      </trkpt>
      <trkpt lat="44.34244" lon="5.80992">
        <ele>684.8</ele>
        <time>2021-05-27T11:58:53.037Z</time>
      </trkpt>
      <trkpt lat="44.34211" lon="5.80946">
        <ele>683.3</ele>
        <time>2021-05-27T11:59:00.100Z</time>
      </trkpt>
      <trkpt lat="44.34183" lon="5.80938">
        <ele>680.1</ele>
        <time>2021-05-27T11:59:03.593Z</time>
      </trkpt>
      <trkpt lat="44.34153" lon="5.80886">
        <ele>676.3</ele>
        <time>2021-05-27T11:59:09.433Z</time>
      </trkpt>
      <trkpt lat="44.34166" lon="5.80842">
        <ele>677.1</ele>
        <time>2021-05-27T11:59:23.580Z</time>
      </trkpt>
      <trkpt lat="44.34196" lon="5.80825">
        <ele>681.2</ele>
        <time>2021-05-27T12:00:00.661Z</time>
      </trkpt>
      <trkpt lat="44.34204" lon="5.80803">
        <ele>682.9</ele>
        <time>2021-05-27T12:00:15.109Z</time>
      </trkpt>
      <trkpt lat="44.34116" lon="5.80803">
        <ele>672.5</ele>
        <time>2021-05-27T12:00:25.865Z</time>
      </trkpt>
      <trkpt lat="44.34065" lon="5.8079">
        <ele>667.8</ele>
        <time>2021-05-27T12:00:32.202Z</time>
      </trkpt>
      <trkpt lat="44.33989" lon="5.80742">
        <ele>663.8</ele>
        <time>2021-05-27T12:00:43.082Z</time>
      </trkpt>
      <trkpt lat="44.33871" lon="5.80693">
        <ele>661.3</ele>
        <time>2021-05-27T12:01:04.331Z</time>
      </trkpt>
      <trkpt lat="44.33817" lon="5.80686">
        <ele>660.2</ele>
        <time>2021-05-27T12:01:13.696Z</time>
      </trkpt>
      <trkpt lat="44.33665" lon="5.80663">
        <ele>655.2</ele>
        <time>2021-05-27T12:01:36.750Z</time>
      </trkpt>
      <trkpt lat="44.33605" lon="5.80655">
        <ele>656.1</ele>
        <time>2021-05-27T12:01:59.517Z</time>
      </trkpt>
      <trkpt lat="44.33515" lon="5.80642">
        <ele>656.4</ele>
        <time>2021-05-27T12:02:29.944Z</time>
      </trkpt>
      <trkpt lat="44.33404" lon="5.80613">
        <ele>658.3</ele>
        <time>2021-05-27T12:03:13.473Z</time>
      </trkpt>
      <trkpt lat="44.33397" lon="5.80548">
        <ele>660.6</ele>
        <time>2021-05-27T12:03:40.092Z</time>
      </trkpt>
      <trkpt lat="44.33377" lon="5.8047">
        <ele>663.8</ele>
        <time>2021-05-27T12:04:14.791Z</time>
      </trkpt>
      <trkpt lat="44.33342" lon="5.80418">
        <ele>666.1</ele>
        <time>2021-05-27T12:04:42.993Z</time>
      </trkpt>
      <trkpt lat="44.33256" lon="5.80272">
        <ele>669.6</ele>
        <time>2021-05-27T12:05:40.806Z</time>
      </trkpt>
      <trkpt lat="44.33269" lon="5.80241">
        <ele>672.6</ele>
        <time>2021-05-27T12:06:06.842Z</time>
      </trkpt>
      <trkpt lat="44.33287" lon="5.8021">
        <ele>676.1</ele>
        <time>2021-05-27T12:06:37.879Z</time>
      </trkpt>
      <trkpt lat="44.33306" lon="5.80183">
        <ele>679.7</ele>
        <time>2021-05-27T12:07:11.682Z</time>
      </trkpt>
      <trkpt lat="44.33316" lon="5.80166">
        <ele>681.6</ele>
        <time>2021-05-27T12:07:28.402Z</time>
      </trkpt>
      <trkpt lat="44.33375" lon="5.80155">
        <ele>686.1</ele>
        <time>2021-05-27T12:08:09.179Z</time>
      </trkpt>
      <trkpt lat="44.33412" lon="5.80196">
        <ele>688.6</ele>
        <time>2021-05-27T12:08:36.628Z</time>
      </trkpt>
      <trkpt lat="44.33449" lon="5.80163">
        <ele>690.3</ele>
        <time>2021-05-27T12:08:58.808Z</time>
      </trkpt>
      <trkpt lat="44.33463" lon="5.80043">
        <ele>689.1</ele>
        <time>2021-05-27T12:09:15.058Z</time>
      </trkpt>
      <trkpt lat="44.33468" lon="5.7999">
        <ele>689.6</ele>
        <time>2021-05-27T12:09:29.223Z</time>
      </trkpt>
      <trkpt lat="44.33496" lon="5.79865">
        <ele>695.6</ele>
        <time>2021-05-27T12:10:28.053Z</time>
      </trkpt>
      <trkpt lat="44.33545" lon="5.79857">
        <ele>701.3</ele>
        <time>2021-05-27T12:11:17.350Z</time>
      </trkpt>
      <trkpt lat="44.33552" lon="5.79839">
        <ele>703</ele>
        <time>2021-05-27T12:11:32.073Z</time>
      </trkpt>
      <trkpt lat="44.33548" lon="5.7978">
        <ele>706.4</ele>
        <time>2021-05-27T12:12:02.205Z</time>
      </trkpt>
      <trkpt lat="44.33539" lon="5.79728">
        <ele>709.1</ele>
        <time>2021-05-27T12:12:27.420Z</time>
      </trkpt>
      <trkpt lat="44.3354" lon="5.7968">
        <ele>713.9</ele>
        <time>2021-05-27T12:13:10.618Z</time>
      </trkpt>
      <trkpt lat="44.33533" lon="5.79653">
        <ele>713.7</ele>
        <time>2021-05-27T12:13:14.664Z</time>
      </trkpt>
      <trkpt lat="44.33542" lon="5.79619">
        <ele>716.4</ele>
        <time>2021-05-27T12:13:37.573Z</time>
      </trkpt>
      <trkpt lat="44.33512" lon="5.7955">
        <ele>710.4</ele>
        <time>2021-05-27T12:13:44.632Z</time>
      </trkpt>
      <trkpt lat="44.33512" lon="5.79547">
        <ele>710.5</ele>
        <time>2021-05-27T12:13:45.829Z</time>
      </trkpt>
      <trkpt lat="44.33519" lon="5.79521">
        <ele>713.9</ele>
        <time>2021-05-27T12:14:10.820Z</time>
      </trkpt>
      <trkpt lat="44.33519" lon="5.79519">
        <ele>714</ele>
        <time>2021-05-27T12:14:11.758Z</time>
      </trkpt>
      <trkpt lat="44.33508" lon="5.79492">
        <ele>710.6</ele>
        <time>2021-05-27T12:14:14.475Z</time>
      </trkpt>
      <trkpt lat="44.33511" lon="5.79442">
        <ele>710.4</ele>
        <time>2021-05-27T12:14:25.256Z</time>
      </trkpt>
      <trkpt lat="44.33499" lon="5.79411">
        <ele>704.1</ele>
        <time>2021-05-27T12:14:28.338Z</time>
      </trkpt>
      <trkpt lat="44.33498" lon="5.794">
        <ele>702.8</ele>
        <time>2021-05-27T12:14:29.307Z</time>
      </trkpt>
      <trkpt lat="44.33491" lon="5.7939">
        <ele>698.8</ele>
        <time>2021-05-27T12:14:30.531Z</time>
      </trkpt>
      <trkpt lat="44.33484" lon="5.79386">
        <ele>695.3</ele>
        <time>2021-05-27T12:14:31.455Z</time>
      </trkpt>
      <trkpt lat="44.33475" lon="5.79374">
        <ele>690.4</ele>
        <time>2021-05-27T12:14:32.975Z</time>
      </trkpt>
      <trkpt lat="44.33467" lon="5.79368">
        <ele>686.4</ele>
        <time>2021-05-27T12:14:34.085Z</time>
      </trkpt>
      <trkpt lat="44.33458" lon="5.79364">
        <ele>682.1</ele>
        <time>2021-05-27T12:14:35.239Z</time>
      </trkpt>
      <trkpt lat="44.3345" lon="5.79358">
        <ele>678.3</ele>
        <time>2021-05-27T12:14:36.349Z</time>
      </trkpt>
      <trkpt lat="44.33435" lon="5.79344">
        <ele>671.2</ele>
        <time>2021-05-27T12:14:38.553Z</time>
      </trkpt>
      <trkpt lat="44.33432" lon="5.79341">
        <ele>669.8</ele>
        <time>2021-05-27T12:14:39.004Z</time>
      </trkpt>
      <trkpt lat="44.33424" lon="5.79319">
        <ele>664.4</ele>
        <time>2021-05-27T12:14:41.162Z</time>
      </trkpt>
      <trkpt lat="44.33418" lon="5.79306">
        <ele>660</ele>
        <time>2021-05-27T12:14:42.514Z</time>
      </trkpt>
      <trkpt lat="44.3341" lon="5.79298">
        <ele>655.9</ele>
        <time>2021-05-27T12:14:43.716Z</time>
      </trkpt>
      <trkpt lat="44.33393" lon="5.79299">
        <ele>649.8</ele>
        <time>2021-05-27T12:14:45.796Z</time>
      </trkpt>
      <trkpt lat="44.33385" lon="5.79296">
        <ele>646.6</ele>
        <time>2021-05-27T12:14:46.809Z</time>
      </trkpt>
      <trkpt lat="44.3338" lon="5.79264">
        <ele>641.2</ele>
        <time>2021-05-27T12:14:49.672Z</time>
      </trkpt>
      <trkpt lat="44.33379" lon="5.79211">
        <ele>636.9</ele>
        <time>2021-05-27T12:14:54.307Z</time>
      </trkpt>
      <trkpt lat="44.33374" lon="5.7916">
        <ele>632.1</ele>
        <time>2021-05-27T12:14:58.808Z</time>
      </trkpt>
      <trkpt lat="44.33363" lon="5.79119">
        <ele>626.6</ele>
        <time>2021-05-27T12:15:02.636Z</time>
      </trkpt>
      <trkpt lat="44.33362" lon="5.79117">
        <ele>626.3</ele>
        <time>2021-05-27T12:15:02.850Z</time>
      </trkpt>
      <trkpt lat="44.33344" lon="5.7911">
        <ele>623</ele>
        <time>2021-05-27T12:15:05.133Z</time>
      </trkpt>
      <trkpt lat="44.33327" lon="5.791">
        <ele>619.9</ele>
        <time>2021-05-27T12:15:07.388Z</time>
      </trkpt>
      <trkpt lat="44.33306" lon="5.79106">
        <ele>615.5</ele>
        <time>2021-05-27T12:15:10.007Z</time>
      </trkpt>
      <trkpt lat="44.33284" lon="5.79091">
        <ele>610.9</ele>
        <time>2021-05-27T12:15:12.999Z</time>
      </trkpt>
      <trkpt lat="44.3327" lon="5.79077">
        <ele>607.8</ele>
        <time>2021-05-27T12:15:15.103Z</time>
      </trkpt>
      <trkpt lat="44.33253" lon="5.79069">
        <ele>604.2</ele>
        <time>2021-05-27T12:15:17.295Z</time>
      </trkpt>
      <trkpt lat="44.33236" lon="5.79065">
        <ele>603.3</ele>
        <time>2021-05-27T12:15:19.463Z</time>
      </trkpt>
      <trkpt lat="44.33218" lon="5.79019">
        <ele>601.2</ele>
        <time>2021-05-27T12:15:24.033Z</time>
      </trkpt>
      <trkpt lat="44.33211" lon="5.78999">
        <ele>600.1</ele>
        <time>2021-05-27T12:15:25.979Z</time>
      </trkpt>
      <trkpt lat="44.3318" lon="5.79003">
        <ele>598.8</ele>
        <time>2021-05-27T12:15:30.277Z</time>
      </trkpt>
      <trkpt lat="44.33105" lon="5.79062">
        <ele>603.2</ele>
        <time>2021-05-27T12:16:19.709Z</time>
      </trkpt>
      <trkpt lat="44.33072" lon="5.79107">
        <ele>607.4</ele>
        <time>2021-05-27T12:16:55.681Z</time>
      </trkpt>
      <trkpt lat="44.33066" lon="5.79113">
        <ele>607.4</ele>
        <time>2021-05-27T12:16:58.087Z</time>
      </trkpt>
      <trkpt lat="44.33029" lon="5.79121">
        <ele>604</ele>
        <time>2021-05-27T12:17:02.663Z</time>
      </trkpt>
      <trkpt lat="44.32993" lon="5.79146">
        <ele>601.8</ele>
        <time>2021-05-27T12:17:07.612Z</time>
      </trkpt>
      <trkpt lat="44.32988" lon="5.79161">
        <ele>602.4</ele>
        <time>2021-05-27T12:17:14.392Z</time>
      </trkpt>
      <trkpt lat="44.32975" lon="5.79202">
        <ele>604.6</ele>
        <time>2021-05-27T12:17:35.217Z</time>
      </trkpt>
      <trkpt lat="44.3295" lon="5.79168">
        <ele>602</ele>
        <time>2021-05-27T12:17:39.480Z</time>
      </trkpt>
      <trkpt lat="44.32949" lon="5.79168">
        <ele>601.9</ele>
        <time>2021-05-27T12:17:39.603Z</time>
      </trkpt>
      <trkpt lat="44.3294" lon="5.79164">
        <ele>601.3</ele>
        <time>2021-05-27T12:17:40.686Z</time>
      </trkpt>
      <trkpt lat="44.32928" lon="5.79176">
        <ele>602.9</ele>
        <time>2021-05-27T12:17:54.318Z</time>
      </trkpt>
      <trkpt lat="44.32904" lon="5.79192">
        <ele>606.1</ele>
        <time>2021-05-27T12:18:22.441Z</time>
      </trkpt>
      <trkpt lat="44.32902" lon="5.79193">
        <ele>606.3</ele>
        <time>2021-05-27T12:18:24.145Z</time>
      </trkpt>
      <trkpt lat="44.32884" lon="5.79212">
        <ele>610</ele>
        <time>2021-05-27T12:18:52.513Z</time>
      </trkpt>
      <trkpt lat="44.3287" lon="5.79229">
        <ele>613.3</ele>
        <time>2021-05-27T12:19:15.836Z</time>
      </trkpt>
      <trkpt lat="44.32856" lon="5.79255">
        <ele>618.7</ele>
        <time>2021-05-27T12:19:45.114Z</time>
      </trkpt>
      <trkpt lat="44.3284" lon="5.79283">
        <ele>626.2</ele>
        <time>2021-05-27T12:20:17.356Z</time>
      </trkpt>
      <trkpt lat="44.32843" lon="5.79291">
        <ele>628.4</ele>
        <time>2021-05-27T12:20:25.483Z</time>
      </trkpt>
      <trkpt lat="44.32848" lon="5.79285">
        <ele>626.8</ele>
        <time>2021-05-27T12:20:26.288Z</time>
      </trkpt>
      <trkpt lat="44.32864" lon="5.79272">
        <ele>623.4</ele>
        <time>2021-05-27T12:20:28.550Z</time>
      </trkpt>
      <trkpt lat="44.32889" lon="5.79266">
        <ele>622.1</ele>
        <time>2021-05-27T12:20:31.766Z</time>
      </trkpt>
      <trkpt lat="44.329" lon="5.79278">
        <ele>625.5</ele>
        <time>2021-05-27T12:20:49.315Z</time>
      </trkpt>
      <trkpt lat="44.32905" lon="5.79287">
        <ele>628.1</ele>
        <time>2021-05-27T12:20:59.567Z</time>
      </trkpt>
      <trkpt lat="44.32906" lon="5.79305">
        <ele>633.1</ele>
        <time>2021-05-27T12:21:15.811Z</time>
      </trkpt>
      <trkpt lat="44.3291" lon="5.79316">
        <ele>636.1</ele>
        <time>2021-05-27T12:21:26.912Z</time>
      </trkpt>
      <trkpt lat="44.32919" lon="5.79331">
        <ele>639.6</ele>
        <time>2021-05-27T12:21:44.526Z</time>
      </trkpt>
      <trkpt lat="44.32933" lon="5.79354">
        <ele>639.6</ele>
        <time>2021-05-27T12:21:51.570Z</time>
      </trkpt>
      <trkpt lat="44.32935" lon="5.79375">
        <ele>642.7</ele>
        <time>2021-05-27T12:22:10.630Z</time>
      </trkpt>
      <trkpt lat="44.32935" lon="5.79404">
        <ele>647.9</ele>
        <time>2021-05-27T12:22:36.721Z</time>
      </trkpt>
      <trkpt lat="44.32937" lon="5.79414">
        <ele>649</ele>
        <time>2021-05-27T12:22:46.063Z</time>
      </trkpt>
      <trkpt lat="44.32937" lon="5.7945">
        <ele>650</ele>
        <time>2021-05-27T12:22:59.096Z</time>
      </trkpt>
      <trkpt lat="44.32931" lon="5.79476">
        <ele>652.6</ele>
        <time>2021-05-27T12:23:23.536Z</time>
      </trkpt>
      <trkpt lat="44.3295" lon="5.79544">
        <ele>648.2</ele>
        <time>2021-05-27T12:23:29.919Z</time>
      </trkpt>
      <trkpt lat="44.32957" lon="5.79603">
        <ele>649.9</ele>
        <time>2021-05-27T12:23:51.852Z</time>
      </trkpt>
      <trkpt lat="44.32963" lon="5.79663">
        <ele>655.5</ele>
        <time>2021-05-27T12:24:43.228Z</time>
      </trkpt>
      <trkpt lat="44.32978" lon="5.7972">
        <ele>663.2</ele>
        <time>2021-05-27T12:25:37.869Z</time>
      </trkpt>
      <trkpt lat="44.32984" lon="5.79758">
        <ele>669.4</ele>
        <time>2021-05-27T12:26:12.880Z</time>
      </trkpt>
      <trkpt lat="44.32999" lon="5.79807">
        <ele>674.3</ele>
        <time>2021-05-27T12:26:57.652Z</time>
      </trkpt>
      <trkpt lat="44.33008" lon="5.79826">
        <ele>675.6</ele>
        <time>2021-05-27T12:27:09.197Z</time>
      </trkpt>
      <trkpt lat="44.33007" lon="5.79839">
        <ele>675.8</ele>
        <time>2021-05-27T12:27:12.989Z</time>
      </trkpt>
      <trkpt lat="44.32985" lon="5.79851">
        <ele>672.3</ele>
        <time>2021-05-27T12:27:15.876Z</time>
      </trkpt>
      <trkpt lat="44.32965" lon="5.79855">
        <ele>668.2</ele>
        <time>2021-05-27T12:27:18.345Z</time>
      </trkpt>
      <trkpt lat="44.32935" lon="5.79861">
        <ele>662.2</ele>
        <time>2021-05-27T12:27:22.049Z</time>
      </trkpt>
      <trkpt lat="44.32917" lon="5.79876">
        <ele>658</ele>
        <time>2021-05-27T12:27:24.610Z</time>
      </trkpt>
      <trkpt lat="44.32902" lon="5.79882">
        <ele>654.1</ele>
        <time>2021-05-27T12:27:26.517Z</time>
      </trkpt>
      <trkpt lat="44.32887" lon="5.7989">
        <ele>650</ele>
        <time>2021-05-27T12:27:28.480Z</time>
      </trkpt>
      <trkpt lat="44.32874" lon="5.79896">
        <ele>646.6</ele>
        <time>2021-05-27T12:27:30.153Z</time>
      </trkpt>
      <trkpt lat="44.32861" lon="5.79895">
        <ele>643.5</ele>
        <time>2021-05-27T12:27:31.744Z</time>
      </trkpt>
      <trkpt lat="44.32848" lon="5.79905">
        <ele>640</ele>
        <time>2021-05-27T12:27:33.558Z</time>
      </trkpt>
      <trkpt lat="44.32834" lon="5.79919">
        <ele>636</ele>
        <time>2021-05-27T12:27:35.662Z</time>
      </trkpt>
      <trkpt lat="44.32802" lon="5.79915">
        <ele>632.4</ele>
        <time>2021-05-27T12:27:39.589Z</time>
      </trkpt>
      <trkpt lat="44.32766" lon="5.79931">
        <ele>627.2</ele>
        <time>2021-05-27T12:27:44.206Z</time>
      </trkpt>
      <trkpt lat="44.32751" lon="5.79971">
        <ele>623.5</ele>
        <time>2021-05-27T12:27:48.155Z</time>
      </trkpt>
      <trkpt lat="44.32742" lon="5.80007">
        <ele>621.9</ele>
        <time>2021-05-27T12:27:51.407Z</time>
      </trkpt>
      <trkpt lat="44.3273" lon="5.80031">
        <ele>621.2</ele>
        <time>2021-05-27T12:27:54.543Z</time>
      </trkpt>
      <trkpt lat="44.32727" lon="5.80037">
        <ele>620.9</ele>
        <time>2021-05-27T12:27:55.174Z</time>
      </trkpt>
      <trkpt lat="44.32703" lon="5.80059">
        <ele>618.2</ele>
        <time>2021-05-27T12:27:58.682Z</time>
      </trkpt>
      <trkpt lat="44.32685" lon="5.80076">
        <ele>615</ele>
        <time>2021-05-27T12:28:01.337Z</time>
      </trkpt>
      <trkpt lat="44.32676" lon="5.80087">
        <ele>613.4</ele>
        <time>2021-05-27T12:28:02.799Z</time>
      </trkpt>
      <trkpt lat="44.32662" lon="5.80111">
        <ele>613.1</ele>
        <time>2021-05-27T12:28:06.951Z</time>
      </trkpt>
      <trkpt lat="44.3261" lon="5.80106">
        <ele>610.1</ele>
        <time>2021-05-27T12:28:13.221Z</time>
      </trkpt>
      <trkpt lat="44.32562" lon="5.80124">
        <ele>608.7</ele>
        <time>2021-05-27T12:28:21.078Z</time>
      </trkpt>
      <trkpt lat="44.32557" lon="5.80123">
        <ele>608.8</ele>
        <time>2021-05-27T12:28:23.090Z</time>
      </trkpt>
      <trkpt lat="44.32482" lon="5.80187">
        <ele>606.9</ele>
        <time>2021-05-27T12:28:38.029Z</time>
      </trkpt>
      <trkpt lat="44.32477" lon="5.80203">
        <ele>606.8</ele>
        <time>2021-05-27T12:28:40.548Z</time>
      </trkpt>
      <trkpt lat="44.32455" lon="5.8026">
        <ele>604.1</ele>
        <time>2021-05-27T12:28:46.088Z</time>
      </trkpt>
      <trkpt lat="44.32392" lon="5.80288">
        <ele>602.1</ele>
        <time>2021-05-27T12:28:56.312Z</time>
      </trkpt>
      <trkpt lat="44.32377" lon="5.80336">
        <ele>596.8</ele>
        <time>2021-05-27T12:29:00.893Z</time>
      </trkpt>
      <trkpt lat="44.3237" lon="5.80351">
        <ele>597.4</ele>
        <time>2021-05-27T12:29:08.049Z</time>
      </trkpt>
      <trkpt lat="44.32351" lon="5.80361">
        <ele>597</ele>
        <time>2021-05-27T12:29:11.579Z</time>
      </trkpt>
      <trkpt lat="44.32333" lon="5.80361">
        <ele>596</ele>
        <time>2021-05-27T12:29:13.780Z</time>
      </trkpt>
      <trkpt lat="44.32269" lon="5.80356">
        <ele>590.1</ele>
        <time>2021-05-27T12:29:21.614Z</time>
      </trkpt>
      <trkpt lat="44.32246" lon="5.80387">
        <ele>589.9</ele>
        <time>2021-05-27T12:29:31.121Z</time>
      </trkpt>
      <trkpt lat="44.32258" lon="5.80408">
        <ele>592.1</ele>
        <time>2021-05-27T12:29:50.090Z</time>
      </trkpt>
      <trkpt lat="44.32248" lon="5.80418">
        <ele>592.2</ele>
        <time>2021-05-27T12:29:54.422Z</time>
      </trkpt>
      <trkpt lat="44.32231" lon="5.80434">
        <ele>594.8</ele>
        <time>2021-05-27T12:30:17.963Z</time>
      </trkpt>
      <trkpt lat="44.32213" lon="5.80469">
        <ele>600.9</ele>
        <time>2021-05-27T12:30:56.748Z</time>
      </trkpt>
      <trkpt lat="44.32198" lon="5.80473">
        <ele>599.8</ele>
        <time>2021-05-27T12:30:58.614Z</time>
      </trkpt>
      <trkpt lat="44.32176" lon="5.80507">
        <ele>602.5</ele>
        <time>2021-05-27T12:31:22.338Z</time>
      </trkpt>
      <trkpt lat="44.32149" lon="5.80588">
        <ele>606.6</ele>
        <time>2021-05-27T12:32:02.508Z</time>
      </trkpt>
      <trkpt lat="44.32167" lon="5.80574">
        <ele>609.8</ele>
        <time>2021-05-27T12:32:28.416Z</time>
      </trkpt>
      <trkpt lat="44.32227" lon="5.80539">
        <ele>615.6</ele>
        <time>2021-05-27T12:33:18.300Z</time>
      </trkpt>
      <trkpt lat="44.32253" lon="5.80555">
        <ele>622.1</ele>
        <time>2021-05-27T12:33:54.030Z</time>
      </trkpt>
      <trkpt lat="44.32255" lon="5.80555">
        <ele>622.3</ele>
        <time>2021-05-27T12:33:55.725Z</time>
      </trkpt>
      <trkpt lat="44.32288" lon="5.80569">
        <ele>627.1</ele>
        <time>2021-05-27T12:34:39.099Z</time>
      </trkpt>
      <trkpt lat="44.32291" lon="5.80579">
        <ele>629.2</ele>
        <time>2021-05-27T12:34:48.856Z</time>
      </trkpt>
      <trkpt lat="44.32263" lon="5.8063">
        <ele>630.6</ele>
        <time>2021-05-27T12:35:09.651Z</time>
      </trkpt>
      <trkpt lat="44.32282" lon="5.80633">
        <ele>632.6</ele>
        <time>2021-05-27T12:35:26.625Z</time>
      </trkpt>
      <trkpt lat="44.32284" lon="5.80634">
        <ele>632.9</ele>
        <time>2021-05-27T12:35:29.296Z</time>
      </trkpt>
      <trkpt lat="44.32307" lon="5.80648">
        <ele>636.1</ele>
        <time>2021-05-27T12:35:58.378Z</time>
      </trkpt>
      <trkpt lat="44.32341" lon="5.80657">
        <ele>639.6</ele>
        <time>2021-05-27T12:36:28.052Z</time>
      </trkpt>
      <trkpt lat="44.32336" lon="5.80739">
        <ele>642.7</ele>
        <time>2021-05-27T12:37:02.214Z</time>
      </trkpt>
      <trkpt lat="44.32422" lon="5.80776">
        <ele>645.9</ele>
        <time>2021-05-27T12:37:45.729Z</time>
      </trkpt>
      <trkpt lat="44.32487" lon="5.80808">
        <ele>652.7</ele>
        <time>2021-05-27T12:38:43.419Z</time>
      </trkpt>
      <trkpt lat="44.32549" lon="5.80841">
        <ele>657.1</ele>
        <time>2021-05-27T12:39:25.775Z</time>
      </trkpt>
      <trkpt lat="44.32592" lon="5.80851">
        <ele>660.5</ele>
        <time>2021-05-27T12:39:56.212Z</time>
      </trkpt>
      <trkpt lat="44.32633" lon="5.80848">
        <ele>663.5</ele>
        <time>2021-05-27T12:40:23.789Z</time>
      </trkpt>
      <trkpt lat="44.32698" lon="5.80819">
        <ele>664.9</ele>
        <time>2021-05-27T12:40:51.186Z</time>
      </trkpt>
      <trkpt lat="44.32779" lon="5.80842">
        <ele>668.6</ele>
        <time>2021-05-27T12:41:36.749Z</time>
      </trkpt>
      <trkpt lat="44.32837" lon="5.80865">
        <ele>671.7</ele>
        <time>2021-05-27T12:42:11.445Z</time>
      </trkpt>
      <trkpt lat="44.32935" lon="5.80893">
        <ele>671</ele>
        <time>2021-05-27T12:42:40.902Z</time>
      </trkpt>
      <trkpt lat="44.32961" lon="5.80952">
        <ele>676.3</ele>
        <time>2021-05-27T12:43:25.974Z</time>
      </trkpt>
      <trkpt lat="44.32971" lon="5.80989">
        <ele>679.1</ele>
        <time>2021-05-27T12:43:49.725Z</time>
      </trkpt>
      <trkpt lat="44.32995" lon="5.81062">
        <ele>682.3</ele>
        <time>2021-05-27T12:44:23.759Z</time>
      </trkpt>
      <trkpt lat="44.33014" lon="5.81125">
        <ele>685.4</ele>
        <time>2021-05-27T12:44:54.324Z</time>
      </trkpt>
      <trkpt lat="44.33026" lon="5.81175">
        <ele>688.5</ele>
        <time>2021-05-27T12:45:21.579Z</time>
      </trkpt>
      <trkpt lat="44.33031" lon="5.81238">
        <ele>693.2</ele>
        <time>2021-05-27T12:46:01.447Z</time>
      </trkpt>
      <trkpt lat="44.33029" lon="5.8128">
        <ele>696.4</ele>
        <time>2021-05-27T12:46:28.642Z</time>
      </trkpt>
      <trkpt lat="44.33031" lon="5.81339">
        <ele>699.7</ele>
        <time>2021-05-27T12:46:58.169Z</time>
      </trkpt>
      <trkpt lat="44.33024" lon="5.81416">
        <ele>705.5</ele>
        <time>2021-05-27T12:47:47.390Z</time>
      </trkpt>
      <trkpt lat="44.33024" lon="5.81418">
        <ele>705.6</ele>
        <time>2021-05-27T12:47:48.328Z</time>
      </trkpt>
      <trkpt lat="44.3302" lon="5.81438">
        <ele>707.5</ele>
        <time>2021-05-27T12:48:05.628Z</time>
      </trkpt>
      <trkpt lat="44.33025" lon="5.81518">
        <ele>710.7</ele>
        <time>2021-05-27T12:48:39.652Z</time>
      </trkpt>
      <trkpt lat="44.33026" lon="5.81526">
        <ele>711</ele>
        <time>2021-05-27T12:48:43.000Z</time>
      </trkpt>
      <trkpt lat="44.33005" lon="5.81523">
        <ele>716.3</ele>
        <time>2021-05-27T12:49:09.549Z</time>
      </trkpt>
      <trkpt lat="44.32974" lon="5.81478">
        <ele>719.1</ele>
        <time>2021-05-27T12:49:37.333Z</time>
      </trkpt>
      <trkpt lat="44.32934" lon="5.81412">
        <ele>722.7</ele>
        <time>2021-05-27T12:50:14.611Z</time>
      </trkpt>
      <trkpt lat="44.32924" lon="5.81397">
        <ele>724.1</ele>
        <time>2021-05-27T12:50:26.520Z</time>
      </trkpt>
      <trkpt lat="44.3289" lon="5.81374">
        <ele>727.8</ele>
        <time>2021-05-27T12:50:57.923Z</time>
      </trkpt>
      <trkpt lat="44.32853" lon="5.81373">
        <ele>731.8</ele>
        <time>2021-05-27T12:51:31.988Z</time>
      </trkpt>
      <trkpt lat="44.32808" lon="5.81385">
        <ele>733.8</ele>
        <time>2021-05-27T12:51:56.880Z</time>
      </trkpt>
      <trkpt lat="44.32805" lon="5.81386">
        <ele>733.7</ele>
        <time>2021-05-27T12:51:57.346Z</time>
      </trkpt>
      <trkpt lat="44.32789" lon="5.81393">
        <ele>733.4</ele>
        <time>2021-05-27T12:52:00.324Z</time>
      </trkpt>
      <trkpt lat="44.32761" lon="5.81452">
        <ele>733.2</ele>
        <time>2021-05-27T12:52:15.897Z</time>
      </trkpt>
      <trkpt lat="44.32725" lon="5.81451">
        <ele>728.6</ele>
        <time>2021-05-27T12:52:20.298Z</time>
      </trkpt>
      <trkpt lat="44.3272" lon="5.81444">
        <ele>727.5</ele>
        <time>2021-05-27T12:52:21.163Z</time>
      </trkpt>
      <trkpt lat="44.32701" lon="5.81455">
        <ele>725.2</ele>
        <time>2021-05-27T12:52:23.677Z</time>
      </trkpt>
      <trkpt lat="44.32706" lon="5.81467">
        <ele>726.7</ele>
        <time>2021-05-27T12:52:36.171Z</time>
      </trkpt>
      <trkpt lat="44.32717" lon="5.81512">
        <ele>730.6</ele>
        <time>2021-05-27T12:53:09.819Z</time>
      </trkpt>
      <trkpt lat="44.32718" lon="5.81533">
        <ele>732</ele>
        <time>2021-05-27T12:53:21.769Z</time>
      </trkpt>
      <trkpt lat="44.3272" lon="5.81567">
        <ele>734.3</ele>
        <time>2021-05-27T12:53:41.363Z</time>
      </trkpt>
      <trkpt lat="44.32713" lon="5.81589">
        <ele>735.4</ele>
        <time>2021-05-27T12:53:52.165Z</time>
      </trkpt>
      <trkpt lat="44.32691" lon="5.81589">
        <ele>734.9</ele>
        <time>2021-05-27T12:53:55.859Z</time>
      </trkpt>
      <trkpt lat="44.32682" lon="5.81635">
        <ele>736.8</ele>
        <time>2021-05-27T12:54:16.063Z</time>
      </trkpt>
      <trkpt lat="44.32677" lon="5.81698">
        <ele>739.7</ele>
        <time>2021-05-27T12:54:44.518Z</time>
      </trkpt>
      <trkpt lat="44.32655" lon="5.81724">
        <ele>739.9</ele>
        <time>2021-05-27T12:54:54.550Z</time>
      </trkpt>
      <trkpt lat="44.32621" lon="5.81759">
        <ele>739</ele>
        <time>2021-05-27T12:55:01.755Z</time>
      </trkpt>
      <trkpt lat="44.32587" lon="5.81797">
        <ele>735.6</ele>
        <time>2021-05-27T12:55:07.075Z</time>
      </trkpt>
      <trkpt lat="44.32589" lon="5.81804">
        <ele>735.4</ele>
        <time>2021-05-27T12:55:07.854Z</time>
      </trkpt>
      <trkpt lat="44.32568" lon="5.81881">
        <ele>726.5</ele>
        <time>2021-05-27T12:55:15.059Z</time>
      </trkpt>
      <trkpt lat="44.32554" lon="5.81898">
        <ele>722.5</ele>
        <time>2021-05-27T12:55:17.326Z</time>
      </trkpt>
      <trkpt lat="44.32539" lon="5.81909">
        <ele>719</ele>
        <time>2021-05-27T12:55:19.396Z</time>
      </trkpt>
      <trkpt lat="44.32519" lon="5.81952">
        <ele>710.4</ele>
        <time>2021-05-27T12:55:23.881Z</time>
      </trkpt>
      <trkpt lat="44.32514" lon="5.81979">
        <ele>706.4</ele>
        <time>2021-05-27T12:55:26.320Z</time>
      </trkpt>
      <trkpt lat="44.32496" lon="5.81995">
        <ele>703</ele>
        <time>2021-05-27T12:55:28.927Z</time>
      </trkpt>
      <trkpt lat="44.32488" lon="5.81999">
        <ele>701.4</ele>
        <time>2021-05-27T12:55:29.965Z</time>
      </trkpt>
      <trkpt lat="44.32465" lon="5.8201">
        <ele>696.6</ele>
        <time>2021-05-27T12:55:32.937Z</time>
      </trkpt>
      <trkpt lat="44.3245" lon="5.82022">
        <ele>693.3</ele>
        <time>2021-05-27T12:55:35.049Z</time>
      </trkpt>
      <trkpt lat="44.32418" lon="5.82019">
        <ele>690</ele>
        <time>2021-05-27T12:55:38.969Z</time>
      </trkpt>
      <trkpt lat="44.32391" lon="5.8199">
        <ele>685.6</ele>
        <time>2021-05-27T12:55:43.131Z</time>
      </trkpt>
      <trkpt lat="44.32375" lon="5.81978">
        <ele>682.2</ele>
        <time>2021-05-27T12:55:45.350Z</time>
      </trkpt>
      <trkpt lat="44.32357" lon="5.81975">
        <ele>677.8</ele>
        <time>2021-05-27T12:55:47.566Z</time>
      </trkpt>
      <trkpt lat="44.32336" lon="5.81979">
        <ele>672.6</ele>
        <time>2021-05-27T12:55:50.157Z</time>
      </trkpt>
      <trkpt lat="44.3231" lon="5.82001">
        <ele>666.7</ele>
        <time>2021-05-27T12:55:53.871Z</time>
      </trkpt>
      <trkpt lat="44.32292" lon="5.8203">
        <ele>662.8</ele>
        <time>2021-05-27T12:55:57.229Z</time>
      </trkpt>
      <trkpt lat="44.32257" lon="5.82091">
        <ele>656.2</ele>
        <time>2021-05-27T12:56:04.066Z</time>
      </trkpt>
      <trkpt lat="44.32238" lon="5.82133">
        <ele>651.8</ele>
        <time>2021-05-27T12:56:08.412Z</time>
      </trkpt>
      <trkpt lat="44.32198" lon="5.82133">
        <ele>642.9</ele>
        <time>2021-05-27T12:56:13.301Z</time>
      </trkpt>
      <trkpt lat="44.32175" lon="5.82108">
        <ele>637.9</ele>
        <time>2021-05-27T12:56:16.862Z</time>
      </trkpt>
      <trkpt lat="44.32155" lon="5.82125">
        <ele>633.7</ele>
        <time>2021-05-27T12:56:19.723Z</time>
      </trkpt>
      <trkpt lat="44.3214" lon="5.8214">
        <ele>630.7</ele>
        <time>2021-05-27T12:56:21.977Z</time>
      </trkpt>
      <trkpt lat="44.32125" lon="5.82184">
        <ele>626.1</ele>
        <time>2021-05-27T12:56:26.239Z</time>
      </trkpt>
      <trkpt lat="44.32124" lon="5.82231">
        <ele>622.3</ele>
        <time>2021-05-27T12:56:30.351Z</time>
      </trkpt>
      <trkpt lat="44.3212" lon="5.82243">
        <ele>620.8</ele>
        <time>2021-05-27T12:56:31.509Z</time>
      </trkpt>
      <trkpt lat="44.32098" lon="5.82247">
        <ele>617.3</ele>
        <time>2021-05-27T12:56:34.220Z</time>
      </trkpt>
      <trkpt lat="44.32065" lon="5.82236">
        <ele>613.4</ele>
        <time>2021-05-27T12:56:38.367Z</time>
      </trkpt>
      <trkpt lat="44.32035" lon="5.82242">
        <ele>609.4</ele>
        <time>2021-05-27T12:56:42.071Z</time>
      </trkpt>
      <trkpt lat="44.32028" lon="5.82243">
        <ele>608.5</ele>
        <time>2021-05-27T12:56:42.931Z</time>
      </trkpt>
      <trkpt lat="44.3197" lon="5.82237">
        <ele>599.8</ele>
        <time>2021-05-27T12:56:50.040Z</time>
      </trkpt>
      <trkpt lat="44.31953" lon="5.82236">
        <ele>596.7</ele>
        <time>2021-05-27T12:56:52.120Z</time>
      </trkpt>
      <trkpt lat="44.31932" lon="5.82255">
        <ele>592.9</ele>
        <time>2021-05-27T12:56:55.177Z</time>
      </trkpt>
      <trkpt lat="44.3192" lon="5.8229">
        <ele>590.9</ele>
        <time>2021-05-27T12:56:58.571Z</time>
      </trkpt>
      <trkpt lat="44.31903" lon="5.82341">
        <ele>588.5</ele>
        <time>2021-05-27T12:57:03.333Z</time>
      </trkpt>
      <trkpt lat="44.31869" lon="5.82391">
        <ele>583.3</ele>
        <time>2021-05-27T12:57:09.365Z</time>
      </trkpt>
      <trkpt lat="44.31844" lon="5.82403">
        <ele>579.2</ele>
        <time>2021-05-27T12:57:12.596Z</time>
      </trkpt>
      <trkpt lat="44.31785" lon="5.82429">
        <ele>573.6</ele>
        <time>2021-05-27T12:57:20.157Z</time>
      </trkpt>
      <trkpt lat="44.3171" lon="5.82409">
        <ele>571.7</ele>
        <time>2021-05-27T12:57:32.669Z</time>
      </trkpt>
      <trkpt lat="44.316" lon="5.824">
        <ele>570.7</ele>
        <time>2021-05-27T12:57:54.566Z</time>
      </trkpt>
      <trkpt lat="44.31549" lon="5.82396">
        <ele>571</ele>
        <time>2021-05-27T12:58:12.168Z</time>
      </trkpt>
      <trkpt lat="44.31493" lon="5.82319">
        <ele>572.3</ele>
        <time>2021-05-27T12:58:42.360Z</time>
      </trkpt>
      <trkpt lat="44.31459" lon="5.82338">
        <ele>571.8</ele>
        <time>2021-05-27T12:58:49.214Z</time>
      </trkpt>
      <trkpt lat="44.31437" lon="5.82352">
        <ele>571.1</ele>
        <time>2021-05-27T12:58:53.004Z</time>
      </trkpt>
      <trkpt lat="44.31423" lon="5.82325">
        <ele>572.2</ele>
        <time>2021-05-27T12:59:06.269Z</time>
      </trkpt>
      <trkpt lat="44.31349" lon="5.82279">
        <ele>570.5</ele>
        <time>2021-05-27T12:59:20.140Z</time>
      </trkpt>
      <trkpt lat="44.31301" lon="5.82272">
        <ele>567.3</ele>
        <time>2021-05-27T12:59:25.558Z</time>
      </trkpt>
      <trkpt lat="44.31241" lon="5.82277">
        <ele>561.9</ele>
        <time>2021-05-27T12:59:32.905Z</time>
      </trkpt>
      <trkpt lat="44.31211" lon="5.8228">
        <ele>560.3</ele>
        <time>2021-05-27T12:59:36.656Z</time>
      </trkpt>
      <trkpt lat="44.31184" lon="5.82283">
        <ele>558.9</ele>
        <time>2021-05-27T12:59:40.077Z</time>
      </trkpt>
      <trkpt lat="44.31161" lon="5.82282">
        <ele>557.9</ele>
        <time>2021-05-27T12:59:43.204Z</time>
      </trkpt>
      <trkpt lat="44.31138" lon="5.8226">
        <ele>557.4</ele>
        <time>2021-05-27T12:59:48.152Z</time>
      </trkpt>
      <trkpt lat="44.3112" lon="5.82235">
        <ele>556.6</ele>
        <time>2021-05-27T12:59:52.025Z</time>
      </trkpt>
      <trkpt lat="44.31101" lon="5.8221">
        <ele>556.1</ele>
        <time>2021-05-27T12:59:56.592Z</time>
      </trkpt>
      <trkpt lat="44.31083" lon="5.82187">
        <ele>556</ele>
        <time>2021-05-27T13:00:04.075Z</time>
      </trkpt>
      <trkpt lat="44.31063" lon="5.82161">
        <ele>555.5</ele>
        <time>2021-05-27T13:00:08.903Z</time>
      </trkpt>
      <trkpt lat="44.31042" lon="5.82133">
        <ele>555</ele>
        <time>2021-05-27T13:00:14.101Z</time>
      </trkpt>
      <trkpt lat="44.31022" lon="5.82108">
        <ele>554.5</ele>
        <time>2021-05-27T13:00:18.826Z</time>
      </trkpt>
      <trkpt lat="44.31002" lon="5.82082">
        <ele>554.1</ele>
        <time>2021-05-27T13:00:23.875Z</time>
      </trkpt>
      <trkpt lat="44.30983" lon="5.82063">
        <ele>554</ele>
        <time>2021-05-27T13:00:31.025Z</time>
      </trkpt>
      <trkpt lat="44.30957" lon="5.82047">
        <ele>553.9</ele>
        <time>2021-05-27T13:00:39.814Z</time>
      </trkpt>
      <trkpt lat="44.30932" lon="5.82039">
        <ele>553.7</ele>
        <time>2021-05-27T13:00:45.000Z</time>
      </trkpt>
      <trkpt lat="44.30906" lon="5.8204">
        <ele>553.6</ele>
        <time>2021-05-27T13:00:53.009Z</time>
      </trkpt>
      <trkpt lat="44.30876" lon="5.8205">
        <ele>553.9</ele>
        <time>2021-05-27T13:01:04.049Z</time>
      </trkpt>
      <trkpt lat="44.30847" lon="5.82059">
        <ele>554.1</ele>
        <time>2021-05-27T13:01:14.372Z</time>
      </trkpt>
      <trkpt lat="44.30815" lon="5.82067">
        <ele>556.1</ele>
        <time>2021-05-27T13:01:34.420Z</time>
      </trkpt>
      <trkpt lat="44.30786" lon="5.82075">
        <ele>558.8</ele>
        <time>2021-05-27T13:01:57.535Z</time>
      </trkpt>
      <trkpt lat="44.3076" lon="5.82092">
        <ele>560.8</ele>
        <time>2021-05-27T13:02:16.323Z</time>
      </trkpt>
      <trkpt lat="44.30742" lon="5.82121">
        <ele>562.6</ele>
        <time>2021-05-27T13:02:33.760Z</time>
      </trkpt>
      <trkpt lat="44.30724" lon="5.82163">
        <ele>564.8</ele>
        <time>2021-05-27T13:02:55.562Z</time>
      </trkpt>
      <trkpt lat="44.3071" lon="5.82198">
        <ele>564.3</ele>
        <time>2021-05-27T13:03:00.688Z</time>
      </trkpt>
      <trkpt lat="44.30697" lon="5.82225">
        <ele>563.4</ele>
        <time>2021-05-27T13:03:03.999Z</time>
      </trkpt>
      <trkpt lat="44.30681" lon="5.82249">
        <ele>562.4</ele>
        <time>2021-05-27T13:03:07.214Z</time>
      </trkpt>
      <trkpt lat="44.30638" lon="5.82285">
        <ele>561.5</ele>
        <time>2021-05-27T13:03:16.112Z</time>
      </trkpt>
      <trkpt lat="44.30593" lon="5.82306">
        <ele>561.5</ele>
        <time>2021-05-27T13:03:31.582Z</time>
      </trkpt>
      <trkpt lat="44.30563" lon="5.82312">
        <ele>561.8</ele>
        <time>2021-05-27T13:03:42.449Z</time>
      </trkpt>
      <trkpt lat="44.30537" lon="5.82317">
        <ele>561.7</ele>
        <time>2021-05-27T13:03:50.535Z</time>
      </trkpt>
      <trkpt lat="44.30505" lon="5.8232">
        <ele>562</ele>
        <time>2021-05-27T13:04:01.972Z</time>
      </trkpt>
      <trkpt lat="44.30479" lon="5.82316">
        <ele>563.7</ele>
        <time>2021-05-27T13:04:18.510Z</time>
      </trkpt>
      <trkpt lat="44.30454" lon="5.82314">
        <ele>565</ele>
        <time>2021-05-27T13:04:32.969Z</time>
      </trkpt>
      <trkpt lat="44.30422" lon="5.82318">
        <ele>564.7</ele>
        <time>2021-05-27T13:04:39.331Z</time>
      </trkpt>
      <trkpt lat="44.30399" lon="5.82318">
        <ele>565.8</ele>
        <time>2021-05-27T13:04:52.260Z</time>
      </trkpt>
      <trkpt lat="44.30362" lon="5.82325">
        <ele>565.9</ele>
        <time>2021-05-27T13:05:04.741Z</time>
      </trkpt>
      <trkpt lat="44.30339" lon="5.82329">
        <ele>566</ele>
        <time>2021-05-27T13:05:12.610Z</time>
      </trkpt>
      <trkpt lat="44.30307" lon="5.82336">
        <ele>565.2</ele>
        <time>2021-05-27T13:05:17.928Z</time>
      </trkpt>
      <trkpt lat="44.3027" lon="5.82343">
        <ele>564.9</ele>
        <time>2021-05-27T13:05:25.453Z</time>
      </trkpt>
      <trkpt lat="44.30231" lon="5.82349">
        <ele>564.4</ele>
        <time>2021-05-27T13:05:32.883Z</time>
      </trkpt>
      <trkpt lat="44.30203" lon="5.82349">
        <ele>564.5</ele>
        <time>2021-05-27T13:05:42.322Z</time>
      </trkpt>
      <trkpt lat="44.3014" lon="5.82346">
        <ele>564.6</ele>
        <time>2021-05-27T13:06:03.180Z</time>
      </trkpt>
      <trkpt lat="44.30096" lon="5.82347">
        <ele>563.7</ele>
        <time>2021-05-27T13:06:10.764Z</time>
      </trkpt>
      <trkpt lat="44.30065" lon="5.82346">
        <ele>562.5</ele>
        <time>2021-05-27T13:06:15.170Z</time>
      </trkpt>
      <trkpt lat="44.30029" lon="5.82342">
        <ele>560.8</ele>
        <time>2021-05-27T13:06:19.919Z</time>
      </trkpt>
      <trkpt lat="44.30003" lon="5.82333">
        <ele>560.3</ele>
        <time>2021-05-27T13:06:24.633Z</time>
      </trkpt>
      <trkpt lat="44.29977" lon="5.82323">
        <ele>561.4</ele>
        <time>2021-05-27T13:06:38.672Z</time>
      </trkpt>
      <trkpt lat="44.29946" lon="5.82309">
        <ele>562.8</ele>
        <time>2021-05-27T13:06:56.190Z</time>
      </trkpt>
      <trkpt lat="44.29918" lon="5.82295">
        <ele>563.9</ele>
        <time>2021-05-27T13:07:10.856Z</time>
      </trkpt>
      <trkpt lat="44.29892" lon="5.8228">
        <ele>564.9</ele>
        <time>2021-05-27T13:07:24.457Z</time>
      </trkpt>
      <trkpt lat="44.29866" lon="5.82266">
        <ele>565</ele>
        <time>2021-05-27T13:07:33.852Z</time>
      </trkpt>
      <trkpt lat="44.29844" lon="5.82258">
        <ele>564</ele>
        <time>2021-05-27T13:07:36.926Z</time>
      </trkpt>
      <trkpt lat="44.29807" lon="5.8225">
        <ele>562.4</ele>
        <time>2021-05-27T13:07:42.047Z</time>
      </trkpt>
      <trkpt lat="44.29784" lon="5.82247">
        <ele>561.5</ele>
        <time>2021-05-27T13:07:45.321Z</time>
      </trkpt>
      <trkpt lat="44.29757" lon="5.82239">
        <ele>561.5</ele>
        <time>2021-05-27T13:07:54.321Z</time>
      </trkpt>
      <trkpt lat="44.29726" lon="5.82225">
        <ele>561.1</ele>
        <time>2021-05-27T13:08:00.527Z</time>
      </trkpt>
      <trkpt lat="44.297" lon="5.82207">
        <ele>561.5</ele>
        <time>2021-05-27T13:08:11.356Z</time>
      </trkpt>
      <trkpt lat="44.29677" lon="5.82184">
        <ele>563.1</ele>
        <time>2021-05-27T13:08:28.208Z</time>
      </trkpt>
      <trkpt lat="44.29652" lon="5.82157">
        <ele>565.6</ele>
        <time>2021-05-27T13:08:50.471Z</time>
      </trkpt>
      <trkpt lat="44.2963" lon="5.82137">
        <ele>568</ele>
        <time>2021-05-27T13:09:11.014Z</time>
      </trkpt>
      <trkpt lat="44.29605" lon="5.82122">
        <ele>568.9</ele>
        <time>2021-05-27T13:09:23.742Z</time>
      </trkpt>
      <trkpt lat="44.29577" lon="5.82108">
        <ele>569.7</ele>
        <time>2021-05-27T13:09:36.610Z</time>
      </trkpt>
      <trkpt lat="44.29555" lon="5.82101">
        <ele>570.1</ele>
        <time>2021-05-27T13:09:45.393Z</time>
      </trkpt>
      <trkpt lat="44.29527" lon="5.82097">
        <ele>569.2</ele>
        <time>2021-05-27T13:09:49.669Z</time>
      </trkpt>
      <trkpt lat="44.29498" lon="5.82094">
        <ele>568.2</ele>
        <time>2021-05-27T13:09:53.980Z</time>
      </trkpt>
      <trkpt lat="44.29469" lon="5.821">
        <ele>568.9</ele>
        <time>2021-05-27T13:10:06.215Z</time>
      </trkpt>
      <trkpt lat="44.29436" lon="5.82126">
        <ele>566.6</ele>
        <time>2021-05-27T13:10:10.658Z</time>
      </trkpt>
      <trkpt lat="44.29415" lon="5.82149">
        <ele>564.1</ele>
        <time>2021-05-27T13:10:13.919Z</time>
      </trkpt>
      <trkpt lat="44.29389" lon="5.82183">
        <ele>563.2</ele>
        <time>2021-05-27T13:10:19.730Z</time>
      </trkpt>
      <trkpt lat="44.29366" lon="5.82205">
        <ele>563.9</ele>
        <time>2021-05-27T13:10:31.535Z</time>
      </trkpt>
      <trkpt lat="44.29345" lon="5.82217">
        <ele>564.4</ele>
        <time>2021-05-27T13:10:40.804Z</time>
      </trkpt>
      <trkpt lat="44.29322" lon="5.82228">
        <ele>564.8</ele>
        <time>2021-05-27T13:10:50.137Z</time>
      </trkpt>
      <trkpt lat="44.29299" lon="5.82238">
        <ele>565</ele>
        <time>2021-05-27T13:10:58.638Z</time>
      </trkpt>
      <trkpt lat="44.29275" lon="5.82249">
        <ele>564.9</ele>
        <time>2021-05-27T13:11:06.403Z</time>
      </trkpt>
      <trkpt lat="44.29249" lon="5.82256">
        <ele>565.1</ele>
        <time>2021-05-27T13:11:15.679Z</time>
      </trkpt>
      <trkpt lat="44.292" lon="5.82265">
        <ele>563.6</ele>
        <time>2021-05-27T13:11:23.315Z</time>
      </trkpt>
      <trkpt lat="44.29167" lon="5.8227">
        <ele>562.4</ele>
        <time>2021-05-27T13:11:28.150Z</time>
      </trkpt>
      <trkpt lat="44.29144" lon="5.82272">
        <ele>563.3</ele>
        <time>2021-05-27T13:11:39.849Z</time>
      </trkpt>
      <trkpt lat="44.2912" lon="5.82273">
        <ele>564.4</ele>
        <time>2021-05-27T13:11:53.173Z</time>
      </trkpt>
      <trkpt lat="44.29095" lon="5.82274">
        <ele>565.6</ele>
        <time>2021-05-27T13:12:07.247Z</time>
      </trkpt>
      <trkpt lat="44.29069" lon="5.82277">
        <ele>565.6</ele>
        <time>2021-05-27T13:12:15.754Z</time>
      </trkpt>
      <trkpt lat="44.29043" lon="5.82279">
        <ele>565.2</ele>
        <time>2021-05-27T13:12:20.525Z</time>
      </trkpt>
      <trkpt lat="44.29017" lon="5.82282">
        <ele>564.7</ele>
        <time>2021-05-27T13:12:25.089Z</time>
      </trkpt>
      <trkpt lat="44.28992" lon="5.82284">
        <ele>564.7</ele>
        <time>2021-05-27T13:12:33.254Z</time>
      </trkpt>
      <trkpt lat="44.28968" lon="5.82286">
        <ele>565</ele>
        <time>2021-05-27T13:12:42.106Z</time>
      </trkpt>
      <trkpt lat="44.28945" lon="5.82287">
        <ele>565.4</ele>
        <time>2021-05-27T13:12:51.030Z</time>
      </trkpt>
      <trkpt lat="44.28922" lon="5.82286">
        <ele>566.2</ele>
        <time>2021-05-27T13:13:02.039Z</time>
      </trkpt>
      <trkpt lat="44.28892" lon="5.82274">
        <ele>566.9</ele>
        <time>2021-05-27T13:13:14.846Z</time>
      </trkpt>
      <trkpt lat="44.28868" lon="5.82256">
        <ele>567.3</ele>
        <time>2021-05-27T13:13:25.108Z</time>
      </trkpt>
      <trkpt lat="44.2884" lon="5.82229">
        <ele>568.4</ele>
        <time>2021-05-27T13:13:40.870Z</time>
      </trkpt>
      <trkpt lat="44.28818" lon="5.82209">
        <ele>569.8</ele>
        <time>2021-05-27T13:13:56.170Z</time>
      </trkpt>
      <trkpt lat="44.28781" lon="5.82184">
        <ele>570</ele>
        <time>2021-05-27T13:14:10.197Z</time>
      </trkpt>
      <trkpt lat="44.28737" lon="5.82156">
        <ele>569.5</ele>
        <time>2021-05-27T13:14:19.644Z</time>
      </trkpt>
      <trkpt lat="44.28714" lon="5.82145">
        <ele>568.7</ele>
        <time>2021-05-27T13:14:23.302Z</time>
      </trkpt>
      <trkpt lat="44.28659" lon="5.82131">
        <ele>564.1</ele>
        <time>2021-05-27T13:14:30.135Z</time>
      </trkpt>
      <trkpt lat="44.28635" lon="5.82126">
        <ele>562.6</ele>
        <time>2021-05-27T13:14:32.956Z</time>
      </trkpt>
      <trkpt lat="44.286" lon="5.82114">
        <ele>560.8</ele>
        <time>2021-05-27T13:14:37.577Z</time>
      </trkpt>
      <trkpt lat="44.28578" lon="5.82103">
        <ele>559.8</ele>
        <time>2021-05-27T13:14:40.771Z</time>
      </trkpt>
      <trkpt lat="44.28537" lon="5.82082">
        <ele>557.1</ele>
        <time>2021-05-27T13:14:45.847Z</time>
      </trkpt>
      <trkpt lat="44.28494" lon="5.82058">
        <ele>554.8</ele>
        <time>2021-05-27T13:14:51.799Z</time>
      </trkpt>
      <trkpt lat="44.2846" lon="5.82044">
        <ele>553.6</ele>
        <time>2021-05-27T13:14:57.082Z</time>
      </trkpt>
      <trkpt lat="44.28437" lon="5.82036">
        <ele>552.4</ele>
        <time>2021-05-27T13:15:00.103Z</time>
      </trkpt>
      <trkpt lat="44.28413" lon="5.82029">
        <ele>551.3</ele>
        <time>2021-05-27T13:15:03.392Z</time>
      </trkpt>
      <trkpt lat="44.28358" lon="5.82024">
        <ele>552.8</ele>
        <time>2021-05-27T13:15:27.332Z</time>
      </trkpt>
      <trkpt lat="44.2832" lon="5.82023">
        <ele>553.1</ele>
        <time>2021-05-27T13:15:40.690Z</time>
      </trkpt>
      <trkpt lat="44.28292" lon="5.82023">
        <ele>552.7</ele>
        <time>2021-05-27T13:15:45.890Z</time>
      </trkpt>
      <trkpt lat="44.28252" lon="5.82021">
        <ele>552.3</ele>
        <time>2021-05-27T13:15:53.747Z</time>
      </trkpt>
      <trkpt lat="44.28226" lon="5.82013">
        <ele>551.4</ele>
        <time>2021-05-27T13:15:57.717Z</time>
      </trkpt>
      <trkpt lat="44.28204" lon="5.82001">
        <ele>550.6</ele>
        <time>2021-05-27T13:16:01.236Z</time>
      </trkpt>
      <trkpt lat="44.28156" lon="5.81971">
        <ele>549.8</ele>
        <time>2021-05-27T13:16:10.889Z</time>
      </trkpt>
      <trkpt lat="44.28114" lon="5.81944">
        <ele>548.9</ele>
        <time>2021-05-27T13:16:18.950Z</time>
      </trkpt>
      <trkpt lat="44.28073" lon="5.81918">
        <ele>547.6</ele>
        <time>2021-05-27T13:16:26.016Z</time>
      </trkpt>
      <trkpt lat="44.28017" lon="5.81882">
        <ele>547.4</ele>
        <time>2021-05-27T13:16:45.165Z</time>
      </trkpt>
      <trkpt lat="44.27969" lon="5.81852">
        <ele>547.8</ele>
        <time>2021-05-27T13:17:03.596Z</time>
      </trkpt>
      <trkpt lat="44.27914" lon="5.81816">
        <ele>549.1</ele>
        <time>2021-05-27T13:17:28.231Z</time>
      </trkpt>
      <trkpt lat="44.27868" lon="5.81786">
        <ele>548.4</ele>
        <time>2021-05-27T13:17:37.718Z</time>
      </trkpt>
      <trkpt lat="44.27841" lon="5.81768">
        <ele>547.6</ele>
        <time>2021-05-27T13:17:42.522Z</time>
      </trkpt>
      <trkpt lat="44.27816" lon="5.81751">
        <ele>546.9</ele>
        <time>2021-05-27T13:17:47.064Z</time>
      </trkpt>
      <trkpt lat="44.27774" lon="5.81724">
        <ele>545.2</ele>
        <time>2021-05-27T13:17:53.758Z</time>
      </trkpt>
      <trkpt lat="44.2774" lon="5.81701">
        <ele>543.8</ele>
        <time>2021-05-27T13:17:59.212Z</time>
      </trkpt>
      <trkpt lat="44.27715" lon="5.81689">
        <ele>543.2</ele>
        <time>2021-05-27T13:18:03.651Z</time>
      </trkpt>
      <trkpt lat="44.27687" lon="5.81641">
        <ele>543.4</ele>
        <time>2021-05-27T13:18:18.729Z</time>
      </trkpt>
      <trkpt lat="44.27654" lon="5.816">
        <ele>543.3</ele>
        <time>2021-05-27T13:18:32.648Z</time>
      </trkpt>
      <trkpt lat="44.27633" lon="5.81575">
        <ele>543.3</ele>
        <time>2021-05-27T13:18:41.645Z</time>
      </trkpt>
      <trkpt lat="44.27606" lon="5.81542">
        <ele>543.4</ele>
        <time>2021-05-27T13:18:53.650Z</time>
      </trkpt>
      <trkpt lat="44.27566" lon="5.81492">
        <ele>543</ele>
        <time>2021-05-27T13:19:04.556Z</time>
      </trkpt>
      <trkpt lat="44.2753" lon="5.81448">
        <ele>541.6</ele>
        <time>2021-05-27T13:19:12.032Z</time>
      </trkpt>
      <trkpt lat="44.27504" lon="5.81419">
        <ele>540.3</ele>
        <time>2021-05-27T13:19:16.743Z</time>
      </trkpt>
      <trkpt lat="44.27483" lon="5.81395">
        <ele>540.6</ele>
        <time>2021-05-27T13:19:26.588Z</time>
      </trkpt>
      <trkpt lat="44.27462" lon="5.81377">
        <ele>541</ele>
        <time>2021-05-27T13:19:36.025Z</time>
      </trkpt>
      <trkpt lat="44.27438" lon="5.81361">
        <ele>541.2</ele>
        <time>2021-05-27T13:19:45.338Z</time>
      </trkpt>
      <trkpt lat="44.27407" lon="5.81343">
        <ele>541.2</ele>
        <time>2021-05-27T13:19:56.285Z</time>
      </trkpt>
      <trkpt lat="44.2737" lon="5.81319">
        <ele>540.7</ele>
        <time>2021-05-27T13:20:04.059Z</time>
      </trkpt>
      <trkpt lat="44.27345" lon="5.813">
        <ele>540.2</ele>
        <time>2021-05-27T13:20:09.135Z</time>
      </trkpt>
      <trkpt lat="44.27318" lon="5.81266">
        <ele>540.7</ele>
        <time>2021-05-27T13:20:22.698Z</time>
      </trkpt>
      <trkpt lat="44.27296" lon="5.8123">
        <ele>542.1</ele>
        <time>2021-05-27T13:20:40.475Z</time>
      </trkpt>
      <trkpt lat="44.27277" lon="5.81205">
        <ele>542.9</ele>
        <time>2021-05-27T13:20:52.309Z</time>
      </trkpt>
      <trkpt lat="44.27246" lon="5.81177">
        <ele>543.7</ele>
        <time>2021-05-27T13:21:07.328Z</time>
      </trkpt>
      <trkpt lat="44.27224" lon="5.81156">
        <ele>543.3</ele>
        <time>2021-05-27T13:21:12.232Z</time>
      </trkpt>
      <trkpt lat="44.27222" lon="5.81124">
        <ele>543</ele>
        <time>2021-05-27T13:21:16.571Z</time>
      </trkpt>
      <trkpt lat="44.27221" lon="5.81089">
        <ele>542.7</ele>
        <time>2021-05-27T13:21:21.369Z</time>
      </trkpt>
      <trkpt lat="44.27222" lon="5.8105">
        <ele>541.9</ele>
        <time>2021-05-27T13:21:25.765Z</time>
      </trkpt>
      <trkpt lat="44.27229" lon="5.81001">
        <ele>540.8</ele>
        <time>2021-05-27T13:21:31.270Z</time>
      </trkpt>
      <trkpt lat="44.27239" lon="5.80956">
        <ele>541.3</ele>
        <time>2021-05-27T13:21:43.999Z</time>
      </trkpt>
      <trkpt lat="44.27256" lon="5.80882">
        <ele>541.5</ele>
        <time>2021-05-27T13:22:02.761Z</time>
      </trkpt>
      <trkpt lat="44.27269" lon="5.80834">
        <ele>541.8</ele>
        <time>2021-05-27T13:22:15.711Z</time>
      </trkpt>
      <trkpt lat="44.27283" lon="5.80788">
        <ele>543.7</ele>
        <time>2021-05-27T13:22:36.538Z</time>
      </trkpt>
      <trkpt lat="44.27298" lon="5.80741">
        <ele>545.6</ele>
        <time>2021-05-27T13:22:57.763Z</time>
      </trkpt>
      <trkpt lat="44.27314" lon="5.80708">
        <ele>547.6</ele>
        <time>2021-05-27T13:23:16.499Z</time>
      </trkpt>
      <trkpt lat="44.27332" lon="5.80645">
        <ele>550.8</ele>
        <time>2021-05-27T13:23:47.408Z</time>
      </trkpt>
      <trkpt lat="44.27332" lon="5.80604">
        <ele>550.8</ele>
        <time>2021-05-27T13:23:56.980Z</time>
      </trkpt>
      <trkpt lat="44.27346" lon="5.80561">
        <ele>552.8</ele>
        <time>2021-05-27T13:24:17.491Z</time>
      </trkpt>
      <trkpt lat="44.27366" lon="5.80527">
        <ele>555.5</ele>
        <time>2021-05-27T13:24:40.939Z</time>
      </trkpt>
      <trkpt lat="44.27381" lon="5.80501">
        <ele>557.4</ele>
        <time>2021-05-27T13:24:57.832Z</time>
      </trkpt>
      <trkpt lat="44.27399" lon="5.80468">
        <ele>557.3</ele>
        <time>2021-05-27T13:25:07.043Z</time>
      </trkpt>
      <trkpt lat="44.27418" lon="5.80416">
        <ele>552.6</ele>
        <time>2021-05-27T13:25:12.152Z</time>
      </trkpt>
      <trkpt lat="44.2743" lon="5.80375">
        <ele>554.6</ele>
        <time>2021-05-27T13:25:31.926Z</time>
      </trkpt>
      <trkpt lat="44.27439" lon="5.80346">
        <ele>556.1</ele>
        <time>2021-05-27T13:25:46.370Z</time>
      </trkpt>
      <trkpt lat="44.27456" lon="5.80296">
        <ele>560.9</ele>
        <time>2021-05-27T13:26:28.682Z</time>
      </trkpt>
      <trkpt lat="44.27472" lon="5.80258">
        <ele>562.7</ele>
        <time>2021-05-27T13:26:47.547Z</time>
      </trkpt>
      <trkpt lat="44.27492" lon="5.80215">
        <ele>560</ele>
        <time>2021-05-27T13:26:52.034Z</time>
      </trkpt>
      <trkpt lat="44.27515" lon="5.80177">
        <ele>564.1</ele>
        <time>2021-05-27T13:27:27.449Z</time>
      </trkpt>
      <trkpt lat="44.27536" lon="5.80145">
        <ele>573.7</ele>
        <time>2021-05-27T13:28:06.538Z</time>
      </trkpt>
      <trkpt lat="44.2755" lon="5.8012">
        <ele>576</ele>
        <time>2021-05-27T13:28:26.037Z</time>
      </trkpt>
      <trkpt lat="44.27569" lon="5.80085">
        <ele>571.3</ele>
        <time>2021-05-27T13:28:29.881Z</time>
      </trkpt>
      <trkpt lat="44.27582" lon="5.80058">
        <ele>568.4</ele>
        <time>2021-05-27T13:28:32.729Z</time>
      </trkpt>
      <trkpt lat="44.27597" lon="5.80024">
        <ele>574</ele>
        <time>2021-05-27T13:29:08.691Z</time>
      </trkpt>
      <trkpt lat="44.2761" lon="5.79994">
        <ele>577.7</ele>
        <time>2021-05-27T13:29:40.269Z</time>
      </trkpt>
      <trkpt lat="44.27621" lon="5.79961">
        <ele>585.3</ele>
        <time>2021-05-27T13:30:13.048Z</time>
      </trkpt>
      <trkpt lat="44.2763" lon="5.79926">
        <ele>589.8</ele>
        <time>2021-05-27T13:30:46.536Z</time>
      </trkpt>
      <trkpt lat="44.27639" lon="5.79889">
        <ele>588.7</ele>
        <time>2021-05-27T13:30:50.488Z</time>
      </trkpt>
      <trkpt lat="44.27646" lon="5.79858">
        <ele>584.3</ele>
        <time>2021-05-27T13:30:53.333Z</time>
      </trkpt>
      <trkpt lat="44.27668" lon="5.7978">
        <ele>574.3</ele>
        <time>2021-05-27T13:31:00.669Z</time>
      </trkpt>
      <trkpt lat="44.27676" lon="5.79745">
        <ele>575.3</ele>
        <time>2021-05-27T13:31:13.829Z</time>
      </trkpt>
      <trkpt lat="44.27677" lon="5.79701">
        <ele>574.9</ele>
        <time>2021-05-27T13:31:19.802Z</time>
      </trkpt>
      <trkpt lat="44.27676" lon="5.79663">
        <ele>573.2</ele>
        <time>2021-05-27T13:31:22.951Z</time>
      </trkpt>
      <trkpt lat="44.27677" lon="5.79611">
        <ele>571.1</ele>
        <time>2021-05-27T13:31:27.474Z</time>
      </trkpt>
      <trkpt lat="44.27684" lon="5.79537">
        <ele>574.5</ele>
        <time>2021-05-27T13:32:00.930Z</time>
      </trkpt>
      <trkpt lat="44.27692" lon="5.79488">
        <ele>577.9</ele>
        <time>2021-05-27T13:32:29.887Z</time>
      </trkpt>
      <trkpt lat="44.27698" lon="5.79449">
        <ele>576.9</ele>
        <time>2021-05-27T13:32:34.094Z</time>
      </trkpt>
      <trkpt lat="44.27709" lon="5.79413">
        <ele>575.4</ele>
        <time>2021-05-27T13:32:37.579Z</time>
      </trkpt>
      <trkpt lat="44.27727" lon="5.79379">
        <ele>573.7</ele>
        <time>2021-05-27T13:32:41.263Z</time>
      </trkpt>
      <trkpt lat="44.27741" lon="5.79354">
        <ele>568.5</ele>
        <time>2021-05-27T13:32:44.040Z</time>
      </trkpt>
      <trkpt lat="44.27761" lon="5.79338">
        <ele>566.8</ele>
        <time>2021-05-27T13:32:46.857Z</time>
      </trkpt>
      <trkpt lat="44.27792" lon="5.79331">
        <ele>575</ele>
        <time>2021-05-27T13:33:26.352Z</time>
      </trkpt>
      <trkpt lat="44.27813" lon="5.79319">
        <ele>580.3</ele>
        <time>2021-05-27T13:33:54.889Z</time>
      </trkpt>
      <trkpt lat="44.27836" lon="5.79281">
        <ele>580.8</ele>
        <time>2021-05-27T13:34:08.219Z</time>
      </trkpt>
      <trkpt lat="44.27855" lon="5.79241">
        <ele>588.3</ele>
        <time>2021-05-27T13:34:51.444Z</time>
      </trkpt>
      <trkpt lat="44.27866" lon="5.79205">
        <ele>595.1</ele>
        <time>2021-05-27T13:35:26.689Z</time>
      </trkpt>
      <trkpt lat="44.27867" lon="5.79167">
        <ele>595.2</ele>
        <time>2021-05-27T13:35:35.875Z</time>
      </trkpt>
      <trkpt lat="44.27858" lon="5.79138">
        <ele>590.2</ele>
        <time>2021-05-27T13:35:38.641Z</time>
      </trkpt>
      <trkpt lat="44.27846" lon="5.79108">
        <ele>585</ele>
        <time>2021-05-27T13:35:41.649Z</time>
      </trkpt>
      <trkpt lat="44.27834" lon="5.7908">
        <ele>581.3</ele>
        <time>2021-05-27T13:35:44.504Z</time>
      </trkpt>
      <trkpt lat="44.2781" lon="5.79053">
        <ele>580.7</ele>
        <time>2021-05-27T13:35:49.877Z</time>
      </trkpt>
      <trkpt lat="44.27825" lon="5.78998">
        <ele>581.6</ele>
        <time>2021-05-27T13:36:06.959Z</time>
      </trkpt>
      <trkpt lat="44.27874" lon="5.79019">
        <ele>586.6</ele>
        <time>2021-05-27T13:36:49.408Z</time>
      </trkpt>
      <trkpt lat="44.27898" lon="5.79017">
        <ele>589</ele>
        <time>2021-05-27T13:37:09.759Z</time>
      </trkpt>
      <trkpt lat="44.27925" lon="5.79002">
        <ele>590.3</ele>
        <time>2021-05-27T13:37:25.774Z</time>
      </trkpt>
      <trkpt lat="44.27947" lon="5.78981">
        <ele>596.6</ele>
        <time>2021-05-27T13:37:59.288Z</time>
      </trkpt>
      <trkpt lat="44.27959" lon="5.78954">
        <ele>597.6</ele>
        <time>2021-05-27T13:38:11.706Z</time>
      </trkpt>
      <trkpt lat="44.27966" lon="5.78915">
        <ele>594.8</ele>
        <time>2021-05-27T13:38:15.225Z</time>
      </trkpt>
      <trkpt lat="44.27967" lon="5.7888">
        <ele>597</ele>
        <time>2021-05-27T13:38:34.218Z</time>
      </trkpt>
      <trkpt lat="44.27961" lon="5.78841">
        <ele>596.3</ele>
        <time>2021-05-27T13:38:38.917Z</time>
      </trkpt>
      <trkpt lat="44.2795" lon="5.78795">
        <ele>594.2</ele>
        <time>2021-05-27T13:38:42.997Z</time>
      </trkpt>
      <trkpt lat="44.27936" lon="5.78752">
        <ele>590.2</ele>
        <time>2021-05-27T13:38:47.130Z</time>
      </trkpt>
      <trkpt lat="44.27931" lon="5.78716">
        <ele>585.1</ele>
        <time>2021-05-27T13:38:50.339Z</time>
      </trkpt>
      <trkpt lat="44.2793" lon="5.78673">
        <ele>581.2</ele>
        <time>2021-05-27T13:38:54.104Z</time>
      </trkpt>
      <trkpt lat="44.27945" lon="5.78637">
        <ele>583.7</ele>
        <time>2021-05-27T13:39:15.949Z</time>
      </trkpt>
      <trkpt lat="44.27956" lon="5.78607">
        <ele>583.6</ele>
        <time>2021-05-27T13:39:23.348Z</time>
      </trkpt>
      <trkpt lat="44.27963" lon="5.78574">
        <ele>583.2</ele>
        <time>2021-05-27T13:39:27.815Z</time>
      </trkpt>
      <trkpt lat="44.27965" lon="5.78533">
        <ele>588.5</ele>
        <time>2021-05-27T13:40:04.819Z</time>
      </trkpt>
      <trkpt lat="44.27962" lon="5.78489">
        <ele>592.8</ele>
        <time>2021-05-27T13:40:44.617Z</time>
      </trkpt>
      <trkpt lat="44.27957" lon="5.78449">
        <ele>594.9</ele>
        <time>2021-05-27T13:41:04.019Z</time>
      </trkpt>
      <trkpt lat="44.2795" lon="5.78408">
        <ele>595.7</ele>
        <time>2021-05-27T13:41:17.014Z</time>
      </trkpt>
      <trkpt lat="44.27941" lon="5.78361">
        <ele>595</ele>
        <time>2021-05-27T13:41:23.043Z</time>
      </trkpt>
      <trkpt lat="44.27929" lon="5.783">
        <ele>594.1</ele>
        <time>2021-05-27T13:41:30.901Z</time>
      </trkpt>
      <trkpt lat="44.2791" lon="5.78252">
        <ele>591.7</ele>
        <time>2021-05-27T13:41:35.491Z</time>
      </trkpt>
      <trkpt lat="44.27896" lon="5.78227">
        <ele>597.1</ele>
        <time>2021-05-27T13:42:04.071Z</time>
      </trkpt>
      <trkpt lat="44.27878" lon="5.78199">
        <ele>602.4</ele>
        <time>2021-05-27T13:42:37.956Z</time>
      </trkpt>
      <trkpt lat="44.2785" lon="5.78187">
        <ele>600.1</ele>
        <time>2021-05-27T13:42:41.536Z</time>
      </trkpt>
      <trkpt lat="44.27818" lon="5.78196">
        <ele>597.1</ele>
        <time>2021-05-27T13:42:45.526Z</time>
      </trkpt>
      <trkpt lat="44.27791" lon="5.78213">
        <ele>597</ele>
        <time>2021-05-27T13:42:54.708Z</time>
      </trkpt>
      <trkpt lat="44.27771" lon="5.78232">
        <ele>594.5</ele>
        <time>2021-05-27T13:42:57.664Z</time>
      </trkpt>
      <trkpt lat="44.27743" lon="5.78263">
        <ele>593.1</ele>
        <time>2021-05-27T13:43:02.718Z</time>
      </trkpt>
      <trkpt lat="44.27715" lon="5.78293">
        <ele>595.7</ele>
        <time>2021-05-27T13:43:26.532Z</time>
      </trkpt>
      <trkpt lat="44.27694" lon="5.78318">
        <ele>593.7</ele>
        <time>2021-05-27T13:43:29.905Z</time>
      </trkpt>
      <trkpt lat="44.27672" lon="5.78341">
        <ele>591.3</ele>
        <time>2021-05-27T13:43:33.264Z</time>
      </trkpt>
      <trkpt lat="44.27649" lon="5.78355">
        <ele>593.4</ele>
        <time>2021-05-27T13:43:51.623Z</time>
      </trkpt>
      <trkpt lat="44.27623" lon="5.78374">
        <ele>593.9</ele>
        <time>2021-05-27T13:44:02.960Z</time>
      </trkpt>
      <trkpt lat="44.27602" lon="5.7839">
        <ele>592</ele>
        <time>2021-05-27T13:44:05.884Z</time>
      </trkpt>
      <trkpt lat="44.27577" lon="5.78407">
        <ele>587.6</ele>
        <time>2021-05-27T13:44:09.283Z</time>
      </trkpt>
      <trkpt lat="44.27552" lon="5.78419">
        <ele>584.6</ele>
        <time>2021-05-27T13:44:12.514Z</time>
      </trkpt>
      <trkpt lat="44.27526" lon="5.78416">
        <ele>583.8</ele>
        <time>2021-05-27T13:44:16.531Z</time>
      </trkpt>
      <trkpt lat="44.27499" lon="5.78402">
        <ele>585.2</ele>
        <time>2021-05-27T13:44:32.804Z</time>
      </trkpt>
      <trkpt lat="44.27477" lon="5.78378">
        <ele>589.1</ele>
        <time>2021-05-27T13:45:07.914Z</time>
      </trkpt>
      <trkpt lat="44.27469" lon="5.78343">
        <ele>592.6</ele>
        <time>2021-05-27T13:45:40.816Z</time>
      </trkpt>
      <trkpt lat="44.27486" lon="5.78316">
        <ele>592.6</ele>
        <time>2021-05-27T13:45:49.210Z</time>
      </trkpt>
      <trkpt lat="44.27511" lon="5.78293">
        <ele>592.8</ele>
        <time>2021-05-27T13:45:59.608Z</time>
      </trkpt>
      <trkpt lat="44.27533" lon="5.7828">
        <ele>598.5</ele>
        <time>2021-05-27T13:46:29.652Z</time>
      </trkpt>
      <trkpt lat="44.27549" lon="5.78253">
        <ele>603.4</ele>
        <time>2021-05-27T13:47:01.213Z</time>
      </trkpt>
      <trkpt lat="44.27549" lon="5.78214">
        <ele>607.2</ele>
        <time>2021-05-27T13:47:36.333Z</time>
      </trkpt>
      <trkpt lat="44.27535" lon="5.78179">
        <ele>604.9</ele>
        <time>2021-05-27T13:47:39.842Z</time>
      </trkpt>
      <trkpt lat="44.27518" lon="5.78154">
        <ele>602.1</ele>
        <time>2021-05-27T13:47:42.859Z</time>
      </trkpt>
      <trkpt lat="44.27488" lon="5.7812">
        <ele>600.3</ele>
        <time>2021-05-27T13:47:47.961Z</time>
      </trkpt>
      <trkpt lat="44.27463" lon="5.78091">
        <ele>598.7</ele>
        <time>2021-05-27T13:47:52.154Z</time>
      </trkpt>
      <trkpt lat="44.27434" lon="5.78058">
        <ele>594.4</ele>
        <time>2021-05-27T13:47:56.727Z</time>
      </trkpt>
      <trkpt lat="44.27414" lon="5.78024">
        <ele>592.8</ele>
        <time>2021-05-27T13:48:00.737Z</time>
      </trkpt>
      <trkpt lat="44.27408" lon="5.7798">
        <ele>600.5</ele>
        <time>2021-05-27T13:48:41.073Z</time>
      </trkpt>
      <trkpt lat="44.27406" lon="5.77935">
        <ele>609.9</ele>
        <time>2021-05-27T13:49:21.674Z</time>
      </trkpt>
      <trkpt lat="44.27385" lon="5.77895">
        <ele>613.2</ele>
        <time>2021-05-27T13:49:49.845Z</time>
      </trkpt>
      <trkpt lat="44.27364" lon="5.77866">
        <ele>611.4</ele>
        <time>2021-05-27T13:49:53.302Z</time>
      </trkpt>
      <trkpt lat="44.2733" lon="5.77829">
        <ele>601.3</ele>
        <time>2021-05-27T13:49:58.570Z</time>
      </trkpt>
      <trkpt lat="44.2731" lon="5.77811">
        <ele>601.3</ele>
        <time>2021-05-27T13:50:06.328Z</time>
      </trkpt>
      <trkpt lat="44.27298" lon="5.77755">
        <ele>607.5</ele>
        <time>2021-05-27T13:50:58.969Z</time>
      </trkpt>
      <trkpt lat="44.2728" lon="5.77736">
        <ele>609.7</ele>
        <time>2021-05-27T13:51:17.647Z</time>
      </trkpt>
      <trkpt lat="44.27257" lon="5.7774">
        <ele>604.6</ele>
        <time>2021-05-27T13:51:20.480Z</time>
      </trkpt>
      <trkpt lat="44.27229" lon="5.7775">
        <ele>597.5</ele>
        <time>2021-05-27T13:51:24.012Z</time>
      </trkpt>
      <trkpt lat="44.27189" lon="5.77729">
        <ele>600.8</ele>
        <time>2021-05-27T13:51:53.666Z</time>
      </trkpt>
      <trkpt lat="44.27158" lon="5.77707">
        <ele>603.4</ele>
        <time>2021-05-27T13:52:17.333Z</time>
      </trkpt>
      <trkpt lat="44.27136" lon="5.77689">
        <ele>605.7</ele>
        <time>2021-05-27T13:52:37.070Z</time>
      </trkpt>
      <trkpt lat="44.27124" lon="5.77652">
        <ele>608</ele>
        <time>2021-05-27T13:52:57.556Z</time>
      </trkpt>
      <trkpt lat="44.27119" lon="5.77621">
        <ele>609.9</ele>
        <time>2021-05-27T13:53:14.178Z</time>
      </trkpt>
      <trkpt lat="44.27116" lon="5.77579">
        <ele>613</ele>
        <time>2021-05-27T13:53:40.464Z</time>
      </trkpt>
      <trkpt lat="44.27107" lon="5.77549">
        <ele>615.2</ele>
        <time>2021-05-27T13:53:59.201Z</time>
      </trkpt>
      <trkpt lat="44.27092" lon="5.77518">
        <ele>614.1</ele>
        <time>2021-05-27T13:54:02.924Z</time>
      </trkpt>
      <trkpt lat="44.27073" lon="5.77493">
        <ele>614.1</ele>
        <time>2021-05-27T13:54:11.436Z</time>
      </trkpt>
      <trkpt lat="44.27047" lon="5.77485">
        <ele>611.5</ele>
        <time>2021-05-27T13:54:14.690Z</time>
      </trkpt>
      <trkpt lat="44.2703" lon="5.77458">
        <ele>617.8</ele>
        <time>2021-05-27T13:54:47.069Z</time>
      </trkpt>
      <trkpt lat="44.27003" lon="5.77439">
        <ele>615.8</ele>
        <time>2021-05-27T13:54:50.467Z</time>
      </trkpt>
      <trkpt lat="44.2696" lon="5.77454">
        <ele>612.6</ele>
        <time>2021-05-27T13:54:55.885Z</time>
      </trkpt>
      <trkpt lat="44.26933" lon="5.7746">
        <ele>612.3</ele>
        <time>2021-05-27T13:55:01.182Z</time>
      </trkpt>
      <trkpt lat="44.26899" lon="5.77486">
        <ele>608.2</ele>
        <time>2021-05-27T13:55:05.920Z</time>
      </trkpt>
      <trkpt lat="44.2687" lon="5.77509">
        <ele>607.8</ele>
        <time>2021-05-27T13:55:12.297Z</time>
      </trkpt>
      <trkpt lat="44.26839" lon="5.77531">
        <ele>608.5</ele>
        <time>2021-05-27T13:55:26.199Z</time>
      </trkpt>
      <trkpt lat="44.26814" lon="5.77544">
        <ele>605.1</ele>
        <time>2021-05-27T13:55:29.460Z</time>
      </trkpt>
      <trkpt lat="44.26771" lon="5.77545">
        <ele>603.3</ele>
        <time>2021-05-27T13:55:35.391Z</time>
      </trkpt>
      <trkpt lat="44.26747" lon="5.77507">
        <ele>608.9</ele>
        <time>2021-05-27T13:56:21.024Z</time>
      </trkpt>
      <trkpt lat="44.26714" lon="5.77448">
        <ele>622</ele>
        <time>2021-05-27T13:57:28.449Z</time>
      </trkpt>
      <trkpt lat="44.26699" lon="5.77418">
        <ele>621</ele>
        <time>2021-05-27T13:57:32.192Z</time>
      </trkpt>
      <trkpt lat="44.26683" lon="5.77387">
        <ele>622</ele>
        <time>2021-05-27T13:57:45.604Z</time>
      </trkpt>
      <trkpt lat="44.2667" lon="5.77349">
        <ele>623</ele>
        <time>2021-05-27T13:57:59.727Z</time>
      </trkpt>
      <trkpt lat="44.26656" lon="5.77321">
        <ele>622</ele>
        <time>2021-05-27T13:58:03.130Z</time>
      </trkpt>
      <trkpt lat="44.26628" lon="5.77291">
        <ele>616</ele>
        <time>2021-05-27T13:58:07.444Z</time>
      </trkpt>
      <trkpt lat="44.26606" lon="5.77268">
        <ele>610.6</ele>
        <time>2021-05-27T13:58:10.803Z</time>
      </trkpt>
      <trkpt lat="44.26593" lon="5.77239">
        <ele>607.8</ele>
        <time>2021-05-27T13:58:13.797Z</time>
      </trkpt>
      <trkpt lat="44.26607" lon="5.77209">
        <ele>611.6</ele>
        <time>2021-05-27T13:58:46.048Z</time>
      </trkpt>
      <trkpt lat="44.26627" lon="5.77192">
        <ele>615.4</ele>
        <time>2021-05-27T13:59:15.495Z</time>
      </trkpt>
      <trkpt lat="44.26652" lon="5.77164">
        <ele>616.5</ele>
        <time>2021-05-27T13:59:30.737Z</time>
      </trkpt>
      <trkpt lat="44.26672" lon="5.77138">
        <ele>620</ele>
        <time>2021-05-27T14:00:02.639Z</time>
      </trkpt>
      <trkpt lat="44.26695" lon="5.77104">
        <ele>633.1</ele>
        <time>2021-05-27T14:00:44.764Z</time>
      </trkpt>
      <trkpt lat="44.26708" lon="5.77077">
        <ele>640.4</ele>
        <time>2021-05-27T14:01:14.066Z</time>
      </trkpt>
      <trkpt lat="44.26712" lon="5.77046">
        <ele>646.6</ele>
        <time>2021-05-27T14:01:42.436Z</time>
      </trkpt>
      <trkpt lat="44.26712" lon="5.77012">
        <ele>650.2</ele>
        <time>2021-05-27T14:02:13.057Z</time>
      </trkpt>
      <trkpt lat="44.26708" lon="5.76981">
        <ele>655</ele>
        <time>2021-05-27T14:02:41.426Z</time>
      </trkpt>
      <trkpt lat="44.26694" lon="5.76955">
        <ele>654.3</ele>
        <time>2021-05-27T14:02:45.037Z</time>
      </trkpt>
      <trkpt lat="44.26675" lon="5.76938">
        <ele>648.1</ele>
        <time>2021-05-27T14:02:47.795Z</time>
      </trkpt>
      <trkpt lat="44.2665" lon="5.76925">
        <ele>642.9</ele>
        <time>2021-05-27T14:02:51.056Z</time>
      </trkpt>
      <trkpt lat="44.26624" lon="5.76918">
        <ele>636.3</ele>
        <time>2021-05-27T14:02:54.292Z</time>
      </trkpt>
      <trkpt lat="44.26597" lon="5.76915">
        <ele>627.4</ele>
        <time>2021-05-27T14:02:57.603Z</time>
      </trkpt>
      <trkpt lat="44.26571" lon="5.7691">
        <ele>622.9</ele>
        <time>2021-05-27T14:03:00.811Z</time>
      </trkpt>
      <trkpt lat="44.26544" lon="5.76903">
        <ele>621.6</ele>
        <time>2021-05-27T14:03:04.413Z</time>
      </trkpt>
      <trkpt lat="44.26518" lon="5.76899">
        <ele>619.1</ele>
        <time>2021-05-27T14:03:07.610Z</time>
      </trkpt>
      <trkpt lat="44.26494" lon="5.769">
        <ele>618</ele>
        <time>2021-05-27T14:03:10.804Z</time>
      </trkpt>
      <trkpt lat="44.2647" lon="5.76891">
        <ele>623.5</ele>
        <time>2021-05-27T14:03:42.058Z</time>
      </trkpt>
      <trkpt lat="44.26458" lon="5.76864">
        <ele>627.4</ele>
        <time>2021-05-27T14:04:10.679Z</time>
      </trkpt>
      <trkpt lat="44.26504" lon="5.76831">
        <ele>621.6</ele>
        <time>2021-05-27T14:04:17.000Z</time>
      </trkpt>
      <trkpt lat="44.26526" lon="5.76818">
        <ele>629.3</ele>
        <time>2021-05-27T14:04:47.045Z</time>
      </trkpt>
      <trkpt lat="44.26553" lon="5.76768">
        <ele>633.9</ele>
        <time>2021-05-27T14:05:26.050Z</time>
      </trkpt>
      <trkpt lat="44.26568" lon="5.76736">
        <ele>632.4</ele>
        <time>2021-05-27T14:05:29.421Z</time>
      </trkpt>
      <trkpt lat="44.26589" lon="5.7671">
        <ele>631.2</ele>
        <time>2021-05-27T14:05:33.259Z</time>
      </trkpt>
      <trkpt lat="44.2661" lon="5.76692">
        <ele>638.5</ele>
        <time>2021-05-27T14:06:04.249Z</time>
      </trkpt>
      <trkpt lat="44.26624" lon="5.76662">
        <ele>641.5</ele>
        <time>2021-05-27T14:06:30.308Z</time>
      </trkpt>
      <trkpt lat="44.26631" lon="5.76627">
        <ele>643.9</ele>
        <time>2021-05-27T14:06:50.820Z</time>
      </trkpt>
      <trkpt lat="44.26633" lon="5.76595">
        <ele>644.2</ele>
        <time>2021-05-27T14:06:59.338Z</time>
      </trkpt>
      <trkpt lat="44.26616" lon="5.76552">
        <ele>636.4</ele>
        <time>2021-05-27T14:07:03.637Z</time>
      </trkpt>
      <trkpt lat="44.26602" lon="5.76522">
        <ele>630.1</ele>
        <time>2021-05-27T14:07:06.772Z</time>
      </trkpt>
      <trkpt lat="44.26581" lon="5.76496">
        <ele>622.3</ele>
        <time>2021-05-27T14:07:10.202Z</time>
      </trkpt>
      <trkpt lat="44.2656" lon="5.76483">
        <ele>622.2</ele>
        <time>2021-05-27T14:07:17.224Z</time>
      </trkpt>
      <trkpt lat="44.26542" lon="5.76463">
        <ele>622.5</ele>
        <time>2021-05-27T14:07:25.742Z</time>
      </trkpt>
      <trkpt lat="44.26549" lon="5.76429">
        <ele>625.4</ele>
        <time>2021-05-27T14:07:50.750Z</time>
      </trkpt>
      <trkpt lat="44.26563" lon="5.76397">
        <ele>626.2</ele>
        <time>2021-05-27T14:08:02.793Z</time>
      </trkpt>
      <trkpt lat="44.26585" lon="5.76378">
        <ele>626.5</ele>
        <time>2021-05-27T14:08:12.230Z</time>
      </trkpt>
      <trkpt lat="44.26607" lon="5.76369">
        <ele>628.3</ele>
        <time>2021-05-27T14:08:28.304Z</time>
      </trkpt>
      <trkpt lat="44.26636" lon="5.7636">
        <ele>630.4</ele>
        <time>2021-05-27T14:08:47.898Z</time>
      </trkpt>
      <trkpt lat="44.2666" lon="5.76351">
        <ele>631.2</ele>
        <time>2021-05-27T14:08:59.389Z</time>
      </trkpt>
      <trkpt lat="44.26696" lon="5.76333">
        <ele>630.8</ele>
        <time>2021-05-27T14:09:06.849Z</time>
      </trkpt>
      <trkpt lat="44.26745" lon="5.76311">
        <ele>632.2</ele>
        <time>2021-05-27T14:09:29.201Z</time>
      </trkpt>
      <trkpt lat="44.26769" lon="5.76301">
        <ele>633.3</ele>
        <time>2021-05-27T14:09:42.864Z</time>
      </trkpt>
      <trkpt lat="44.26798" lon="5.76293">
        <ele>635.7</ele>
        <time>2021-05-27T14:10:04.047Z</time>
      </trkpt>
      <trkpt lat="44.26825" lon="5.76281">
        <ele>636</ele>
        <time>2021-05-27T14:10:14.278Z</time>
      </trkpt>
      <trkpt lat="44.26846" lon="5.76262">
        <ele>637.9</ele>
        <time>2021-05-27T14:10:31.465Z</time>
      </trkpt>
      <trkpt lat="44.26861" lon="5.76235">
        <ele>641.6</ele>
        <time>2021-05-27T14:11:02.242Z</time>
      </trkpt>
      <trkpt lat="44.26868" lon="5.76202">
        <ele>643.7</ele>
        <time>2021-05-27T14:11:20.507Z</time>
      </trkpt>
      <trkpt lat="44.26867" lon="5.7617">
        <ele>641.7</ele>
        <time>2021-05-27T14:11:23.311Z</time>
      </trkpt>
      <trkpt lat="44.26861" lon="5.76138">
        <ele>641.1</ele>
        <time>2021-05-27T14:11:27.173Z</time>
      </trkpt>
      <trkpt lat="44.26847" lon="5.76102">
        <ele>638.1</ele>
        <time>2021-05-27T14:11:30.759Z</time>
      </trkpt>
      <trkpt lat="44.26827" lon="5.7607">
        <ele>634.4</ele>
        <time>2021-05-27T14:11:34.476Z</time>
      </trkpt>
      <trkpt lat="44.26805" lon="5.76041">
        <ele>633.1</ele>
        <time>2021-05-27T14:11:38.605Z</time>
      </trkpt>
      <trkpt lat="44.26783" lon="5.76014">
        <ele>630.6</ele>
        <time>2021-05-27T14:11:42.185Z</time>
      </trkpt>
      <trkpt lat="44.26763" lon="5.75991">
        <ele>627.7</ele>
        <time>2021-05-27T14:11:45.352Z</time>
      </trkpt>
      <trkpt lat="44.26743" lon="5.75962">
        <ele>626.8</ele>
        <time>2021-05-27T14:11:49.766Z</time>
      </trkpt>
      <trkpt lat="44.26728" lon="5.75933">
        <ele>627.7</ele>
        <time>2021-05-27T14:12:02.083Z</time>
      </trkpt>
      <trkpt lat="44.26708" lon="5.7588">
        <ele>628.2</ele>
        <time>2021-05-27T14:12:17.744Z</time>
      </trkpt>
      <trkpt lat="44.26695" lon="5.75829">
        <ele>627.6</ele>
        <time>2021-05-27T14:12:24.836Z</time>
      </trkpt>
      <trkpt lat="44.2669" lon="5.75779">
        <ele>627.6</ele>
        <time>2021-05-27T14:12:36.624Z</time>
      </trkpt>
      <trkpt lat="44.2669" lon="5.75743">
        <ele>628.1</ele>
        <time>2021-05-27T14:12:46.846Z</time>
      </trkpt>
      <trkpt lat="44.267" lon="5.75707">
        <ele>628.9</ele>
        <time>2021-05-27T14:12:59.113Z</time>
      </trkpt>
      <trkpt lat="44.26716" lon="5.7568">
        <ele>630.3</ele>
        <time>2021-05-27T14:13:13.986Z</time>
      </trkpt>
      <trkpt lat="44.26717" lon="5.75647">
        <ele>629.4</ele>
        <time>2021-05-27T14:13:17.368Z</time>
      </trkpt>
      <trkpt lat="44.26699" lon="5.75628">
        <ele>627.3</ele>
        <time>2021-05-27T14:13:20.126Z</time>
      </trkpt>
      <trkpt lat="44.26684" lon="5.75597">
        <ele>626.1</ele>
        <time>2021-05-27T14:13:23.722Z</time>
      </trkpt>
      <trkpt lat="44.26678" lon="5.75552">
        <ele>627.9</ele>
        <time>2021-05-27T14:13:43.032Z</time>
      </trkpt>
      <trkpt lat="44.26673" lon="5.75507">
        <ele>630.3</ele>
        <time>2021-05-27T14:14:05.025Z</time>
      </trkpt>
      <trkpt lat="44.26668" lon="5.75476">
        <ele>630.8</ele>
        <time>2021-05-27T14:14:14.315Z</time>
      </trkpt>
      <trkpt lat="44.26659" lon="5.75438">
        <ele>630.7</ele>
        <time>2021-05-27T14:14:23.186Z</time>
      </trkpt>
      <trkpt lat="44.26646" lon="5.75405">
        <ele>631</ele>
        <time>2021-05-27T14:14:32.979Z</time>
      </trkpt>
      <trkpt lat="44.2663" lon="5.75375">
        <ele>631.6</ele>
        <time>2021-05-27T14:14:43.968Z</time>
      </trkpt>
      <trkpt lat="44.2661" lon="5.75336">
        <ele>631.7</ele>
        <time>2021-05-27T14:14:55.475Z</time>
      </trkpt>
      <trkpt lat="44.26598" lon="5.75306">
        <ele>632.4</ele>
        <time>2021-05-27T14:15:06.326Z</time>
      </trkpt>
      <trkpt lat="44.26587" lon="5.75274">
        <ele>633</ele>
        <time>2021-05-27T14:15:16.901Z</time>
      </trkpt>
      <trkpt lat="44.26575" lon="5.75243">
        <ele>633.9</ele>
        <time>2021-05-27T14:15:29.122Z</time>
      </trkpt>
      <trkpt lat="44.26561" lon="5.75215">
        <ele>635.6</ele>
        <time>2021-05-27T14:15:45.109Z</time>
      </trkpt>
      <trkpt lat="44.26546" lon="5.75189">
        <ele>636</ele>
        <time>2021-05-27T14:15:54.316Z</time>
      </trkpt>
      <trkpt lat="44.2653" lon="5.75162">
        <ele>635.5</ele>
        <time>2021-05-27T14:15:58.669Z</time>
      </trkpt>
      <trkpt lat="44.26507" lon="5.75124">
        <ele>634.1</ele>
        <time>2021-05-27T14:16:03.703Z</time>
      </trkpt>
      <trkpt lat="44.26492" lon="5.75099">
        <ele>633.6</ele>
        <time>2021-05-27T14:16:07.684Z</time>
      </trkpt>
      <trkpt lat="44.26465" lon="5.75053">
        <ele>630.8</ele>
        <time>2021-05-27T14:16:12.487Z</time>
      </trkpt>
      <trkpt lat="44.26442" lon="5.75017">
        <ele>628.6</ele>
        <time>2021-05-27T14:16:16.445Z</time>
      </trkpt>
      <trkpt lat="44.26424" lon="5.74984">
        <ele>629.3</ele>
        <time>2021-05-27T14:16:28.797Z</time>
      </trkpt>
      <trkpt lat="44.2641" lon="5.74957">
        <ele>631.1</ele>
        <time>2021-05-27T14:16:45.126Z</time>
      </trkpt>
      <trkpt lat="44.26398" lon="5.74927">
        <ele>632.8</ele>
        <time>2021-05-27T14:17:01.161Z</time>
      </trkpt>
      <trkpt lat="44.2639" lon="5.74896">
        <ele>634.5</ele>
        <time>2021-05-27T14:17:16.886Z</time>
      </trkpt>
      <trkpt lat="44.2638" lon="5.74857">
        <ele>636.4</ele>
        <time>2021-05-27T14:17:35.515Z</time>
      </trkpt>
      <trkpt lat="44.26366" lon="5.74828">
        <ele>636.5</ele>
        <time>2021-05-27T14:17:43.992Z</time>
      </trkpt>
      <trkpt lat="44.26339" lon="5.74779">
        <ele>637</ele>
        <time>2021-05-27T14:18:00.095Z</time>
      </trkpt>
      <trkpt lat="44.26324" lon="5.74748">
        <ele>638</ele>
        <time>2021-05-27T14:18:13.369Z</time>
      </trkpt>
      <trkpt lat="44.2631" lon="5.74715">
        <ele>638.1</ele>
        <time>2021-05-27T14:18:22.635Z</time>
      </trkpt>
      <trkpt lat="44.26291" lon="5.74668">
        <ele>637.8</ele>
        <time>2021-05-27T14:18:30.454Z</time>
      </trkpt>
      <trkpt lat="44.26281" lon="5.74638">
        <ele>637.2</ele>
        <time>2021-05-27T14:18:34.318Z</time>
      </trkpt>
      <trkpt lat="44.26282" lon="5.74606">
        <ele>638.1</ele>
        <time>2021-05-27T14:18:45.994Z</time>
      </trkpt>
      <trkpt lat="44.26296" lon="5.74567">
        <ele>640.7</ele>
        <time>2021-05-27T14:19:08.763Z</time>
      </trkpt>
      <trkpt lat="44.26315" lon="5.74529">
        <ele>642.4</ele>
        <time>2021-05-27T14:19:27.839Z</time>
      </trkpt>
      <trkpt lat="44.26334" lon="5.74496">
        <ele>643</ele>
        <time>2021-05-27T14:19:39.915Z</time>
      </trkpt>
      <trkpt lat="44.26358" lon="5.74459">
        <ele>644.3</ele>
        <time>2021-05-27T14:19:57.394Z</time>
      </trkpt>
      <trkpt lat="44.26365" lon="5.74419">
        <ele>644.9</ele>
        <time>2021-05-27T14:20:09.212Z</time>
      </trkpt>
      <trkpt lat="44.26361" lon="5.74388">
        <ele>646</ele>
        <time>2021-05-27T14:20:21.970Z</time>
      </trkpt>
      <trkpt lat="44.26352" lon="5.74349">
        <ele>647.1</ele>
        <time>2021-05-27T14:20:36.542Z</time>
      </trkpt>
      <trkpt lat="44.26346" lon="5.74309">
        <ele>647.3</ele>
        <time>2021-05-27T14:20:46.722Z</time>
      </trkpt>
      <trkpt lat="44.26341" lon="5.74253">
        <ele>647</ele>
        <time>2021-05-27T14:20:54.935Z</time>
      </trkpt>
      <trkpt lat="44.26337" lon="5.74179">
        <ele>647.3</ele>
        <time>2021-05-27T14:21:13.209Z</time>
      </trkpt>
      <trkpt lat="44.26333" lon="5.74108">
        <ele>647.7</ele>
        <time>2021-05-27T14:21:31.127Z</time>
      </trkpt>
      <trkpt lat="44.26327" lon="5.74008">
        <ele>648.6</ele>
        <time>2021-05-27T14:21:57.597Z</time>
      </trkpt>
      <trkpt lat="44.26324" lon="5.73958">
        <ele>648</ele>
        <time>2021-05-27T14:22:04.073Z</time>
      </trkpt>
      <trkpt lat="44.26321" lon="5.73908">
        <ele>647.4</ele>
        <time>2021-05-27T14:22:10.549Z</time>
      </trkpt>
      <trkpt lat="44.26319" lon="5.73861">
        <ele>647.1</ele>
        <time>2021-05-27T14:22:17.266Z</time>
      </trkpt>
      <trkpt lat="44.26316" lon="5.73817">
        <ele>646.6</ele>
        <time>2021-05-27T14:22:23.034Z</time>
      </trkpt>
      <trkpt lat="44.26309" lon="5.73758">
        <ele>645.6</ele>
        <time>2021-05-27T14:22:30.174Z</time>
      </trkpt>
      <trkpt lat="44.26298" lon="5.73681">
        <ele>644.8</ele>
        <time>2021-05-27T14:22:40.623Z</time>
      </trkpt>
      <trkpt lat="44.26291" lon="5.73636">
        <ele>645</ele>
        <time>2021-05-27T14:22:52.009Z</time>
      </trkpt>
      <trkpt lat="44.26284" lon="5.73587">
        <ele>645.9</ele>
        <time>2021-05-27T14:23:07.169Z</time>
      </trkpt>
      <trkpt lat="44.26277" lon="5.73532">
        <ele>648</ele>
        <time>2021-05-27T14:23:30.357Z</time>
      </trkpt>
      <trkpt lat="44.26268" lon="5.73475">
        <ele>649.6</ele>
        <time>2021-05-27T14:23:51.346Z</time>
      </trkpt>
      <trkpt lat="44.26261" lon="5.73438">
        <ele>650.1</ele>
        <time>2021-05-27T14:24:02.076Z</time>
      </trkpt>
    </trkseg>
  </trk>
</gpx>